[[{"header":{"parameterUnit":"m.s-1","parameterCategory":1,"la1":30.6,"la2":28.766,"lo1":-90.7593,"lo2":-88.6598,"dy":0.0162,"dx":0.0183,"nx":116,"ny":114,"refTime":"2024-05-11T06:00:00:Z","depth":0,"parameterNumber":2,"parameterNumberName":"U-component_of_WINDS"},"data":[0.0,0.0,0.0,0.0,0.0,0.0,0.0,0.0,0.0,0.0,0.0,0.0,0.0,0.0,0.0,0.0,0.0,0.0,0.0,0.0,0.0,0.0,0.0,0.0,0.0,0.0,0.0,0.0,0.0,0.0,0.0,0.0,0.0,0.0,0.0,0.0,0.0,0.0,0.0,0.0,0.0,0.0,0.0,0.0,0.0,0.0,0.0,0.0,0.0,0.0,0.0,0.0,0.0,0.0,0.0,0.0,0.0,0.0,0.0,0.0,0.0,0.0,0.0,0.0,0.0,0.0,0.0,0.0,0.0,0.0,0.0,0.0,0.0,0.0,0.0,0.0,0.0,0.0,0.0,0.0,0.0,0.0,0.0,0.0,0.0,0.0,0.0,0.0,0.0,0.0,0.0,0.0,0.0,0.0,0.0,0.0,0.0,0.0,0.0,0.0,0.0,0.0,0.0,0.0,0.0,0.0,0.0,0.0,0.0,0.0,0.0,0.0,0.0,0.0,0.0,0.0,0.0,0.0,0.0,0.0,0.0,0.0,0.0,0.0,0.0,0.0,0.0,0.0,0.0,0.0,0.0,0.0,0.0,0.0,0.0,0.0,0.0,0.0,0.0,0.0,0.0,0.0,0.0,0.0,0.0,0.0,0.0,0.0,0.0,0.0,0.0,0.0,0.0,0.0,0.0,0.0,0.0,0.0,0.0,0.0,0.0,0.0,0.0,0.0,0.0,0.0,0.0,0.0,0.0,0.0,0.0,0.0,0.0,0.0,0.0,0.0,0.0,0.0,0.0,0.0,0.0,0.0,0.0,0.0,0.0,0.0,0.0,0.0,0.0,0.0,0.0,0.0,0.0,0.0,0.0,0.0,0.0,0.0,0.0,0.0,0.0,0.0,0.0,0.0,0.0,0.0,0.0,0.0,0.0,0.0,0.0,0.0,0.0,0.0,0.0,0.0,0.0,0.0,0.0,0.0,0.0,0.0,0.0,0.0,0.0,0.0,0.0,0.0,0.0,0.0,0.0,0.0,0.0,0.0,0.0,0.0,0.0,0.0,0.0,0.0,0.0,0.0,0.0,0.0,0.0,0.0,0.0,0.0,0.0,0.0,0.0,0.0,0.0,0.0,0.0,0.0,0.0,0.0,0.0,0.0,0.0,0.0,0.0,0.0,0.0,0.0,0.0,0.0,0.0,0.0,0.0,0.0,0.0,0.0,0.0,0.0,0.0,0.0,0.0,0.0,0.0,0.0,0.0,0.0,0.0,0.0,0.0,0.0,0.0,0.0,0.0,0.0,0.0,0.0,0.0,0.0,0.0,0.0,0.0,0.0,0.0,0.0,0.0,0.0,0.0,0.0,0.0,0.0,0.0,0.0,0.0,0.0,0.0,0.0,0.0,0.0,0.0,0.0,0.0,0.0,0.0,0.0,0.0,0.0,0.0,0.0,0.0,0.0,0.0,0.0,0.0,0.0,0.0,0.0,0.0,0.0,0.0,0.0,0.0,0.0,0.0,0.0,0.0,0.0,0.0,0.0,0.0,0.0,0.0,0.0,0.0,0.0,0.0,0.0,0.0,0.0,0.0,0.0,0.0,0.0,0.0,0.0,0.0,0.0,0.0,0.0,0.0,0.0,0.0,0.0,0.0,0.0,0.0,0.0,0.0,0.0,0.0,0.0,0.0,0.0,0.0,0.0,0.0,0.0,0.0,0.0,0.0,0.0,0.0,0.0,0.0,0.0,0.0,0.0,0.0,0.0,0.0,0.0,0.0,0.0,0.0,0.0,0.0,0.0,0.0,0.0,0.0,0.0,0.0,0.0,0.0,0.0,0.0,0.0,0.0,0.0,0.0,0.0,0.0,0.0,0.0,0.0,0.0,0.0,0.0,0.0,0.0,0.0,0.0,0.0,0.0,0.0,0.0,0.0,0.0,0.0,0.0,0.0,0.0,0.0,0.0,0.0,0.0,0.0,0.0,0.0,0.0,0.0,0.0,0.0,0.0,0.0,0.0,0.0,0.0,0.0,0.0,0.0,0.0,0.0,0.0,0.0,0.0,0.0,0.0,0.0,0.0,0.0,0.0,0.0,0.0,0.0,0.0,0.0,0.0,0.0,0.0,0.0,0.0,0.0,0.0,0.0,0.0,0.0,0.0,0.0,0.0,0.0,0.0,0.0,0.0,0.0,0.0,0.0,0.0,0.0,0.0,0.0,0.0,0.0,0.0,0.0,0.0,0.0,0.0,0.0,0.0,0.0,0.0,0.0,0.0,0.0,0.0,0.0,0.0,0.0,0.0,0.0,0.0,0.0,0.0,0.0,0.0,0.0,0.0,0.0,0.0,0.0,0.0,0.0,0.0,0.0,0.0,0.0,0.0,0.0,0.0,0.0,0.0,0.0,0.0,0.0,0.0,0.0,0.0,0.0,0.0,0.0,0.0,0.0,0.0,0.0,0.0,0.0,0.0,0.0,0.0,0.0,0.0,0.0,0.0,0.0,0.0,0.0,0.0,0.0,0.0,0.0,0.0,0.0,0.0,0.0,0.0,0.0,0.0,0.0,0.0,0.0,0.0,0.0,0.0,0.0,0.0,0.0,0.0,0.0,0.0,0.0,0.0,0.0,0.0,0.0,0.0,0.0,0.0,0.0,0.0,0.0,0.0,0.0,0.0,0.0,0.0,0.0,0.0,0.0,0.0,0.0,0.0,0.0,0.0,0.0,0.0,0.0,0.0,0.0,0.0,0.0,0.0,0.0,0.0,0.0,0.0,0.0,0.0,0.0,0.0,0.0,0.0,0.0,0.0,0.0,0.0,0.0,0.0,0.0,0.0,0.0,0.0,0.0,0.0,0.0,0.0,0.0,0.0,0.0,0.0,0.0,0.0,0.0,0.0,0.0,0.0,0.0,0.0,0.0,0.0,0.0,0.0,0.0,0.0,0.0,0.0,0.0,0.0,0.0,0.0,0.0,0.0,0.0,0.0,0.0,0.0,0.0,0.0,0.0,0.0,0.0,0.0,0.0,0.0,0.0,0.0,0.0,0.0,0.0,0.0,0.0,0.0,0.0,0.0,0.0,0.0,0.0,0.0,0.0,0.0,0.0,0.0,0.0,0.0,0.0,0.0,0.0,0.0,0.0,0.0,0.0,0.0,0.0,0.0,0.0,0.0,0.0,0.0,0.0,0.0,0.0,0.0,0.0,0.0,0.0,0.0,0.0,0.0,0.0,0.0,0.0,0.0,0.0,0.0,0.0,0.0,0.0,0.0,0.0,0.0,0.0,0.0,0.0,0.0,0.0,0.0,0.0,0.0,0.0,0.0,0.0,0.0,0.0,0.0,0.0,0.0,0.0,0.0,0.0,0.0,0.0,0.0,0.0,0.0,0.0,0.0,0.0,0.0,0.0,0.0,0.0,0.0,0.0,0.0,0.0,0.0,0.0,0.0,0.0,0.0,0.0,0.0,0.0,0.0,0.0,0.0,0.0,0.0,0.0,0.0,0.0,0.0,0.0,0.0,0.0,0.0,0.0,0.0,0.0,0.0,0.0,0.0,0.0,0.0,0.0,0.0,0.0,0.0,0.0,0.0,0.0,0.0,0.0,0.0,0.0,0.0,0.0,0.0,0.0,0.0,0.0,0.0,0.0,0.0,0.0,0.0,0.0,0.0,0.0,0.0,0.0,0.0,0.0,0.0,0.0,0.0,0.0,0.0,0.0,0.0,0.0,0.0,0.0,0.0,0.0,0.0,0.0,0.0,0.0,0.0,0.0,0.0,0.0,0.0,0.0,0.0,0.0,0.0,0.0,0.0,0.0,0.0,0.0,0.0,0.0,0.0,0.0,0.0,0.0,0.0,0.0,0.0,0.0,0.0,0.0,0.0,0.0,0.0,0.0,0.0,0.0,0.0,0.0,0.0,0.0,0.0,0.0,0.0,0.0,0.0,0.0,0.0,0.0,0.0,0.0,0.0,0.0,0.0,0.0,0.0,0.0,0.0,0.0,0.0,0.0,0.0,0.0,0.0,0.0,0.0,0.0,0.0,0.0,0.0,0.0,0.0,0.0,0.0,0.0,0.0,0.0,0.0,0.0,0.0,0.0,0.0,0.0,0.0,0.0,0.0,0.0,0.0,0.0,0.0,0.0,0.0,0.0,0.0,0.0,0.0,0.0,0.0,0.0,0.0,0.0,0.0,0.0,0.0,0.0,0.0,0.0,0.0,0.0,0.0,0.0,0.0,0.0,0.0,0.0,0.0,0.0,0.0,0.0,0.0,0.0,0.0,0.0,0.0,0.0,0.0,0.0,0.0,0.0,0.0,0.0,0.0,0.0,0.0,0.0,0.0,0.0,0.0,0.0,0.0,0.0,0.0,0.0,0.0,0.0,0.0,0.0,0.0,0.0,0.0,0.0,0.0,0.0,0.0,0.0,0.0,0.0,0.0,0.0,0.0,0.0,0.0,0.0,0.0,0.0,0.0,0.0,0.0,0.0,0.0,0.0,0.0,0.0,0.0,0.0,0.0,0.0,0.0,0.0,0.0,0.0,0.0,0.0,0.0,0.0,0.0,0.0,0.0,0.0,0.0,0.0,0.0,0.0,0.0,0.0,0.0,0.0,0.0,0.0,0.0,0.0,0.0,0.0,0.0,0.0,0.0,0.0,0.0,0.0,0.0,0.0,0.0,0.0,0.0,0.0,0.0,0.0,0.0,0.0,0.0,0.0,0.0,0.0,0.0,0.0,0.0,0.0,0.0,0.0,0.0,0.0,0.0,0.0,0.0,0.0,0.0,0.0,0.0,0.0,0.0,0.0,0.0,0.0,0.0,0.0,0.0,0.0,0.0,0.0,0.0,0.0,0.0,0.0,0.0,0.0,0.0,0.0,0.0,0.0,0.0,0.0,0.0,0.0,0.0,0.0,0.0,0.0,0.0,0.0,0.0,0.0,0.0,0.0,0.0,0.0,0.0,0.0,0.0,0.0,0.0,0.0,0.0,0.0,0.0,0.0,0.0,0.0,0.0,0.0,0.0,0.0,0.0,0.0,0.0,0.0,0.0,0.0,0.0,0.0,0.0,0.0,0.0,0.0,0.0,0.0,0.0,0.0,0.0,0.0,0.0,0.0,0.0,0.0,0.0,0.0,0.0,0.0,0.0,0.0,0.0,0.0,0.0,0.0,0.0,0.0,0.0,0.0,0.0,0.0,0.0,0.0,0.0,0.0,0.0,0.0,0.0,0.0,0.0,0.0,0.0,0.0,0.0,0.0,0.0,0.0,0.0,0.0,0.0,0.0,0.0,0.0,0.0,0.0,0.0,0.0,0.0,0.0,0.0,0.0,0.0,0.0,0.0,0.0,0.0,0.0,0.0,0.0,0.0,0.0,0.0,0.0,0.0,0.0,0.0,0.0,0.0,0.0,0.0,0.0,0.0,0.0,0.0,0.0,0.0,0.0,0.0,0.0,0.0,0.0,0.0,0.0,0.0,0.0,0.0,0.0,0.0,0.0,0.0,0.0,0.0,0.0,0.0,0.0,0.0,0.0,0.0,0.0,0.0,0.0,0.0,0.0,0.0,0.0,0.0,0.0,0.0,0.0,0.0,0.0,0.0,0.0,0.0,0.0,0.0,0.0,0.0,0.0,0.0,0.0,0.0,0.0,0.0,0.0,0.0,0.0,0.0,0.0,0.0,0.0,0.0,0.0,0.0,0.0,0.0,0.0,0.0,0.0,0.0,0.0,0.0,0.0,0.0,0.0,0.0,0.0,0.0,0.0,0.0,0.0,0.0,0.0,0.0,0.0,0.0,0.0,0.0,0.0,0.0,0.0,0.0,0.0,0.0,0.0,0.0,0.0,0.0,0.0,0.0,0.0,0.0,0.0,0.0,0.0,0.0,0.0,0.0,0.0,0.0,0.0,0.0,0.0,0.0,0.0,0.0,0.0,0.0,0.0,0.0,0.0,0.0,0.0,0.0,0.0,0.0,0.0,0.0,0.0,0.0,0.0,0.0,0.0,0.0,0.0,0.0,0.0,0.0,0.0,0.0,0.0,0.0,0.0,0.0,0.0,0.0,0.0,0.0,0.0,0.0,0.0,0.0,0.0,0.0,0.0,0.0,0.0,0.0,0.0,0.0,0.0,-4.6345,-4.6301,0.0,0.0,0.0,0.0,0.0,0.0,0.0,0.0,0.0,0.0,0.0,0.0,0.0,0.0,0.0,0.0,0.0,0.0,0.0,0.0,0.0,0.0,0.0,-0.0,-0.0,-0.0,-0.0,-0.0,-0.0,0.0,0.0,0.0,0.0,0.0,-0.0,-0.0,-0.0,-0.0,-0.3495,-0.6996,-1.0645,-1.0645,-1.0765,-1.0738,0.0,0.0,0.0,0.0,0.0,0.0,0.0,0.0,0.0,0.0,0.0,0.0,0.0,0.0,0.0,0.0,0.0,0.0,0.0,0.0,0.0,0.0,0.0,0.0,0.0,0.0,0.0,0.0,0.0,0.0,0.0,0.0,0.0,0.0,0.0,0.0,0.0,0.0,0.0,0.0,0.0,0.0,0.0,0.0,0.0,0.0,0.0,0.0,0.0,0.0,0.0,0.0,0.0,0.0,0.0,0.0,0.0,0.0,0.0,0.0,0.0,0.0,0.0,0.0,0.0,0.0,0.0,0.0,0.0,0.0,-4.6345,-4.6301,0.0,0.0,0.0,0.0,0.0,0.0,0.0,0.0,0.0,0.0,0.0,0.0,0.0,0.0,0.0,0.0,0.0,0.0,0.0,0.0,0.0,-0.0,-0.0,-0.0,-0.0,-0.0,-0.0,-0.0,-0.0,-0.0,0.0,0.0,0.0,-0.0,-0.0,-0.0,-0.0672,-0.1879,-0.7813,-1.0665,-1.0744,-1.0731,-1.0717,-1.0717,-1.0717,0.0,0.0,0.0,0.0,0.0,0.0,0.0,0.0,0.0,0.0,0.0,0.0,0.0,0.0,0.0,0.0,0.0,0.0,0.0,0.0,0.0,0.0,0.0,0.0,0.0,0.0,0.0,0.0,0.0,0.0,0.0,0.0,0.0,0.0,0.0,0.0,0.0,0.0,0.0,0.0,0.0,0.0,0.0,0.0,0.0,0.0,0.0,0.0,0.0,0.0,0.0,0.0,0.0,0.0,0.0,0.0,0.0,0.0,0.0,0.0,0.0,0.0,0.0,-3.5071,-3.9016,-4.6256,-4.6295,-4.6301,-4.6301,-4.6301,-4.6301,-4.6326,-4.6238,0.0,0.0,0.0,0.0,0.0,0.0,0.0,0.0,0.0,0.0,0.0,0.0,0.0,0.0,0.0,0.0,0.0,0.0,0.0,-0.0,-0.0,-0.0,-0.0,-0.0,-0.0,-0.0,-0.0,-0.0,-0.0,-0.0,-0.0,-0.0,-0.0,-0.0,-0.3096,-0.9326,-1.0245,-1.0751,-1.0724,-1.0724,-1.0717,-1.0717,-1.0717,-1.0717,-1.0717,0.0,0.0,0.0,0.0,0.0,0.0,0.0,0.0,0.0,0.0,0.0,0.0,0.0,0.0,0.0,0.0,0.0,0.0,0.0,0.0,0.0,0.0,0.0,0.0,0.0,0.0,0.0,0.0,0.0,0.0,0.0,0.0,0.0,0.0,0.0,0.0,0.0,0.0,0.0,0.0,0.0,-2.1061,-2.1094,0.0,0.0,0.0,0.0,0.0,0.0,0.0,0.0,0.0,0.0,0.0,0.0,0.0,-3.3348,-3.3411,-3.3331,-3.6189,-4.1781,-4.1708,-4.3288,-4.6245,-4.625,-4.6301,-4.6301,-4.6301,0.0,-4.6326,-4.6351,0.0,0.0,0.0,0.0,0.0,0.0,0.0,0.0,0.0,0.0,0.0,0.0,0.0,0.0,0.0,0.0,0.0,0.0,0.0,0.0,0.0,-0.0,-0.0,-0.0,-0.0,-0.0,-0.0,-0.0,-0.0,-0.0,-0.0,-0.0,-0.0,-0.0,-0.349,-1.0658,-1.0751,-1.0731,-1.0717,-1.0717,-1.0717,-1.0717,-1.0717,-1.0717,-1.0717,-1.0717,0.0,0.0,0.0,0.0,0.0,0.0,0.0,0.0,0.0,0.0,0.0,0.0,0.0,0.0,0.0,0.0,0.0,0.0,0.0,0.0,0.0,0.0,0.0,0.0,0.0,0.0,0.0,0.0,0.0,0.0,0.0,0.0,0.0,0.0,0.0,0.0,0.0,0.0,0.0,-2.1109,-2.1047,-2.1039,-2.6881,-3.0882,0.0,0.0,0.0,0.0,0.0,0.0,0.0,0.0,0.0,-3.3418,-3.3418,-3.3434,-3.3434,-3.6989,-4.0167,-4.3032,-4.2959,-4.4153,-4.6289,-4.6281,-4.6245,-4.6301,-4.6301,-4.6301,-4.6301,-4.6301,-4.6334,-4.6464,0.0,0.0,0.0,0.0,-4.9568,-4.959,0.0,0.0,0.0,0.0,0.0,0.0,0.0,0.0,0.0,0.0,0.0,0.0,-0.0,-0.0,-0.0,-0.0,-0.0,-0.0,-0.0,-0.0,-0.0,-0.0,-0.0,-0.0,-0.0,-0.1744,-0.5359,-1.0751,-1.0731,-1.0717,-1.0717,-1.0717,-1.0717,-1.0717,-1.0717,-1.0717,-1.0717,-1.124,-1.1372,-1.1505,0.0,0.0,0.0,0.0,0.0,0.0,0.0,0.0,0.0,0.0,0.0,0.0,0.0,0.0,0.0,0.0,0.0,0.0,0.0,0.0,0.0,0.0,0.0,0.0,0.0,0.0,0.0,0.0,0.0,0.0,0.0,0.0,0.0,0.0,0.0,0.0,0.0,-2.1109,-2.1047,-2.1039,-2.6881,-3.0882,0.0,0.0,0.0,0.0,0.0,0.0,-3.0869,-3.2461,-3.3381,-3.3418,-3.3426,-3.3381,-3.3376,-3.9767,-4.3008,-4.302,-4.2945,-4.3876,-4.5461,-4.6019,-4.6357,-4.6301,-4.6301,-4.6301,-4.6301,-4.6301,-4.6259,-4.6512,-4.8172,-4.8708,-4.8786,-4.9394,-4.957,-4.959,0.0,0.0,0.0,0.0,0.0,0.0,0.0,0.0,0.0,0.0,0.0,-0.0,-0.0,-0.0,-0.0,-0.0,-0.0,-0.0,-0.0,-0.0,-0.0,-0.0,-0.0,-0.0,-0.0,-0.6702,-1.0345,-1.0751,-1.0731,-1.0717,-1.0717,-1.0717,-1.0717,-1.0717,-1.0717,-1.0717,-1.085,-1.2413,-1.3193,-1.3456,-1.6818,0.0,0.0,0.0,0.0,0.0,0.0,0.0,0.0,0.0,0.0,0.0,0.0,0.0,0.0,0.0,0.0,0.0,0.0,0.0,0.0,0.0,0.0,0.0,0.0,0.0,0.0,0.0,0.0,0.0,0.0,0.0,0.0,0.0,0.0,0.0,0.0,0.0,0.0,-2.1039,-2.6881,0.0,0.0,0.0,0.0,-3.0898,-3.0898,-3.0955,-3.085,-3.2509,-3.3391,-3.3398,-3.3342,-3.3356,-3.3374,-3.9803,-4.2995,-4.3011,-4.2999,-4.3094,-4.3259,-4.5389,-4.6357,-4.6301,-4.6301,-4.6301,-4.6301,-4.6301,-4.6259,-4.6314,-4.6364,-4.6514,-4.6675,-4.8786,-4.957,-4.959,0.0,0.0,0.0,0.0,0.0,-0.0,-0.0,-0.0,-0.0,-0.0,-0.0,-0.0,-0.0,-0.0,-0.0,-0.0,-0.0,-0.0,-0.0,-0.0,-0.0,-0.0,-0.0,-0.2121,-0.6766,-0.9365,-1.0744,-1.0731,-1.0724,-1.0717,-1.0717,-1.0717,-1.0717,-1.0717,-1.0717,-1.0717,-1.085,-1.2545,-1.3325,-1.3578,-1.7087,-1.8512,0.0,0.0,0.0,0.0,0.0,0.0,0.0,0.0,0.0,0.0,0.0,0.0,0.0,0.0,0.0,0.0,0.0,0.0,0.0,0.0,0.0,0.0,0.0,0.0,0.0,0.0,0.0,0.0,0.0,0.0,0.0,0.0,0.0,0.0,0.0,0.0,0.0,-2.1147,-2.6953,0.0,-3.0937,-3.0898,-3.0898,-3.0898,-3.0898,-3.0839,-3.0926,-3.2492,-3.3414,-3.3355,-3.3395,-3.5438,-3.9507,-4.1852,-4.3051,-4.2945,-4.3037,-4.2985,-4.3094,-4.5254,-4.6273,-4.6301,-4.6301,-4.6301,-4.6301,-4.6301,-4.6255,-4.6234,-4.6234,-4.6266,-4.6535,-4.8837,-4.9647,-4.959,0.0,0.0,0.0,-0.0,-0.0,-0.0,-0.0,-0.0,-0.0,-0.0,-0.0,-0.0,-0.0,-0.0,-0.0,-0.0,-0.0,-0.0,-0.0,-0.0,-0.0,-0.0,-0.0,-0.3415,-1.0568,-1.0636,-1.0636,-1.0706,-1.0437,-1.0437,-1.0575,-1.0568,-1.0568,-1.0575,-1.0575,-1.0575,-1.0699,-1.3009,-1.4105,-1.4493,-1.7988,-1.9419,-1.9546,0.0,0.0,0.0,0.0,0.0,0.0,0.0,0.0,0.0,0.0,0.0,0.0,0.0,0.0,0.0,0.0,0.0,0.0,0.0,0.0,0.0,0.0,0.0,0.0,0.0,0.0,0.0,0.0,0.0,0.0,0.0,0.0,0.0,0.0,-2.1159,-2.1878,-2.4115,-2.8211,-3.0895,-3.0918,-3.0898,-3.0898,-3.0898,-3.0898,-3.0918,-3.0873,-3.1934,-3.2848,-3.3426,-3.3336,-3.548,-3.9719,-3.9794,-4.0832,-4.297,-4.305,-4.2974,-4.3069,-4.5269,-4.6289,-4.6301,-4.6301,-4.6301,-4.6301,-4.6301,-4.6301,-4.6301,-4.6301,-4.6262,-4.6613,-4.8734,-4.9596,-4.9568,0.0,-0.0,-0.0,-0.0,-0.0,-0.0,-0.0,-0.0,-0.0,-0.0,-0.0,-0.0,-0.0,-0.0,-0.0,-0.0,-0.0,-0.0,-0.0,-0.0,-0.0,-0.0,-0.0262,-0.3535,-1.0541,-1.0637,-1.0684,-1.0672,-1.0149,-1.0015,-1.0283,-1.0149,-1.0149,-1.0283,-1.0283,-1.0283,-1.0531,-1.376,-1.5499,-1.6152,-1.9661,-2.1096,-2.1096,0.0,0.0,0.0,0.0,0.0,0.0,0.0,0.0,0.0,0.0,0.0,0.0,0.0,0.0,0.0,0.0,0.0,0.0,0.0,0.0,0.0,0.0,0.0,0.0,0.0,0.0,0.0,0.0,0.0,0.0,0.0,0.0,0.0,-2.1109,-2.1159,-2.3578,-3.0129,-3.0844,-3.0895,-3.0918,-3.0898,-3.0898,-3.0898,-3.0898,-3.0918,-3.0873,-3.094,-3.17,-3.3406,-3.3391,-3.3457,-3.3353,-3.3589,-3.6837,-4.3011,-4.2986,-4.2974,-4.3069,-4.5244,-4.6264,-4.6301,-4.6301,-4.6301,-4.6301,-4.6301,-4.6301,-4.6301,-4.6301,-4.6259,-4.6586,-4.8756,-4.9569,-4.9546,-0.0,-0.0,-0.0,-0.0,-0.0,-0.0,-0.0,-0.0,-0.0,-0.0,-0.0,-0.0,-0.0,-0.0,-0.0,-0.0,-0.0,-0.0,-0.0,-0.0,-0.0,-0.0,-0.4959,-0.8632,-1.0649,-1.0223,-1.0055,-1.0015,-0.9888,-0.9888,-1.0149,-1.0149,-1.0149,-1.0283,-1.0283,-1.0283,-1.0404,-1.2649,-1.3582,-1.4196,-1.8924,-2.0802,-2.0815,0.0,0.0,0.0,0.0,0.0,0.0,0.0,0.0,0.0,0.0,0.0,0.0,0.0,0.0,0.0,0.0,0.0,0.0,0.0,0.0,0.0,0.0,0.0,0.0,0.0,0.0,0.0,0.0,0.0,0.0,0.0,-2.1109,-2.1109,-2.1109,-2.1159,-2.3578,-3.0129,-3.0844,-3.0895,-3.0918,-3.0898,-3.0898,-3.0898,-3.0898,-3.0937,-3.0898,-3.0945,-3.1706,-3.3334,-3.3394,-3.3374,-3.3356,-3.8055,-4.122,-4.302,-4.2937,-4.2962,-4.3069,-4.5258,-4.628,-4.6332,-4.632,-4.6301,-4.6301,-4.6301,-4.6301,-4.6301,-4.6301,-4.6259,-4.6389,-4.6936,-4.8284,-4.9593,-0.0,-0.0,-0.0,-0.0,-0.0,-0.0,-0.0,-0.0,-0.0,-0.0,-0.0,-0.0,-0.0,-0.0,-0.0,-0.0,-0.0,-0.0,-0.0,-0.0,-0.1298,-0.4371,-0.8436,-1.0635,-1.0335,-0.9936,-0.9764,-0.983,-0.983,-0.983,-0.9962,-0.9962,-0.9962,-1.0086,-1.0086,-1.0086,-1.0211,-1.1929,-1.2662,-1.2926,-1.6708,-1.8372,-1.8493,-1.8638,-1.8127,-1.7318,-1.7318,-1.6733,-1.6203,-1.825,0.0,0.0,0.0,0.0,0.0,0.0,0.0,0.0,0.0,0.0,0.0,0.0,0.0,0.0,0.0,0.0,0.0,0.0,0.0,0.0,0.0,0.0,0.0,0.0,-2.1109,-2.1109,-2.1109,-2.1159,-2.2566,-2.6327,-2.9269,-3.0895,-3.0918,-3.0898,-3.0898,-3.0898,-3.0898,-3.0898,-3.0898,-3.0892,-3.1653,-3.3316,-3.3414,-3.4698,-3.7378,-4.1093,-4.3026,-4.3012,-4.3012,-4.305,-4.3035,-4.4367,-4.538,-4.6324,-4.6295,-4.6301,-4.6301,-4.6301,-4.6301,-4.6301,0.0,0.0,0.0,0.0,-4.8459,-4.959,-0.0,-0.0,-0.0,-0.0,-0.0,-0.0,-0.0,-0.0,-0.0,-0.0,-0.0,-0.0,-0.0,-0.0,-0.0,-0.0,-0.0,-0.0,-0.0,-0.0649,-0.3984,-1.0351,-1.0572,-1.0342,-0.9797,-0.9777,-0.9828,-0.9822,-0.9822,-0.9822,-0.9822,-0.9822,-0.9822,-0.9822,-0.9822,-0.9822,-0.9943,-1.1382,-1.1976,-1.2113,-1.3723,-1.4779,-1.5474,-1.5504,-1.5503,-1.5413,-1.5413,-1.5297,-1.5226,-1.5365,0.0,0.0,0.0,0.0,0.0,0.0,0.0,0.0,0.0,0.0,0.0,0.0,0.0,0.0,0.0,0.0,0.0,0.0,0.0,0.0,0.0,0.0,0.0,0.0,-2.1109,-2.1109,-2.1109,-2.1061,-2.1067,-2.1133,-2.6884,-3.0934,-3.0918,-3.0898,-3.0898,-3.0898,-3.0898,-3.0898,-3.0898,-3.0955,0.0,0.0,0.0,-3.616,-4.1807,-4.1874,-4.2324,-4.2995,-4.3062,-4.305,-4.2945,-4.3037,-4.4153,-4.6248,-4.627,-4.5814,-4.5228,-4.596,-4.6301,-4.6301,-4.6301,-4.6351,-4.6602,-4.8804,-4.9546,-4.959,-0.0,-0.0,-0.0,-0.0,-0.0,-0.0,-0.0,-0.0,-0.0,-0.0,-0.0,-0.0,-0.0,-0.0,-0.0,-0.0,-0.0,-0.0,-0.0,-0.4933,-0.8514,-0.9954,-0.9929,-0.9955,-0.9797,-0.9801,-0.9849,-0.9822,-0.9822,-0.9822,-0.9822,-0.9822,-0.9822,-0.9822,-0.9822,-0.9822,-0.9822,-1.0179,-1.0301,-1.0301,-1.0694,-1.2499,-1.5136,-1.5443,-1.4663,-1.3456,-1.3456,-1.2562,-1.1431,-1.1698,-1.1665,-1.1652,-1.0969,-1.0711,0.0,0.0,0.0,0.0,0.0,0.0,0.0,0.0,0.0,0.0,0.0,0.0,0.0,0.0,0.0,0.0,0.0,0.0,0.0,-2.1109,-2.1109,-2.1109,-2.1109,-2.1069,-2.1118,-2.1161,-2.6952,-3.0926,-3.0957,-3.0898,-3.0898,-3.0898,-3.0898,-3.0898,-3.0898,-3.0955,-3.1084,-3.1347,-3.2693,-3.3963,-3.5271,-3.5231,-3.7875,-4.2971,-4.301,0.0,-4.2963,-4.2995,-4.4261,-4.6269,-4.6289,-4.3166,-3.8371,-4.4014,-4.6301,-4.6301,-4.6301,-4.6262,-4.6588,-4.8734,-4.9546,-4.959,-0.0,-0.0,-0.0,-0.0,-0.0,-0.0,-0.0,-0.0,-0.0,-0.0,-0.0,-0.0,-0.0,-0.0,-0.0,-0.0,-0.0,-0.0,-0.0,-0.641,-1.0161,-0.9825,-0.9843,-0.9837,-0.9814,-0.9856,-0.9822,-0.9822,-0.9822,-0.9822,-0.9822,-0.9822,-0.9822,-0.9822,-0.9822,-0.9822,-0.9822,-0.9822,-0.9822,-0.9822,-0.9822,-1.083,-1.2361,-1.2576,-1.2184,-1.1401,-1.1401,-1.1009,-1.0385,-1.0649,-1.0753,-1.074,-1.074,-1.0663,-1.0717,0.0,0.0,0.0,0.0,0.0,0.0,0.0,0.0,0.0,0.0,0.0,0.0,0.0,0.0,-2.1155,-2.1136,0.0,-2.1109,-2.1109,-2.1109,-2.1109,-2.1109,-2.1109,-2.1047,-2.1039,-2.6881,-3.0882,-3.0957,-3.0898,-3.0898,-3.0898,-3.0898,-3.0898,-3.0898,-3.0918,-3.0873,-3.0869,-3.2532,-3.3436,-3.3421,-3.3437,-3.6633,-4.2903,-3.9732,-3.9895,-4.2988,-4.4116,-4.3427,-4.1398,-4.4836,-4.299,-3.8078,-4.3009,-4.5454,-4.6362,-4.6305,-4.6337,-4.6612,-4.8785,-4.9546,-4.9411,-0.0,-0.0,-0.0,-0.0,-0.0,-0.0,-0.0,-0.0,-0.0,-0.0,-0.0,-0.0,-0.0,-0.0,-0.0,-0.0,-0.0,-0.0,-0.0,-0.5405,-0.9045,-0.9832,-0.9888,-0.985,-0.9829,-0.9822,-0.9822,-0.9822,-0.9822,-0.9822,-0.9822,-0.9822,-0.9822,-0.9822,-0.9822,-0.9822,-0.9822,-0.9822,-0.9822,-0.9822,-0.9822,-0.9822,-0.9822,-0.9822,-0.9897,-1.0005,-1.0005,-1.0107,-1.0236,-1.0496,-1.0593,-1.0582,-1.0718,-1.0671,-1.0636,-1.0636,-1.0636,0.0,0.0,0.0,0.0,0.0,0.0,0.0,0.0,-1.0754,-1.0713,-1.0697,-1.6198,-2.108,-2.1049,-2.1122,-2.1109,-2.1109,-2.1109,-2.1109,-2.1109,-2.1109,-2.1074,-2.1107,-2.6915,-3.0901,-3.0918,-3.0918,-3.0898,-3.0898,-3.0898,-3.0898,-3.0898,-3.0898,-3.0955,-3.0869,-3.2489,-3.3391,-3.3418,-3.3426,-3.6034,-4.1053,-3.587,-3.6058,-4.1208,-4.3289,-4.1962,-3.8196,-4.297,-4.2973,-3.984,-4.1937,-4.4088,-4.6266,-4.5527,-4.5306,-4.5719,-4.8559,-4.9141,-4.8158,-0.0,-0.0,-0.0,-0.0,-0.0,-0.0,-0.0,-0.0,-0.0,-0.0,-0.0,-0.0,-0.0,-0.0,-0.0,-0.0,-0.0,-0.0,-0.0,-0.0795,-0.3917,-0.996,-0.9936,-0.9764,-0.9822,-0.9822,-0.9822,-0.9822,-0.9822,-0.9822,-0.9822,-0.9822,-0.9822,-0.9822,-0.9822,-0.9822,-0.9822,-0.9822,-0.9822,-0.9822,-0.9822,-0.9822,-0.9822,-0.9822,-0.9829,-0.9849,-0.9849,-0.9821,-0.9824,-0.9948,-0.9916,-1.0042,-1.0565,-1.0707,-1.0721,-1.0721,-1.0721,-1.0721,-1.0721,-1.069,-1.0651,-1.0651,-1.0754,-1.0717,0.0,-1.0704,-1.0683,-1.0719,-1.6254,-2.1096,-2.108,-2.1075,-2.1109,-2.1109,-2.1109,-2.1109,-2.1109,-2.1109,-2.1141,-2.1121,-2.6912,-3.0857,-3.0873,-3.0937,-3.0898,-3.0898,-3.0898,-3.0898,-3.0898,-3.0898,-3.0955,-3.0869,-3.2489,-3.3391,-3.3418,-3.3426,-3.3753,-3.4478,-3.374,-3.3779,-3.4513,-3.6262,-4.0114,-4.4935,-4.1571,-4.044,-4.0857,-3.9606,-4.201,-4.6017,-4.2939,-4.1729,-4.2408,-4.7658,-4.7474,-4.5136,-0.0,-0.0,-0.0,-0.0,-0.0,-0.0,-0.0,-0.0,-0.0,-0.0,-0.0,-0.0,-0.0,-0.0,-0.0,-0.0,-0.0,-0.0,-0.0,-0.0,-0.1321,-0.4169,-0.7975,-1.0029,-0.9848,-0.9761,-0.9836,-0.9822,-0.9822,-0.9822,-0.9822,-0.9822,-0.9822,-0.9822,-0.9822,-0.9822,-0.9822,-0.9822,-0.9822,-0.9822,-0.9822,-0.9822,-0.9822,-0.9822,-0.9822,-0.9822,-0.9822,-0.9863,0.0,-0.9787,-0.9764,-0.9883,-1.0148,-1.0209,-1.0149,-1.0149,-1.0149,-1.0169,-1.0115,-1.0181,-1.0247,-1.0602,-1.0677,-1.0717,-1.0717,-1.0717,-1.0697,-1.0747,-1.3012,-1.6244,-2.04,-2.1155,-2.1089,-2.1122,-2.1109,-2.1109,-2.1109,-2.1109,-2.1069,-2.1101,-2.3544,-2.6671,-3.0496,-3.0839,-3.0898,-3.0898,-3.0898,-3.0898,-3.0898,-3.0898,-3.0955,-3.0869,-3.2489,-3.3391,-3.3418,-3.3348,-3.3348,-3.3418,-3.3381,-3.3426,-3.3519,-3.6269,-3.9663,-4.3161,-3.9194,-3.834,-3.9627,-3.8861,-4.0409,-4.3182,-4.1783,-4.1752,-4.2832,-4.4782,-4.4248,-4.2861,-0.0,-0.0,-0.0,-0.0,-0.0,-0.0,-0.0,-0.0,-0.0,-0.0,-0.0,-0.0,-0.0,-0.0,-0.0,-0.0,-0.0,-0.0,-0.0,-0.0,-0.0,-0.0,-0.4813,-0.7709,-0.8432,-0.9354,-0.9774,-0.9842,-0.9842,-0.9842,-0.9829,-0.9829,-0.9829,-0.9822,-0.9822,-0.9822,-0.9822,-0.9822,-0.9822,-0.9822,-0.9822,-0.9822,-0.9822,-0.9822,-0.9822,-0.9829,-0.9829,-0.9829,-0.9829,-0.9842,-0.9794,-0.9757,-0.9757,-0.983,-0.979,-0.979,-0.979,-0.9816,-0.9819,-0.9883,-1.0207,-1.0622,-1.069,-1.0717,-1.0717,-1.0717,-1.0704,-1.0643,-1.0747,-1.2188,-1.726,-1.9836,-2.1041,-2.1062,-2.1136,-2.1109,-2.1109,-2.1109,-2.1109,-2.1109,-2.1146,-2.2921,-2.7744,-2.9898,-3.0879,-3.0898,-3.0898,-3.0898,-3.0898,-3.0859,-3.0914,-3.0869,-3.2588,-3.3367,-3.3418,-3.3418,-3.3418,-3.3418,-3.3418,-3.3418,-3.3457,-3.6728,-3.8787,-3.9627,-3.7575,-3.7193,-3.7822,-3.7822,-3.8861,-4.0408,-3.9888,-4.0795,-4.2189,-4.1485,-4.105,-4.1223,-0.0,-0.0,-0.0,-0.0,-0.0,-0.0,-0.0,-0.0,-0.0,-0.0,-0.0,-0.0,-0.0,-0.0,-0.0,-0.0,-0.0,-0.0,-0.0,-0.0,-0.0,-0.0,-0.0262,-0.1812,-0.5025,-0.8187,-0.979,-0.9781,-0.9781,-0.9767,-0.9856,-0.9856,-0.9842,-0.9822,-0.9822,-0.9822,-0.9822,-0.9822,-0.9822,-0.9822,-0.9822,-0.9822,-0.9822,-0.9822,-0.9836,-0.9856,-0.9856,-0.9856,-0.9856,-0.9767,-0.9781,-0.9787,-0.9787,-0.9787,-0.9794,-0.9794,-0.9794,-0.9821,-0.981,-1.0209,-1.0742,-1.0732,-1.0747,-1.0717,-1.0717,-1.0717,-1.0717,-1.0717,-1.0656,-1.0733,-1.0995,-1.6581,-2.108,-2.1067,-2.1075,-2.1109,-2.1109,-2.1109,-2.1109,-2.1109,-2.1146,-2.1163,-2.1404,-2.7125,-3.0876,-3.0918,-3.0898,-3.0898,-3.0898,-3.0955,-3.0907,-3.0869,-3.2559,-3.3336,-3.3418,-3.3418,-3.3418,-3.3418,-3.3418,-3.3418,-3.3457,-3.616,-3.6958,-3.6287,-3.7822,-3.7575,-3.6016,-3.6016,-3.7059,-3.8465,-3.6789,-3.7173,-3.8591,-3.7788,-3.8505,-4.0383,-0.0,-0.0,-0.0,-0.0,-0.0,-0.0,-0.0,-0.0,-0.0,-0.0,-0.0,0.0,0.0,0.0,0.0,0.0,-0.0,-0.0,-0.0,-0.0,-0.0,-0.0,-0.0,-0.0524,-0.1682,-0.2794,-0.4392,-0.6496,-0.6557,-0.6526,-0.6639,-0.8763,-0.9761,-0.9754,-0.9754,-0.9754,-0.9754,-0.9754,-0.9754,-0.9754,-0.9754,-0.9754,-0.9754,-0.9754,-0.9761,-0.9767,0.0,-0.8395,-0.6888,-0.9026,-0.9781,-0.9026,-0.4671,-0.3314,-0.3314,-0.3314,-0.3314,-0.3332,-0.3284,-0.6914,-1.0656,-1.0747,-1.0704,-1.0738,-1.0724,-1.0717,-1.0717,-1.0717,-1.0697,-1.0663,-1.074,-1.2661,-1.5693,-2.0374,-2.1075,-2.1109,-2.1109,-2.1109,-2.1109,-2.1109,-2.1042,-2.1078,-2.1147,-2.7005,-3.0876,-3.0918,-3.0898,-3.0898,-3.0898,-3.0955,-3.1401,-3.2489,-3.3085,-3.3355,-3.3418,-3.3418,-3.3418,-3.3418,-3.3418,-3.3711,-3.4277,-3.5182,-3.5686,-3.6016,-3.6674,-3.6539,-3.6016,-3.6016,-3.7059,-3.8486,-3.6674,-3.7059,-3.8416,-3.7331,-3.745,-3.8487,0.0,-0.0,-0.0,-0.0,-0.0,0.0,0.0,0.0,0.0,0.0,0.0,0.0,0.0,0.0,0.0,0.0,0.0,-0.0,-0.0,-0.0,-0.0,-0.0,-0.0,-0.0,-0.0,-0.0,-0.1013,-0.3143,-0.3098,-0.3198,-0.3196,-0.5295,-0.6908,-0.8022,-0.8022,-0.8022,-0.8022,-0.8022,-0.8022,-0.8022,-0.8022,-0.8022,-0.8022,-0.8022,-0.8781,0.0,-0.9814,-0.8424,-0.6667,-0.6421,-0.6293,-0.5548,-0.1353,-0.0,-0.0,-0.0,-0.0,-0.0,-0.0,-0.3337,-0.6868,-0.6916,-0.8851,-1.0751,-1.0738,-1.0724,-1.0717,-1.0717,-1.0717,-1.0704,-1.0656,-1.0706,-1.2921,-2.0027,-2.1155,-2.1049,-2.1109,-2.1109,-2.1109,-2.1109,-2.1109,-2.1034,-2.1147,-2.7091,-3.0892,-3.0918,-3.0898,-3.0898,-3.0898,-3.1445,-3.2334,-3.3316,-3.3386,-3.3348,-3.3418,-3.3418,-3.3418,-3.3418,-3.3418,-3.3867,-3.4707,-3.4707,-3.5176,-3.6016,-3.6016,-3.6016,-3.6016,-3.6016,-3.6674,-3.7575,-3.6403,-3.6674,-3.7636,-3.6897,-3.6934,-3.7524,0.0,0.0,-0.0,0.0,0.0,0.0,0.0,0.0,0.0,0.0,0.0,0.0,0.0,0.0,0.0,0.0,0.0,0.0,-0.0,-0.0,-0.0,-0.0,-0.0,-0.0,-0.0,-0.0,-0.0,-0.0,-0.0,-0.0,-0.0,-0.0,-0.1723,-0.4671,-0.4671,-0.4671,-0.4671,-0.4671,-0.4671,-0.4671,-0.4671,-0.4671,-0.4671,-0.4671,-0.6789,-0.9821,-0.9821,-0.9581,-0.8335,-0.21,-0.0,-0.0,-0.0,-0.0,-0.0,-0.0,-0.0,-0.0,-0.0,-0.0,-0.0,-0.0,-0.5082,-1.0212,-1.0618,-1.0738,-1.0724,-1.0717,-1.0717,-1.0717,-1.0717,-1.0656,-1.2882,-1.9467,-2.0889,-2.1155,-2.1136,-2.1109,-2.1109,-2.1109,-2.1109,-2.1034,-2.1147,-2.6743,-3.0547,-3.082,-3.0898,-3.0898,-3.0898,-3.2495,-3.3316,-3.3457,-3.3336,-3.3418,-3.3418,-3.3418,-3.3418,-3.3418,-3.3418,-3.3867,-3.4707,-3.4707,-3.5176,-3.6016,-3.6016,-3.6016,-3.6016,-3.6016,-3.6016,-3.6016,-3.6016,-3.6016,-3.6074,-3.6484,-3.6894,-3.7324,0.0,0.0,0.0,0.0,0.0,0.0,0.0,0.0,0.0,0.0,0.0,0.0,0.0,0.0,0.0,0.0,0.0,0.0,-0.0,-0.0,-0.0,-0.0,-0.0,-0.0,-0.0,-0.0,-0.0,-0.0,-0.0,-0.0,-0.0,-0.0,-0.0499,-0.1233,-0.1233,-0.1233,-0.1233,-0.1233,-0.1233,-0.1233,-0.1233,-0.1233,-0.1233,-0.1233,-0.482,-0.9841,-0.9841,-0.6694,-0.2224,-0.0617,-0.0,-0.0,-0.0,-0.0,-0.0,-0.0,-0.0,-0.0,-0.0,-0.0,-0.0,-0.0,-0.134,-0.4152,-0.9534,-1.0751,-1.0738,-1.0724,-1.0717,-1.0717,-1.0717,-1.0656,-1.125,-1.3051,-1.7753,-2.1155,-2.1136,-2.1109,-2.1109,-2.1109,-2.1109,-2.1034,-2.1147,-2.2588,-2.5676,-3.0509,-3.0898,-3.0898,-3.0898,-3.1878,-3.2811,-3.3316,-3.3336,-3.3418,-3.3418,-3.3418,-3.3418,-3.3418,-3.3418,-3.3867,-3.4707,-3.4707,-3.5176,-3.6016,-3.6016,-3.6016,-3.6016,-3.6016,-3.6016,-3.6016,-3.6016,-3.6016,-3.6035,-3.6152,-3.6465,-3.6894,0.0,0.0,0.0,0.0,0.0,0.0,0.0,0.0,0.0,0.0,0.0,0.0,0.0,0.0,0.0,0.0,0.0,0.0,0.0,-0.0,-0.0,-0.0,-0.0,-0.0,-0.0,-0.0,-0.0,-0.0,-0.0,-0.0,-0.0,-0.0,-0.0,-0.0,-0.0,-0.0,-0.0,-0.0,-0.0,0.0,0.0,-0.0,-0.0,-0.0,-0.2268,-0.5556,-0.5519,-0.3122,-0.0,-0.0,-0.0,-0.0,-0.0,-0.0,-0.0,-0.0,-0.0,-0.0,-0.0,-0.0,-0.0,-0.0,-0.0,-0.1071,-0.5082,-0.844,-1.0738,-1.0724,-1.0717,-1.0717,-1.0717,-1.0683,-1.0747,-1.076,-1.655,-2.1107,-2.1136,-2.1109,-2.1109,-2.1109,-2.1109,-2.1088,-2.1067,-2.3748,-2.6277,-2.86,-3.0077,-3.0918,-3.0898,-3.1858,-3.2631,-3.2993,-3.3316,-3.3418,-3.3418,-3.3418,-3.3418,-3.3418,-3.3418,-3.3867,-3.4707,-3.4707,-3.5176,-3.6016,-3.6016,-3.6016,-3.6016,-3.6016,-3.6016,-3.6016,-3.6016,-3.6016,-3.6016,-3.6016,-3.6289,-3.6738,0.0,0.0,0.0,0.0,0.0,0.0,0.0,0.0,0.0,0.0,-0.0,-0.0,-0.0,-0.0,0.0,0.0,0.0,0.0,0.0,0.0,-0.0,-0.0,-0.0,-0.0,-0.0,-0.0,-0.0,-0.0,-0.0,-0.0,-0.0,-0.0,-0.0,-0.0,-0.0,-0.0,-0.0,-0.0,-0.0,-0.0,-0.0,-0.0,-0.0,0.0,-0.0,-0.0,-0.0,-0.0,-0.0,-0.0,-0.0,-0.0,-0.0,-0.0,-0.0,-0.0,-0.0,-0.0,-0.0,-0.0,-0.0,-0.0,-0.0,-0.0267,-0.1203,-0.6281,-1.0724,-1.0717,-1.0717,-1.0717,-1.0717,-1.0717,-1.067,-1.0637,-1.6613,-2.107,-2.1149,-2.1109,-2.1109,-2.1109,-2.1109,-2.142,-2.2377,-2.6979,-2.9053,-2.6866,-2.9131,-3.0699,-3.0898,-3.1997,-3.2548,-3.2667,-3.3191,-3.3418,-3.3418,-3.3418,-3.3418,-3.3418,-3.3418,-3.3848,-3.4609,-3.4668,-3.5156,-3.5937,-3.5996,-3.6016,-3.6016,-3.6016,-3.6016,-3.6016,-3.6016,-3.6016,-3.6016,-3.6016,-3.625,-3.6641,0.0,0.0,0.0,0.0,0.0,0.0,0.0,0.0,0.0,0.0,-0.0,-0.0,0.0,0.0,0.0,0.0,0.0,0.0,0.0,0.0,0.0,-0.0,-0.0,-0.0,-0.0,-0.0,-0.0,-0.0,-0.0,-0.0,-0.0,-0.0,-0.0,-0.0,-0.0,-0.0,-0.0,-0.0,-0.0,-0.0,-0.0,-0.0,-0.0,-0.0,0.0,0.0,-0.0,-0.0,-0.0,-0.0,-0.0,-0.0,-0.0,-0.0,-0.0,-0.0,-0.0,-0.0,-0.0,-0.0,-0.0,-0.0,-0.0,-0.1604,-0.7503,-0.98,-1.0744,-1.0724,-1.0717,-1.0717,-1.0717,-1.0717,-1.067,-1.0637,-1.6613,-2.107,-2.1149,-2.1109,-2.1109,-2.1109,-2.1109,-2.3208,-2.8692,-2.703,-2.6793,-2.9846,-2.9313,-2.9468,-3.0782,-3.1719,-3.2623,-3.3203,-3.3359,-3.3418,-3.3418,-3.3418,-3.3418,-3.3418,-3.3418,-3.3691,-3.4199,-3.4531,-3.5,-3.5527,-3.5879,-3.6016,-3.6016,-3.6016,-3.6016,-3.6016,-3.6016,-3.6016,-3.6016,-3.6016,-3.6074,-3.6191,0.0,0.0,0.0,0.0,0.0,0.0,0.0,-0.0,-0.0,-0.0,-0.0,-0.0,-0.0,-0.0,-0.0,0.0,0.0,0.0,0.0,0.0,0.0,-0.0,0.0,0.0,-0.0,-0.0,-0.0,-0.0,0.0,-0.0,-0.0,-0.0,-0.0,-0.0,-0.0,-0.0,-0.0,-0.0,-0.0,-0.0,-0.0,-0.0,-0.0,0.0,0.0,0.0,-0.0,-0.0,-0.0,-0.0,-0.0,-0.0,-0.0,-0.0,-0.0,-0.0,-0.0,-0.0,-0.0,-0.0,-0.0938,-0.4696,-0.5629,-0.6423,-0.994,-1.0744,-1.0731,-1.0724,-1.0717,-1.0717,-1.0717,-1.0683,-1.0754,-1.076,-1.656,-2.1107,-2.1136,-2.1109,-2.1109,-2.1109,-2.1109,-2.2817,-2.7081,-2.6683,-2.7003,-2.9412,-2.9648,-3.002,-3.0898,-3.1699,-3.2559,-3.3398,-3.3418,-3.3418,-3.3418,-3.3418,-3.3418,-3.3418,-3.3418,-3.3652,-3.4082,-3.4512,-3.4961,-3.541,-3.584,-3.6016,-3.6016,-3.6016,-3.6016,-3.6016,-3.6016,-3.6016,-3.6016,-3.6016,-3.6016,-3.6094,0.0,0.0,0.0,0.0,0.0,0.0,-0.0,-0.0,-0.0,-0.0,-0.0,-0.0,-0.0,-0.0,-0.0,0.0,0.0,0.0,0.0,0.0,0.0,0.0,0.0,0.0,-0.0,0.0,0.0,-0.0,-0.0,0.0,0.0,0.0,0.0,0.0,-0.0,-0.0,-0.0,-0.0,-0.0,0.0,0.0,-0.0,-0.0,0.0,0.0,0.0,0.0,-0.0,-0.0,-0.0,-0.0,-0.0,-0.0,-0.0,-0.026,-0.1842,-0.2241,-0.2242,-0.2268,-0.2274,-0.3613,-0.9291,-1.0638,-1.0744,-1.0744,-1.0731,-1.0717,-1.0717,-1.0717,-1.0717,-1.0697,-1.0643,-1.1236,-1.2742,-1.7591,-2.1155,-2.1136,-2.1109,-2.1109,-2.1109,-2.1488,-2.2649,-2.4812,-2.6688,-2.8108,-2.892,-3.0233,-3.1055,-3.1152,-3.1797,-3.2559,-3.3398,-3.3418,-3.3418,-3.3418,-3.3418,-3.3418,-3.3418,-3.3418,-3.3594,-3.3945,-3.4473,-3.4902,-3.5273,-3.5801,-3.6016,-3.6016,-3.6016,-3.6016,-3.6016,-3.6016,-3.6016,-3.6016,-3.6016,-3.6016,-3.6074,0.0,0.0,0.0,0.0,0.0,0.0,-0.0,-0.0,-0.0,-0.0,-0.0,-0.0,-0.0,-0.0,-0.0,0.0,0.0,0.0,0.0,0.0,0.0,0.0,0.0,0.0,0.0,0.0,0.0,-0.0,-0.0,0.0,0.0,0.0,0.0,0.0,0.0,-0.0,-0.0,-0.0,0.0,0.0,0.0,0.0,0.0,0.0,0.0,0.0,0.0,-0.0,-0.0,-0.0,-0.0,-0.0,-0.0,-0.0,-0.1337,-0.7804,-0.971,-0.9692,-0.9704,-0.9692,-0.994,-1.0485,-1.0738,-1.0724,-1.0724,-1.0724,-1.0717,-1.0717,-1.0717,-1.0697,-1.0754,-1.074,-1.2718,-1.9132,-2.0657,-2.1155,-2.1136,-2.1109,-2.1109,-2.1109,-2.2899,-2.4936,-2.7105,-2.7935,-2.8938,-3.0528,-3.1112,-3.1641,-3.2031,-3.2129,-3.2559,-3.3398,-3.3418,-3.3418,-3.3418,-3.3418,-3.3418,-3.3418,-3.3418,-3.3437,-3.3516,-3.4336,-3.4726,-3.4805,-3.5644,-3.6016,-3.6016,-3.6016,-3.6016,-3.6016,-3.6016,-3.6016,-3.6016,-3.6016,-3.6016,-3.6035,0.0,0.0,0.0,0.0,0.0,0.0,-0.0,-0.0,-0.0,-0.0,-0.0,-0.0,-0.0,-0.0,-0.0,-0.0,-0.0,0.0,0.0,0.0,0.0,0.0,0.0,0.0,0.0,0.0,-0.0,-0.0,-0.0,0.0,0.0,0.0,0.0,0.0,0.0,-0.0,-0.0,-0.0,0.0,0.0,0.0,0.0,0.0,0.0,0.0,0.0,0.0,0.0,-0.0673,-0.4983,-0.6468,-0.6464,-0.6455,-0.6443,-0.6973,-0.9831,-1.0638,-1.0751,-1.0751,-1.0744,-1.0731,-1.0731,-1.0724,-1.0717,-1.0717,-1.0717,-1.0704,-1.0656,-1.0649,-1.0754,-1.0671,-1.4132,-1.7927,-2.0657,-2.1129,-2.1049,-2.1122,-2.1109,-2.1614,-2.2899,-2.3803,-2.5397,-2.7815,-2.8224,-2.9157,-3.0762,-3.1269,-3.1699,-3.2148,-3.2402,-3.2812,-3.3398,-3.3418,-3.3418,-3.3418,-3.3418,-3.3418,-3.3418,-3.3418,-3.3418,-3.3437,-3.4043,-3.4453,-3.4726,-3.5371,-3.5781,-3.6016,-3.6016,-3.6016,-3.6016,-3.6016,-3.6016,-3.6016,-3.6016,-3.6016,-3.6016,0.0,0.0,0.0,0.0,0.0,-0.0,-0.0,-0.0,-0.0,-0.0,-0.0,-0.0,-0.0,-0.0,-0.0,-0.0,-0.0,0.0,0.0,0.0,0.0,0.0,0.0,0.0,0.0,0.0,-0.0,-0.0,-0.0,-0.0,0.0,0.0,-0.0,-0.0,0.0,0.0,0.0,0.0,0.0,0.0,0.0,0.0,0.0,0.0,0.0,0.0,0.0,0.0,0.0,0.0,0.0,-1.0678,-1.0658,-1.0638,-1.0744,-1.0751,-1.0738,-1.0717,-1.0717,-1.0717,-1.0717,-1.0717,-1.0717,-1.0711,-1.069,-1.0683,-1.0663,-1.0713,-1.2319,-1.3796,-1.382,-1.7742,-2.1067,-2.1155,-2.1049,-2.1109,-2.1109,-2.1614,-2.2634,-2.4022,-2.5012,-2.6311,-2.8188,-2.8902,-2.9648,-3.0762,-3.1406,-3.1836,-3.2148,-3.2676,-3.3105,-3.3418,-3.3418,-3.3418,-3.3418,-3.3418,-3.3418,-3.3418,-3.3418,-3.3418,-3.3437,-3.3867,-3.4297,-3.4726,-3.5195,-3.5625,-3.6016,-3.6016,-3.6016,-3.6016,-3.6016,-3.6016,-3.6016,-3.6016,-3.6016,-3.6016,0.0,0.0,0.0,0.0,0.0,-0.0,-0.0,-0.0,-0.0,-0.0,-0.0,-0.0,-0.0,-0.0,-0.0,-0.0,-0.0,0.0,0.0,0.0,0.0,0.0,0.0,0.0,-0.0,-0.0,-0.0,-0.0,-0.0,-0.0,-0.0,-0.0,-0.0,-0.0,0.0,0.0,0.0,0.0,0.0,0.0,0.0,0.0,0.0,0.0,0.0,0.0,0.0,0.0,0.0,0.0,0.0,0.0,0.0,-1.0738,-1.0724,-1.0744,-1.0738,-1.0717,-1.0717,-1.0717,-1.0717,-1.0717,-1.0717,-1.0697,-1.0754,-1.0733,-1.0706,-1.076,-1.6193,-2.098,-2.0965,-2.1067,-2.1155,-2.1136,-2.1109,-2.1109,-2.1109,-2.3024,-2.4161,-2.3713,-2.6365,-2.8426,-2.8426,-2.9903,-3.0898,-3.0898,-3.168,-3.2168,-3.2168,-3.2969,-3.3418,-3.3418,-3.3418,-3.3418,-3.3418,-3.3418,-3.3418,-3.3418,-3.3418,-3.3418,-3.3437,-3.3867,-3.4297,-3.4726,-3.5195,-3.5625,-3.6016,-3.6016,-3.6016,-3.6016,-3.6016,-3.6016,-3.6016,-3.6016,-3.6016,-3.6016,0.0,0.0,0.0,0.0,0.0,0.0,-0.0,-0.0,-0.0,-0.0,-0.0,-0.0,-0.0,-0.0,-0.0,-0.0,-0.0,0.0,0.0,0.0,0.0,0.0,0.0,0.0,-0.0,-0.0,-0.0,-0.0,-0.0,-0.0,-0.0,-0.0,-0.0,-0.0,-0.0,-0.0,0.0,-0.0,0.0,0.0,0.0,0.0,-0.7286,0.0,0.0,0.0,0.0,0.0,0.0,0.0,0.0,0.0,0.0,0.0,0.0,-1.0731,-1.0724,-1.0717,-1.0717,-1.0717,-1.0704,-1.0649,-1.0636,-1.0747,-1.0664,-1.4447,-1.777,-1.7765,-1.9567,-2.1107,-2.1075,-2.1049,-2.2553,-2.7044,-2.5939,-2.4673,-2.5445,-2.5488,-2.5896,-2.6729,-2.8801,-3.0138,-3.0138,-3.0645,-3.0898,-3.0898,-3.1406,-3.1855,-3.2148,-3.2695,-3.3125,-3.3418,-3.3418,-3.3418,-3.3418,-3.3418,-3.3418,-3.3418,-3.3418,-3.3418,-3.3437,-3.3555,-3.3867,-3.4297,-3.4726,-3.5176,-3.5605,-3.5898,-3.6016,-3.6016,-3.6016,-3.6016,-3.6016,-3.6016,-3.6016,-3.6016,0.0,0.0,0.0,0.0,0.0,0.0,-0.0,-0.0,-0.0,-0.0,-0.0,-0.0,-0.0,-0.0,-0.0,-0.0,-0.0,0.0,0.0,0.0,0.0,0.0,0.0,0.0,-0.0,-0.0,-0.0,-0.0,-0.0,-0.0,-0.0,-0.0,-0.0,-0.0,-0.0,-0.0,0.0,-0.2827,0.0,0.0,0.0,0.0,-0.8907,0.0,0.0,0.0,0.0,0.0,0.0,0.0,0.0,0.0,0.0,0.0,0.0,0.0,-1.2041,-1.1769,-1.0948,-1.0677,-1.0656,-1.0706,-1.2718,-1.4614,-1.4632,-1.7939,-2.1044,-2.1155,-2.1129,-2.1919,-2.4341,-2.4749,-2.5689,-2.8535,-2.7675,-2.684,-2.7505,-2.7194,-2.7572,-2.9157,-3.0274,-3.0898,-3.0898,-3.0898,-3.0898,-3.0898,-3.1269,-3.1699,-3.2148,-3.2559,-3.2988,-3.3418,-3.3418,-3.3418,-3.3418,-3.3418,-3.3418,-3.3418,-3.3418,-3.3418,-3.3418,-3.3418,-3.3652,-3.4082,-3.4355,-3.4824,0.0,-3.5684,-3.5879,-3.6016,-3.6016,-3.6016,-3.6016,-3.6016,-3.6016,-3.6016,0.0,0.0,0.0,0.0,0.0,0.0,0.0,-0.0,-0.0,-0.0,-0.0,-0.0,-0.0,-0.0,-0.0,-0.0,-0.0,0.0,0.0,0.0,0.0,0.0,0.0,-0.0,-0.0,-0.0,-0.0,-0.0,-0.0,-0.0,-0.0,-0.0,-0.0,-0.0,-0.0539,-0.0807,-0.1211,-0.7555,0.0,0.0,-0.7125,-0.5767,0.0,0.0,0.0,0.0,0.0,0.0,0.0,0.0,0.0,0.0,0.0,0.0,0.0,0.0,0.0,0.0,0.0,-1.1264,-1.1381,-1.1423,-1.6322,-2.1123,-2.1093,-2.1067,0.0,-2.1136,-2.1515,-2.3621,-2.9831,-3.0866,-2.9915,-2.6881,-2.7141,-2.7869,-2.7852,-2.8295,-2.9157,-3.0762,-3.0898,-3.0898,-3.0898,-3.0898,-3.0898,-3.0898,-3.1368,-3.1799,-3.2148,-3.2662,-3.3074,-3.3398,-3.3418,-3.3418,-3.3418,-3.3418,-3.3418,-3.3418,-3.3418,-3.3418,-3.3418,-3.3418,-3.3633,-3.4023,-3.4062,-3.4531,-3.5293,-3.5371,-3.5625,-3.5976,-3.6016,-3.6016,-3.6016,-3.6016,-3.6016,-3.6016,0.0,0.0,0.0,0.0,0.0,0.0,0.0,0.0,0.0,0.0,-0.0,-0.0,-0.0,-0.0,-0.0,0.0,0.0,0.0,0.0,0.0,0.0,0.0,-0.0,-0.0,-0.0,-0.0,-0.0,-0.0,-0.0,-0.0,-0.0,-0.0,-0.0,-0.0269,-0.5669,-0.8252,-0.8102,-0.713,0.0,0.0,-0.9844,-0.9424,0.0,0.0,0.0,0.0,-1.0731,-1.0731,0.0,0.0,0.0,0.0,0.0,0.0,0.0,0.0,-1.6104,-1.6644,-1.6121,0.0,-1.8606,-1.8606,-1.9848,-2.1093,0.0,-2.1162,-2.1149,-2.1109,-2.5156,-2.9101,-3.0599,-3.0926,-3.0588,-2.986,-2.9942,-3.0143,-3.0135,-3.0176,-3.0509,-3.0879,-3.0898,-3.0898,-3.0898,-3.0898,-3.0898,-3.0898,-3.2079,-3.2601,-3.225,-3.3416,-3.3822,-3.3398,-3.3418,-3.3418,-3.3418,-3.3418,-3.3418,-3.3418,-3.3418,-3.3418,-3.3418,-3.3418,-3.3476,-3.3594,-3.3926,-3.4199,-3.4434,-3.5117,-3.5449,-3.5566,-3.5898,-3.6016,-3.6016,-3.6016,-3.6016,-3.6016,0.0,0.0,0.0,0.0,0.0,0.0,0.0,0.0,0.0,0.0,-0.0,-0.0,-0.0,-0.0,-0.0,0.0,0.0,0.0,0.0,0.0,0.0,-0.0,-0.0,-0.0,-0.0,-0.0,-0.0,-0.0,-0.3234,-0.4855,-0.4849,-0.4849,-0.4037,-0.2685,-0.6602,-0.9186,-1.0551,-0.8606,-0.9001,-1.0645,-1.0638,0.0,0.0,0.0,0.0,0.0,-1.0717,-1.124,0.0,-1.1894,-1.2413,-1.3193,0.0,0.0,0.0,0.0,-1.7507,-1.8173,-1.9012,-2.008,-2.1159,-2.1142,-2.1102,-2.1075,-2.1122,-2.1109,-2.1502,-2.2972,-2.6205,-2.9048,-3.056,-3.0914,-3.0926,-3.0856,-3.0917,-3.0858,-3.0918,-3.0898,-3.1112,-3.1883,-3.1883,-3.2207,-3.2871,-3.2871,-3.2871,-3.2871,-3.3642,-3.4161,-3.4303,-3.5029,-3.5456,-3.556,-3.486,-3.4133,-3.3418,-3.3418,-3.3418,-3.3418,-3.3418,-3.3418,-3.3418,-3.3418,-3.3418,-3.3437,-3.3672,-3.3887,-3.4121,-3.4805,-3.5195,-3.543,-3.5859,-3.6016,-3.6016,-3.6016,-3.6016,-3.6016,0.0,0.0,0.0,0.0,0.0,0.0,0.0,0.0,0.0,0.0,0.0,0.0,0.0,0.0,0.0,0.0,0.0,0.0,0.0,0.0,0.0,-0.0,-0.0,-0.0,-0.0,-0.1076,-0.1615,-0.1615,-0.7161,-0.9893,-0.9875,-1.0424,-0.9041,-0.6172,-0.6172,-0.7927,-1.0658,-1.0765,-1.0751,-1.0744,-1.0731,0.0,0.0,0.0,0.0,0.0,0.0,0.0,0.0,-1.3709,-1.4623,-1.5913,-1.6172,0.0,0.0,0.0,0.0,0.0,-2.0716,-2.1075,-2.1142,-2.1136,-2.1109,-2.1109,-2.1109,-2.1502,-2.2706,-2.5405,-2.643,-2.7555,-3.0395,-3.0853,-3.0856,-3.0937,-3.0898,-3.0995,-3.1228,-3.1228,-3.1767,-3.3304,-3.3417,-3.3957,-3.5178,-3.5288,-3.5288,-3.5288,-3.5508,-3.5936,-3.67,-3.6973,-3.7424,-3.8201,-3.6881,-3.5458,-3.4153,-3.3902,-3.3776,-3.3776,-3.3776,-3.365,-3.3418,-3.3418,-3.3418,-3.3418,-3.3418,-3.3633,-3.4004,-3.4434,-3.4883,-3.5332,-3.5762,-3.5957,-3.6016,-3.6016,-3.6016,-3.6016,0.0,0.0,0.0,0.0,0.0,0.0,0.0,0.0,0.0,0.0,0.0,0.0,0.0,0.0,0.0,0.0,0.0,0.0,0.0,0.0,0.0,-0.0,-0.0,-0.0,-0.0,-0.593,-0.9058,-0.9058,-0.7134,-0.618,-0.6309,-0.9303,-1.0398,-0.9844,-0.9952,-1.0219,-1.0758,-1.0738,-1.0724,-1.0724,-1.0724,0.0,0.0,0.0,0.0,0.0,0.0,0.0,0.0,-1.5524,-1.5654,-1.6172,-1.7602,0.0,0.0,0.0,0.0,0.0,-2.0982,-2.1122,-2.1136,-2.1109,-2.1109,-2.1109,-2.1109,-2.3237,-2.5389,-2.5934,-2.8166,-3.0276,-3.0773,-3.0917,-3.0957,-3.0898,-3.0898,-3.1325,-3.2644,-3.2758,-3.3304,-3.4736,-3.4958,-3.5068,-3.5288,-3.5288,-3.5288,-3.5288,-3.6487,-3.7037,-3.67,-3.7881,-3.8457,-3.8201,-3.7985,-3.7746,-3.7506,-3.6051,-3.5437,-3.5437,-3.5437,-3.4736,-3.3418,-3.3418,-3.3418,-3.3418,-3.3418,-3.3457,-3.3555,-3.3984,-3.4414,-3.4844,-3.5312,-3.5703,-3.6016,-3.6016,-3.6016,-3.6016,0.0,0.0,0.0,0.0,0.0,0.0,0.0,0.0,0.0,0.0,0.0,0.0,0.0,0.0,0.0,0.0,0.0,0.0,0.0,0.0,-0.1749,-0.5658,-0.5796,-0.5796,-0.5796,-0.7139,-0.8767,-1.0685,-0.9029,-0.82,-0.8323,-0.9946,-1.0758,-1.0758,-1.0744,-1.0738,-1.0738,-1.0724,-1.0717,-1.0717,0.0,0.0,0.0,0.0,0.0,0.0,0.0,0.0,0.0,0.0,-1.7988,-1.8896,-1.9674,0.0,0.0,0.0,0.0,0.0,-2.1109,-2.1727,-2.2466,-2.2466,-2.2466,-2.2702,-2.3559,-2.4873,-2.6199,-2.7176,-2.8523,-2.9874,-3.0741,-3.0879,-3.0898,-3.0898,-3.0898,-3.1441,-3.2851,-3.3077,-3.3957,-3.6271,-3.6487,-3.6811,-3.7607,-3.7713,-3.7713,-3.7713,-3.8372,-3.8834,-3.922,-3.9819,-4.0439,-4.0798,-3.9989,-3.9873,-4.0822,-3.9147,-3.7963,-3.7144,-3.7144,-3.6295,-3.4736,-3.4736,-3.4258,-3.3418,-3.3418,-3.3418,-3.3457,-3.3887,-3.418,-3.4434,-3.5117,-3.5508,-3.5703,-3.5937,-3.6016,-3.6016,0.0,0.0,0.0,0.0,0.0,0.0,0.0,0.0,0.0,0.0,0.0,0.0,0.0,0.0,0.0,0.0,0.0,0.0,0.0,-0.1615,-0.4983,-1.043,-1.0692,-1.0692,-1.0699,-0.8071,-0.7927,-1.0658,-1.0652,-1.0638,-1.0744,-1.0731,-1.0717,-1.0717,-1.0717,-1.0982,-1.1372,-1.1372,-1.1497,-1.2025,0.0,0.0,0.0,0.0,0.0,0.0,0.0,0.0,0.0,0.0,0.0,0.0,0.0,0.0,0.0,-2.1727,-2.1964,-2.2201,-2.2201,-2.3186,-2.4301,-2.4671,-2.4425,-2.4532,-2.5741,-2.6349,-2.6953,-2.817,-2.8664,-2.9412,-3.0645,-3.0898,-3.0898,-3.0898,-3.1228,-3.1883,-3.3417,-3.3957,-3.5046,-3.769,-3.8031,-3.8477,-3.9569,-3.9697,-3.9697,-3.9697,-3.9697,-4.0174,-4.1279,-4.1329,-4.1831,-4.2936,-4.1785,-4.1785,-4.2986,-4.1785,-4.0361,-3.8817,-3.8817,-3.7723,-3.5806,-3.5806,-3.4964,-3.3418,-3.3418,-3.3418,-3.3437,-3.3789,-3.3984,-3.4141,-3.4922,-3.5351,-3.5586,-3.5898,-3.6016,-3.6016,0.0,0.0,0.0,0.0,0.0,0.0,0.0,0.0,0.0,0.0,0.0,0.0,0.0,0.0,0.0,0.0,0.0,0.0,0.0,-0.6203,-1.0155,-1.0705,-1.0652,-1.0638,-1.0672,-1.0498,-1.0485,-1.0758,-1.0738,-1.0724,-1.0724,-1.0717,-1.0717,-1.0717,-1.0717,-1.1637,-1.3062,-1.3062,-1.4101,-1.5524,-1.5654,0.0,0.0,0.0,0.0,0.0,0.0,0.0,0.0,0.0,0.0,0.0,0.0,0.0,-2.345,-2.345,-2.4532,-2.5619,-2.5619,-2.5741,-2.6227,-2.7692,-2.6953,-2.5863,-2.5984,-2.7194,-2.8289,-2.8426,-2.9648,-3.0762,-3.0898,-3.0898,-3.0898,-3.0898,-3.2092,-3.3417,-3.4958,-3.6271,-3.7796,-3.9362,-3.9569,-3.9569,-3.9697,-3.9697,-3.9697,-3.9697,-3.9697,-4.0174,-4.1279,-4.1329,-4.1831,-4.2936,-4.2849,-4.2849,-4.2986,-4.2849,-4.2012,-4.0476,-4.0476,-3.8794,-3.5806,-3.5806,-3.4964,-3.3418,-3.3418,-3.3418,-3.3418,-3.3457,-3.3711,-3.4121,-3.457,-3.5254,-3.5976,-3.6016,-3.6016,-3.6016,0.0,0.0,0.0,0.0,0.0,0.0,0.0,0.0,0.0,0.0,0.0,0.0,0.0,0.0,0.0,0.0,0.0,0.0,0.0,-0.9198,-1.0692,-1.0652,-1.0765,-1.0751,-1.0751,-1.0738,-1.0731,-1.0731,-1.0724,-1.0717,-1.0717,-1.0717,-1.0717,-1.0717,-1.1894,-1.2676,-1.3325,-1.4493,-1.5265,-1.6043,-1.7076,-1.7474,0.0,0.0,0.0,0.0,0.0,0.0,0.0,0.0,-2.1109,-2.1235,-2.2341,-2.3076,-2.3822,-2.4778,-2.5497,-2.5984,-2.5984,-2.6712,-2.7692,-2.8289,-2.8783,-2.9039,-2.9039,-2.953,-2.9903,-2.9903,-3.0509,-3.0898,-3.0898,-3.0898,-3.0898,-3.0898,-3.2092,-3.3642,-3.5068,-3.6595,-3.8031,-3.9465,-3.9697,-3.9697,-3.9697,-3.9697,-3.9697,-3.9697,-3.9697,-4.0174,-4.1279,-4.1329,-4.1831,-4.2936,-4.2986,-4.2986,-4.2986,-4.2986,-4.2737,-4.2125,-4.2125,-4.0476,-3.7265,-3.7265,-3.5827,-3.3418,-3.3418,-3.3418,-3.3418,-3.3418,-3.3516,-3.373,-3.4434,-3.5078,-3.5664,-3.5918,-3.6016,-3.6016,0.0,0.0,0.0,0.0,0.0,0.0,0.0,0.0,0.0,0.0,0.0,0.0,0.0,0.0,0.0,0.0,0.0,0.0,-1.043,-1.0692,-1.0658,-1.0758,-1.0744,-1.0738,-1.0717,-1.0717,-1.0717,-1.0717,-1.0717,-1.0717,-1.0717,-1.124,-1.1505,-1.1637,-1.3325,-1.4493,-1.5005,-1.6172,-1.7076,-1.7602,-1.8896,-1.9291,0.0,0.0,0.0,0.0,0.0,0.0,0.0,0.0,-2.1475,-2.209,-2.3201,-2.4301,-2.5269,-2.647,-2.7073,-2.7572,-2.7572,-2.8307,-2.9157,-2.9157,-3.002,-3.0898,-3.0898,-3.0898,-3.0898,-3.0898,-3.0996,-3.1055,-3.0918,-3.0996,-3.1055,-3.0918,-3.253,-3.4181,-3.5178,-3.6918,-3.8582,-3.9569,-3.9697,-3.9697,-3.9697,-3.9697,-3.9697,-3.9697,-3.9697,-4.0174,-4.1279,-4.1329,-4.1831,-4.2936,-4.2986,-4.2986,-4.2986,-4.2986,-4.2986,-4.2986,-4.2986,-4.1558,-3.8935,-3.8461,-3.666,-3.4133,-3.365,-3.3418,-3.3418,-3.3418,-3.3496,-3.3691,-3.4414,-3.498,-3.5449,-3.5859,-3.6016,-3.6016,0.0,0.0,0.0,0.0,0.0,0.0,0.0,0.0,-0.0,-0.0,-0.0,0.0,0.0,0.0,0.0,0.0,0.0,0.0,-1.0705,-1.0652,-1.0751,-1.0751,-1.0731,-1.0717,-1.0717,-1.0717,-1.0717,-1.0717,-1.0717,-1.0717,-1.0717,-1.2545,-1.3325,-1.3456,-1.5135,-1.6818,-1.8512,-1.8512,-1.9546,-2.1109,-2.1109,-2.1109,-2.1109,0.0,0.0,0.0,0.0,0.0,0.0,0.0,-2.2215,-2.3574,-2.3698,-2.5879,-2.8426,-2.8426,-2.9648,-3.0898,-3.0898,-3.0898,-3.0898,-3.0898,-3.0898,-3.0898,-3.0898,-3.0898,-3.0898,-3.0898,-3.123,-3.1387,-3.0957,-3.123,-3.1367,-3.0957,-3.3438,-3.5288,-3.5288,-3.782,-3.9697,-3.9697,-3.9697,-3.9697,-3.9697,-3.9697,-3.9697,-3.9697,-3.9697,-4.0174,-4.1279,-4.1354,-4.1856,-4.2936,-4.2986,-4.2986,-4.2986,-4.2986,-4.2986,-4.2986,-4.2986,-4.215,-4.0592,-3.8935,-3.7385,-3.5683,-3.4133,-3.3418,-3.3418,-3.3418,-3.3672,-3.4101,-3.4531,-3.498,-3.543,-3.5859,-3.6016,-3.6016,0.0,0.0,0.0,0.0,0.0,0.0,0.0,0.0,-0.0,-0.0,-0.0,0.0,0.0,0.0,0.0,0.0,0.0,0.0,-1.0645,-1.0765,-1.0744,-1.0731,-1.0724,-1.0717,-1.0717,-1.0717,-1.0717,-1.0717,-1.0717,-1.1372,-1.2545,-1.3062,-1.397,-1.5135,-1.6947,-1.7988,-1.864,-1.9801,-2.0589,-2.1109,-2.1109,-2.1109,-2.1109,0.0,0.0,0.0,0.0,0.0,0.0,0.0,0.0,0.0,-2.6244,-2.7572,-2.8664,-2.9785,-3.0509,-3.0957,-3.125,-3.1113,-3.0957,-3.125,-3.1328,-3.1328,-3.1328,-3.1328,-3.1328,-3.1328,-3.1191,-3.1035,-3.0918,-3.0996,-3.1035,-3.0918,-3.3438,-3.5288,-3.5288,-3.782,-3.9697,-3.9697,-3.9697,-3.9697,-3.9697,-3.9697,-3.9697,-3.9697,-4.0049,-4.0576,-4.1304,-4.1706,-4.2233,-4.2961,-4.2986,-4.2986,-4.2986,-4.2986,-4.2986,-4.2986,-4.2986,-4.215,-4.0592,-3.8935,-3.7385,-3.5683,-3.4133,-3.3418,-3.3418,-3.3418,-3.3496,-3.3652,-3.4082,-3.4531,-3.4961,-3.541,-3.5762,-3.6016,0.0,0.0,0.0,0.0,0.0,0.0,0.0,0.0,-0.0,-0.0,-0.0,-0.1076,0.0,0.0,0.0,0.0,0.0,0.0,-1.0758,-1.0744,-1.0731,-1.0717,-1.0717,-1.0717,-1.0717,-1.1372,-1.1762,-1.1762,-1.1762,-1.2281,-1.3325,-1.4754,-1.5913,-1.6947,-1.8768,-1.9546,-1.9546,-2.0589,-2.1109,-2.1109,-2.1109,-2.1109,-2.1109,0.0,0.0,0.0,0.0,0.0,0.0,0.0,0.0,0.0,-2.7811,-2.8902,-2.953,-3.0645,-3.0898,-3.0937,-3.1191,-3.1211,-3.1191,-3.1445,-3.1641,-3.1816,-3.1992,-3.1894,-3.1777,-3.1777,-3.1699,-3.1601,-3.1426,-3.1543,-3.1601,-3.1426,-3.3413,-3.4906,-3.4709,-3.7223,-3.9037,-3.8816,-3.9362,-3.9697,-3.9697,-3.9697,-3.9798,-3.9998,-4.0325,-4.0852,-4.163,-4.1982,-4.2409,-4.2961,-4.2986,-4.2986,-4.2986,-4.2986,-4.2737,-4.2037,-4.2037,-4.1191,-3.9639,-3.8698,-3.7385,-3.5683,-3.4133,-3.3418,-3.3418,-3.3418,-3.3418,-3.3457,-3.3906,-3.4336,-3.4766,-3.5215,-3.5664,-3.6016,0.0,0.0,-0.0,-0.0,0.0,0.0,0.0,0.0,-0.0,-0.0,-0.0,-0.2692,0.0,0.0,0.0,0.0,0.0,-1.0751,-1.0751,-1.0731,-1.0717,-1.0717,-1.0717,-1.0717,-1.0717,-1.2413,-1.3325,-1.3325,-1.3456,-1.3578,-1.384,-1.7076,-1.864,-1.8768,-2.0322,-2.1109,-2.1109,-2.1109,-2.1109,-2.1109,-2.1109,-2.1235,-2.1362,-2.1362,0.0,0.0,0.0,0.0,0.0,0.0,0.0,0.0,-2.8545,-2.9686,-3.0937,-3.0937,-3.0976,-3.1016,-3.1055,-3.1309,-3.1582,-3.1621,-3.1934,-3.2344,-3.2754,-3.2559,-3.2266,-3.2226,-3.25,-3.2617,-3.2246,-3.248,-3.2617,-3.2226,-3.3414,-3.4295,-3.397,-3.6386,-3.8119,-3.7881,-3.9069,-3.9848,-3.9848,-3.9848,-4.0049,-4.0551,-4.0626,-4.1103,-4.2108,-4.2208,-4.2459,-4.2961,-4.2986,-4.2961,-4.2737,-4.2737,-4.2012,-4.0361,-4.0361,-3.9522,-3.7985,-3.7985,-3.7122,-3.5437,-3.4027,-3.3418,-3.3418,-3.3418,-3.3418,-3.3457,-3.3867,-3.4277,-3.4707,-3.5156,-3.5605,-3.5976,0.0,0.0,-0.0,-0.0,0.0,0.0,0.0,0.0,0.0,-0.0,0.0,0.0,0.0,0.0,0.0,0.0,-1.0212,-1.0744,-1.0731,-1.0724,-1.0717,-1.0717,-1.0717,-1.0717,-1.0717,-1.2413,-1.3325,-1.3325,-1.4623,-1.6043,-1.7345,-1.8116,-1.9279,-2.0589,-2.0982,-2.1109,-2.1109,-2.1109,-2.1109,-2.1109,-2.1109,-2.1853,-2.3076,-2.3076,-2.3807,0.0,0.0,0.0,0.0,0.0,0.0,0.0,-2.9903,-3.0878,-3.1387,-3.1387,-3.1621,-3.1973,-3.2305,-3.2207,-3.2109,-3.2441,-3.2598,-3.2773,-3.3184,-3.3223,-3.3066,-3.2734,-3.248,-3.2285,-3.2187,-3.2246,-3.2266,-3.2187,-3.3414,-3.4752,-3.5901,-3.7584,-3.9139,-4.031,-4.0764,-4.0978,-4.0978,-4.0978,-4.1028,-4.1153,-4.1555,-4.1907,-4.2158,-4.2559,-4.2861,-4.2986,-4.2986,-4.2375,-4.1076,-4.1076,-4.0361,-3.8698,-3.8698,-3.7843,-3.6295,-3.6295,-3.5458,-3.3902,-3.3544,-3.3418,-3.3418,-3.3418,-3.3418,-3.3437,-3.3516,-3.3828,-3.4258,-3.4687,-3.5137,-3.5566,0.0,0.0,0.0,0.0,0.0,0.0,0.0,0.0,0.0,0.0,0.0,0.0,0.0,0.0,0.0,0.0,-1.0738,-1.0731,-1.0717,-1.0717,-1.0717,-1.0717,-1.0717,-1.1108,-1.1894,-1.3709,-1.5005,-1.5784,-1.7602,-1.8384,-1.8512,-1.9291,-2.0195,-2.1109,-2.1109,-2.1109,-2.1109,-2.1109,-2.1109,-2.1109,-2.1978,-2.2841,-2.3698,-2.4409,-2.5253,-2.5863,-2.5008,0.0,0.0,0.0,0.0,0.0,0.0,0.0,-3.1836,-3.1836,-3.1992,-3.2207,-3.2441,-3.248,-3.2559,-3.2988,-3.3105,-3.3144,-3.3379,-3.3418,-3.3359,-3.3144,-3.293,-3.2773,-3.2773,-3.2773,-3.2773,-3.2773,-3.3474,-3.4085,-3.47,-3.6733,-3.8385,-3.907,-4.0414,-4.1329,-4.1329,-4.1329,-4.1455,-4.1706,-4.1982,-4.2258,-4.2534,-4.2811,-4.2986,-4.2986,-4.2263,-4.1419,-4.0592,-3.9873,-3.8676,-3.7023,-3.7023,-3.6173,-3.4612,-3.4612,-3.4133,-3.3418,-3.3418,-3.3418,-3.3418,-3.3418,-3.3418,-3.3418,-3.3418,-3.3691,-3.4121,-3.4551,-3.5,-3.5449,0.0,0.0,0.0,0.0,0.0,0.0,0.0,0.0,0.0,0.0,0.0,0.0,0.0,0.0,-1.0744,0.0,0.0,0.0,-1.0717,-1.0717,-1.0717,-1.0717,-1.0982,-1.1762,-1.3325,-1.5265,-1.7076,-1.8512,-2.0195,-2.0322,-1.9024,-2.0449,-2.1109,-2.1109,-2.1109,-2.1109,-2.1109,-2.1109,-2.1109,-2.1235,-2.2591,-2.3574,-2.4178,-2.5497,-2.6349,-2.6832,-2.647,-2.7452,-2.8801,-2.8618,0.0,0.0,0.0,0.0,-3.2285,-3.2285,-3.2324,-3.2383,-3.2383,-3.2637,-3.2988,-3.334,-3.3418,-3.3418,-3.3418,-3.3418,-3.3418,-3.3418,-3.3418,-3.3418,-3.3418,-3.3418,-3.3418,-3.3418,-3.3418,-3.3426,-3.3302,-3.5501,-3.7111,-3.692,-3.9196,-4.0819,-4.1171,-4.1171,-4.1454,-4.2258,-4.2308,-4.2374,-4.26,-4.2625,-4.2488,-4.215,-4.0822,-3.9989,-3.9756,-3.8439,-3.7023,-3.5437,-3.5437,-3.4736,-3.3418,-3.3418,-3.3418,-3.3418,-3.3418,-3.3418,-3.3418,-3.3418,-3.3418,-3.3418,-3.3418,-3.3633,-3.4023,-3.4512,-3.4941,-3.5351,0.0,0.0,0.0,0.0,0.0,0.0,0.0,0.0,0.0,0.0,-0.7407,-0.7111,0.0,-1.0485,-1.0744,-1.0724,-1.0717,-1.0717,-1.0717,0.0,0.0,-1.0717,-1.215,-1.3062,-1.3325,-1.6431,-1.8244,-1.8512,-2.0195,-2.0982,-2.0716,-2.0982,-2.1109,-2.1109,-2.1109,-2.1109,-2.1109,-2.1109,-2.1109,-2.1109,-2.1348,-2.3186,-2.5741,-2.5984,-2.7811,-3.002,-2.8545,-2.9157,-3.0449,-2.9324,-3.0092,0.0,0.0,0.0,-3.2715,-3.2715,-3.2969,-3.3262,-3.3262,-3.3301,-3.3359,-3.3418,-3.3418,-3.3418,-3.3418,-3.3418,-3.3418,-3.3418,-3.3418,-3.3418,-3.3418,-3.3418,-3.3418,-3.3418,-3.3418,-3.3882,-3.5252,-3.5701,-3.6531,-3.7784,-3.8376,-3.9197,-4.0516,-4.0745,-4.1363,-4.2749,-4.2861,-4.2301,-4.0961,-4.0937,-4.0245,-3.8935,-3.858,-3.7843,-3.6396,-3.6295,-3.5335,-3.3776,-3.3776,-3.367,-3.3418,-3.3418,-3.3418,-3.3418,-3.3418,-3.3418,-3.3418,-3.3418,-3.3418,-3.3418,-3.3418,-3.3457,-3.3594,-3.4394,-3.4746,-3.4902,0.0,0.0,0.0,0.0,0.0,0.0,0.0,0.0,0.0,0.0,0.0,-0.8995,-1.0485,-1.0744,-1.0731,-1.0724,-1.0717,-1.0717,-1.0717,-1.163,-1.2157,-1.2157,-1.384,-1.5265,-1.6172,-1.7731,-1.9024,-1.9941,-2.0716,-2.1109,-2.1109,-2.1109,-2.1109,-2.1109,-2.1109,-2.1109,-2.1109,-2.1109,-2.1109,-2.1235,-2.209,-2.3931,-2.5984,-2.5984,-2.8051,-3.0645,-2.9039,-2.9661,-3.1151,-3.0591,-3.1213,-3.2266,-3.2461,0.0,0.0,0.0,-3.3281,-3.3418,-3.3418,-3.3418,-3.3418,-3.3418,-3.3418,-3.3418,-3.3418,-3.3418,-3.3418,-3.3418,-3.3418,-3.3418,-3.3418,-3.3418,-3.3418,-3.3418,-3.3418,-3.367,-3.4383,-3.5211,-3.6051,-3.676,-3.7626,-3.8461,-3.917,-3.9288,-3.9522,-4.0245,-4.0361,-3.9989,-3.9288,-3.9288,-3.8935,-3.8223,-3.7363,-3.6539,-3.5806,-3.484,-3.4133,-3.3418,-3.3418,-3.3418,-3.3418,-3.3418,-3.3418,-3.3418,-3.3418,-3.3418,-3.3418,-3.3418,-3.3418,-3.3418,-3.3418,-3.3418,-3.3496,-3.4121,-3.4492,-3.4785,0.0,0.0,0.0,0.0,0.0,0.0,0.0,0.0,0.0,0.0,0.0,-1.0744,-1.0744,0.0,0.0,0.0,-1.0717,-1.085,-1.1372,-1.2545,-1.3456,-1.397,-1.5654,-1.7216,-1.8512,-1.8896,-1.9801,-2.1109,-2.1109,-2.1109,-2.1109,-2.1109,-2.1109,-2.1109,-2.1109,-2.1109,-2.1109,-2.1109,-2.1109,-2.1235,-2.2466,-2.3931,-2.5375,-2.5863,-2.7811,-3.0157,-2.8911,-2.9748,-3.1424,-3.1257,-3.188,-3.2812,-3.293,-3.3164,0.0,0.0,0.0,-3.3418,-3.3418,-3.3418,-3.3418,-3.3418,-3.3418,-3.3418,-3.3418,-3.3418,-3.3418,-3.3418,-3.3418,-3.3418,-3.3418,-3.3418,-3.3418,-3.3418,-3.3418,-3.3418,-3.3418,-3.4363,-3.5211,-3.5211,-3.6295,-3.7144,-3.7484,-3.7626,-3.7746,-3.8223,-3.8223,-3.7985,-3.7626,-3.7626,-3.7385,-3.7023,-3.5806,-3.5211,-3.5211,-3.4027,-3.3418,-3.3418,-3.3418,-3.3418,-3.3418,-3.3418,-3.3418,-3.3418,-3.3418,-3.3418,-3.3418,-3.3418,-3.3418,-3.3418,-3.3418,-3.3418,-3.3476,-3.3906,-3.4336,-3.4766,0.0,0.0,0.0,0.0,0.0,0.0,0.0,0.0,0.0,0.0,0.0,-1.0724,-1.0724,-1.0717,-1.0717,-1.0717,-1.0717,-1.1372,-1.3062,-1.3193,-1.4101,-1.5654,-1.7474,0.0,-1.8512,-2.0068,-2.0982,-2.1109,-2.1109,-2.1109,-2.1109,-2.1109,-2.1109,-2.1109,-2.1109,-2.1109,-2.1109,-2.1109,-2.1109,-2.1109,-2.1235,-2.2215,-2.3931,-2.5375,-2.7073,-2.86,-2.8841,-3.0009,-3.1382,-3.053,-3.1452,-3.2871,-3.3262,-3.3398,-3.3418,0.0,0.0,0.0,-3.3418,-3.3418,-3.3418,-3.3418,-3.3418,-3.3418,-3.3418,-3.3418,-3.3418,-3.3418,-3.3418,-3.3418,-3.3418,-3.3418,-3.3418,-3.3418,-3.3418,-3.3418,-3.3418,-3.3418,-3.3544,-3.3544,-3.3544,-3.4258,-3.5806,-3.5928,-3.6539,-3.8104,-3.8223,-3.7484,-3.6051,-3.5928,-3.5211,-3.365,-3.3544,-3.3544,-3.3544,-3.3418,-3.3418,-3.3418,-3.3418,-3.3418,-3.3418,-3.3418,-3.3418,-3.3418,-3.3418,-3.3418,-3.3418,-3.3418,-3.3418,-3.3418,-3.3418,-3.3418,-3.3476,-3.3906,-3.4336,-3.4766,0.0,0.0,0.0,0.0,0.0,0.0,0.0,0.0,0.0,0.0,0.0,0.0,0.0,-1.0717,-1.0717,-1.0717,-1.1762,-1.2676,-1.3325,-1.5394,-1.6947,-1.7602,-1.9291,-2.0195,-2.0195,-2.0716,-2.1109,-2.1109,-2.1109,-2.1109,-2.1109,-2.1109,-2.1109,-2.1109,-2.1109,-2.1109,-2.1109,-2.1109,-2.1109,-2.1109,-2.1109,-2.209,-2.3574,-2.3076,-2.4517,-2.6849,-2.6986,-2.8463,-3.0437,-3.1266,-3.2238,-3.3223,-3.3379,-3.3418,-3.3418,-3.3418,-3.3418,-3.3418,-3.3418,-3.3418,-3.3418,-3.3418,-3.3418,-3.3418,-3.3418,-3.3418,-3.3418,-3.3418,-3.3418,-3.3418,-3.3418,-3.3418,-3.3418,-3.3418,-3.3418,-3.3418,-3.3418,-3.3418,-3.3418,-3.3418,-3.3418,-3.367,-3.4258,-3.4258,-3.4507,-3.5108,-3.5108,-3.486,-3.4258,-3.4258,-3.4027,-3.3418,-3.3418,-3.3418,-3.3418,-3.3418,-3.3418,-3.3418,-3.3418,-3.3418,-3.3418,-3.3418,-3.3418,-3.3418,-3.3418,-3.3418,-3.3418,-3.3418,-3.3418,-3.3418,-3.3418,-3.3418,-3.3437,-3.3594,-3.4101,-3.4726,0.0,0.0,0.0,0.0,0.0,-1.0645,-1.0645,-1.0758,-1.0744,-1.0744,0.0,0.0,0.0,0.0,-1.0982,-1.1505,-1.2676,-1.384,-1.5005,-1.7216,-1.8768,-1.9291,-2.0462,-2.1109,-2.1109,-2.1203,-2.1203,-2.1109,-2.1203,-2.1203,-2.1109,-2.1109,-2.1109,-2.1109,-2.1109,-2.1109,-2.1109,-2.1109,-2.1109,-2.1109,-2.1727,-2.2591,-2.3574,-2.3559,-2.4517,-2.6122,-2.6726,-2.8079,-2.9701,-3.1124,-3.2219,-3.3242,-3.3379,-3.3418,-3.3418,-3.3418,-3.3418,-3.3418,-3.3418,-3.3418,-3.3418,-3.3418,-3.3418,-3.3418,-3.3418,-3.3418,-3.3418,-3.3418,-3.3418,-3.3418,-3.3418,-3.3418,-3.3418,-3.3418,-3.3418,-3.3418,-3.3418,-3.3418,-3.3418,-3.3418,-3.3418,-3.3418,-3.3418,-3.3418,-3.3418,-3.3418,-3.3418,-3.3418,-3.3418,-3.3418,-3.3418,-3.3418,-3.3418,-3.3418,-3.3418,-3.3418,-3.3418,-3.3418,-3.3418,-3.3418,-3.3418,-3.3418,-3.3418,-3.3418,-3.3418,-3.3418,-3.3418,-3.3418,-3.3418,-3.3418,-3.3418,-3.3418,-3.3418,-3.3418,-3.3965,-3.4707,0.0,0.0,-1.0717,-1.0717,-1.0717,-1.0717,-1.0717,-1.0717,-1.0717,-1.0717,0.0,0.0,0.0,0.0,0.0,-1.3193,-1.3456,-1.4874,-1.8244,-1.8512,-1.9291,-2.0982,-2.1109,-2.1109,-2.1109,-2.139,-2.1403,-2.1109,-2.1403,-2.139,-2.1109,-2.1109,-2.1109,-2.1109,-2.1109,-2.1109,-2.1109,-2.1109,-2.1109,-2.1235,-2.2966,-2.3574,-2.3931,-2.7091,-2.7314,-2.6277,-2.8235,-2.9022,-2.927,-3.0049,-3.1364,-3.2891,-3.3301,-3.3418,-3.3418,-3.3418,-3.3418,-3.3418,0.0,0.0,0.0,-3.3418,-3.3418,-3.3418,-3.3418,-3.3418,-3.3418,-3.3418,-3.3418,-3.3418,-3.3418,-3.3418,-3.3418,-3.3418,-3.3418,-3.3418,-3.3418,-3.3418,-3.3418,-3.3418,-3.3418,-3.3418,-3.3418,-3.3418,-3.3418,-3.3418,-3.3418,-3.3418,-3.3418,-3.3418,-3.3418,-3.3418,-3.3418,-3.3418,-3.3418,-3.3418,-3.3418,-3.3418,-3.3418,-3.3418,-3.3418,-3.3418,-3.3418,-3.3418,-3.3418,-3.3418,-3.3418,-3.3418,-3.3418,-3.3418,-3.3418,-3.3418,-3.3418,-3.3418,-3.3965,-3.4707,0.0,-1.0717,-1.0717,-1.0717,-1.0717,-1.0717,-1.0717,-1.0717,-1.0717,0.0,0.0,0.0,-1.0717,-1.1894,-1.3325,-1.5005,-1.6302,-1.7474,-1.8384,-1.9674,-2.0589,-2.1109,-2.1109,-2.1109,-2.1109,-2.1189,-2.1189,-2.1109,-2.1189,-2.1189,-2.1109,-2.1109,-2.1109,-2.1109,-2.1109,-2.1727,-2.2841,-2.1601,-2.1109,-2.1235,-2.2966,-2.3574,-2.3822,-2.5863,-2.6349,-2.6227,-2.7935,-2.8949,-2.9719,-3.1228,-3.2363,-3.3262,-3.3379,-3.3418,-3.3418,-3.3418,-3.3418,-3.3418,-3.3418,0.0,0.0,0.0,0.0,0.0,-3.3418,-3.3418,-3.3418,-3.3418,-3.3418,-3.3418,-3.3418,-3.3418,-3.3418,-3.3418,-3.3418,-3.3418,-3.3418,-3.3418,-3.3418,-3.3418,-3.3418,-3.3418,-3.3418,-3.3418,-3.3418,-3.3418,-3.3418,-3.3418,-3.3418,-3.3418,-3.3418,-3.3418,-3.3418,-3.3418,-3.3418,-3.3418,-3.3418,-3.3418,-3.3418,-3.3418,-3.3418,-3.3418,-3.3418,-3.3418,-3.3418,-3.3418,-3.3418,-3.3418,-3.3418,-3.3418,-3.3418,-3.3418,-3.3418,-3.3418,-3.3965,-3.4707,-1.0717,-1.0717,-1.0717,-1.0717,-1.0717,-1.0717,-1.0717,-1.0717,-1.0717,0.0,0.0,0.0,-1.1762,-1.2668,-1.4232,-1.6818,-1.7859,-1.8768,-1.9546,-2.0589,-2.1109,-2.1109,-2.1109,-2.1109,-2.1109,-2.1229,-2.1229,-2.1109,-2.1229,-2.1229,-2.1109,-2.1109,-2.1109,-2.1109,-2.1853,-2.2341,-2.2591,-2.2937,-2.3186,-2.3311,-2.4901,-2.5635,-2.5757,-2.7452,-2.7572,-2.7194,-2.892,-2.9444,-2.9751,-3.1584,-3.2734,-3.3418,-3.3418,-3.3418,-3.3418,-3.3418,-3.3418,-3.3418,-3.3418,-3.3418,-3.3418,-3.3418,0.0,0.0,-3.3418,-3.3418,-3.3418,-3.3418,-3.3418,-3.3418,-3.3418,-3.3418,-3.3418,-3.3418,-3.3418,-3.3418,-3.3418,-3.3418,-3.3418,-3.3418,-3.3418,-3.3418,-3.3418,-3.3418,-3.3418,-3.3418,-3.3418,-3.3418,-3.3418,-3.3418,-3.3418,-3.3418,-3.3418,-3.3418,-3.3418,-3.3418,-3.3418,-3.3418,-3.3418,-3.3418,-3.3418,-3.3418,-3.3418,-3.3418,-3.3418,-3.3418,-3.3418,-3.3418,-3.3418,-3.3418,-3.3418,-3.3418,-3.3418,-3.3418,-3.3965,-3.4707,0.0,-1.0717,-1.0717,-1.0717,-1.0717,-1.0717,-1.0717,-1.0717,-1.0717,0.0,-1.085,-1.1762,-1.3709,-1.384,-1.5135,-1.8512,-1.8768,-1.9419,-2.0982,-2.1109,-2.1109,-2.1109,-2.1109,-2.1109,-2.1109,-2.1363,-2.1376,-2.1109,-2.1376,-2.1363,-2.1109,-2.1235,-2.1235,-2.1235,-2.3076,-2.3076,-2.1839,-2.5008,-2.6349,-2.6591,-2.7931,-2.8426,-2.8545,-3.0274,-3.002,-2.8902,-3.0392,-3.0325,-2.9775,-3.1642,-3.2812,-3.3418,-3.3418,-3.3418,-3.3418,-3.3418,-3.3418,-3.3418,-3.3418,-3.3418,-3.3418,-3.3418,-3.3418,0.0,-3.3418,-3.3418,-3.3418,-3.3418,-3.3418,-3.3418,-3.3418,-3.3418,-3.3418,-3.3418,-3.3418,-3.3418,-3.3418,-3.3418,-3.3418,-3.3418,-3.3418,-3.3418,-3.3418,-3.3418,-3.3418,-3.3418,-3.3418,-3.3418,-3.3418,-3.3418,-3.3418,-3.3418,-3.3418,-3.3418,-3.3418,-3.3418,-3.3418,-3.3418,-3.3418,-3.3418,-3.3418,-3.3418,-3.3418,-3.3418,-3.3418,-3.3418,-3.3418,-3.3418,-3.3418,-3.3418,-3.3418,-3.3418,-3.3418,-3.3418,-3.3965,-3.4707,-1.0717,-1.0717,-1.0717,-1.0717,-1.0717,-1.0717,-1.0717,-1.0717,-1.0717,-1.0717,-1.1894,-1.397,-1.7087,-1.7474,-1.8372,-2.0462,-2.0589,-2.0716,-2.1109,-2.1109,-2.1109,-2.1109,-2.1109,-2.1109,-2.1109,-2.1162,-2.1162,-2.1109,-2.1162,-2.1162,-2.1109,-2.2466,-2.2341,-2.1235,-2.4163,-2.5375,-2.513,-2.7073,-2.8664,-2.9903,-2.8783,-2.8426,-2.8545,-3.0274,-3.0645,-3.0509,-3.0762,-3.1268,-3.1764,-3.2786,-3.3281,-3.3418,-3.3418,-3.3418,-3.3418,-3.3418,-3.3418,-3.3418,-3.3418,-3.3418,-3.3418,-3.3418,-3.3418,0.0,-3.3418,-3.3418,-3.3418,-3.3418,-3.3418,-3.3418,-3.3418,-3.3418,-3.3418,-3.3418,-3.3418,-3.3418,-3.3418,-3.3418,-3.3418,-3.3418,-3.3418,-3.3418,-3.3418,-3.3418,-3.3418,-3.3418,-3.3418,-3.3418,-3.3418,-3.3418,-3.3418,-3.3418,-3.3418,-3.3418,-3.3418,-3.3418,-3.3418,-3.3418,-3.3418,-3.3418,-3.3418,-3.3418,-3.3418,-3.3418,-3.3418,-3.3418,-3.3418,-3.3418,-3.3418,-3.3418,-3.3418,-3.3418,-3.3418,-3.3418,-3.3965,-3.4707,-1.0717,-1.0717,-1.0717,-1.0717,-1.0717,-1.0717,-1.0717,-1.1505,-1.2025,-1.2025,-1.3447,-1.5524,-1.8244,-1.8512,-1.9152,-2.0982,-2.1109,-2.1109,-2.1109,-2.1109,-2.1109,-2.1109,-2.1109,-2.1109,-2.1109,-2.1109,-2.1556,-2.2694,-2.2694,-2.3145,-2.4179,-2.5046,-2.4843,-2.3923,-2.6371,-2.7003,-2.6106,-2.8664,-2.9648,-2.9648,-2.9648,-2.9648,-2.9766,-3.0528,-3.0898,-3.0898,-3.0898,-3.1445,-3.2266,-3.2891,-3.3242,-3.3418,-3.3418,-3.3418,-3.3418,-3.3418,-3.3418,-3.3418,-3.3418,-3.3418,-3.3418,-3.3418,-3.3418,0.0,0.0,-3.3418,-3.3418,-3.3418,-3.3418,-3.3418,-3.3418,-3.3418,-3.3418,-3.3418,-3.3418,-3.3418,-3.3418,-3.3418,-3.3418,-3.3418,-3.3418,-3.3418,-3.3418,-3.3418,-3.3418,-3.3418,-3.3418,-3.3418,-3.3418,-3.3418,-3.3418,-3.3418,-3.3418,-3.3418,-3.3418,-3.3418,-3.3418,-3.3418,-3.3418,-3.3418,-3.3418,-3.3418,-3.3418,-3.3418,-3.3418,-3.3418,-3.3418,-3.3418,-3.3418,-3.3418,-3.3418,-3.3418,-3.3418,-3.3418,-3.3965,-3.4707,-1.0717,-1.0717,-1.0717,-1.0717,-1.0717,-1.0717,-1.0717,-1.215,-1.3587,-1.4232,-1.5524,-1.7076,-1.8768,-1.9024,-1.9546,-2.0982,-2.1109,-2.1109,-2.1109,-2.1109,-2.1109,-2.1109,-2.1109,-2.1109,-2.1109,-2.1529,-2.2553,-2.4179,-2.4619,-2.5676,-2.7344,-2.7596,-2.7428,-2.6769,-2.8674,-2.846,-2.6813,-2.9686,-3.0138,-2.9039,-3.0392,-3.0898,-3.0898,-3.0898,-3.0898,-3.0898,-3.0976,-3.1504,-3.2226,-3.2656,-3.3066,-3.3418,-3.3418,-3.3418,-3.3418,-3.3418,-3.3418,-3.3418,-3.3418,-3.3418,-3.3418,-3.3418,-3.3418,-3.3418,0.0,0.0,0.0,-3.3418,-3.3418,-3.3418,-3.3418,-3.3418,-3.3418,-3.3418,-3.3418,-3.3418,-3.3418,-3.3418,-3.3418,-3.3418,-3.3418,-3.3418,-3.3418,-3.3418,-3.3418,-3.3418,-3.3418,-3.3418,-3.3418,-3.3418,-3.3418,-3.3418,-3.3418,-3.3418,-3.3418,-3.3418,-3.3418,-3.3418,-3.3418,-3.3418,-3.3418,-3.3418,-3.3418,-3.3418,-3.3418,-3.3418,-3.3418,-3.3418,-3.3418,-3.3418,-3.3418,-3.3418,-3.3418,-3.3418,-3.3965,-3.4707,-1.0717,-1.0717,-1.0717,-1.0717,-1.0717,-1.0717,-1.0717,-1.215,-1.4362,-1.7474,-1.8116,-1.8896,-2.0589,-2.0843,-2.0856,-2.1109,-2.1109,-2.1109,-2.1109,-2.1109,-2.1109,-2.1109,-2.1109,-2.1109,-2.1109,-2.2849,-2.4022,-2.4179,-2.5993,-2.7057,-2.7344,-2.8727,-2.8692,-2.7386,-3.0055,-3.025,-2.8792,-3.031,-3.0762,-3.0645,-3.0762,-3.0898,-3.0898,-3.0898,-3.0898,-3.0937,-3.1309,-3.1758,-3.2226,-3.2656,-3.3066,-3.3418,-3.3418,-3.3418,-3.3418,-3.3418,-3.3418,-3.3418,-3.3418,-3.3418,-3.3418,-3.3418,-3.3418,-3.3418,-3.3418,0.0,-3.3418,-3.3418,0.0,-3.3418,-3.3418,0.0,0.0,-3.3418,-3.3418,-3.3418,-3.3418,-3.3418,-3.3418,-3.3418,-3.3418,-3.3418,-3.3418,-3.3418,-3.3418,-3.3418,-3.3418,-3.3418,-3.3418,-3.3418,-3.3418,-3.3418,-3.3418,-3.3418,-3.3418,-3.3418,-3.3418,-3.3418,-3.3418,-3.3418,-3.3418,-3.3418,-3.3418,-3.3418,-3.3418,-3.3418,-3.3418,-3.3418,-3.3418,-3.3418,-3.3418,-3.3418,-3.3418,-3.3418,-3.3965,-3.4707,-1.0717,-1.0717,-1.0717,-1.0717,-1.0717,-1.0717,-1.0717,-1.3062,-1.6043,-1.9546,-2.0068,-2.0322,-2.0982,-2.1109,-2.1109,-2.1109,-2.1109,-2.1109,-2.1109,-2.1109,-2.1475,-2.2466,-2.2591,-2.3039,-2.4204,-2.5094,-2.6368,-2.779,-2.872,-2.9689,-3.0809,-3.1584,-3.1327,-3.0585,-3.1443,-3.1378,-3.049,-3.082,-3.0898,-3.0898,-3.0898,-3.0898,-3.0898,-3.0898,-3.0898,-3.0918,-3.1094,-3.1582,-3.2207,-3.2363,-3.2871,-3.3418,-3.3418,-3.3418,-3.3418,-3.3418,-3.3418,-3.3418,-3.3418,-3.3418,-3.3418,-3.3418,-3.3418,-3.3418,-3.3418,-3.3418,-3.3418,-3.3418,0.0,0.0,0.0,0.0,0.0,0.0,-3.3418,-3.3418,-3.3418,-3.3418,-3.3418,-3.3418,-3.3418,-3.3418,-3.3418,-3.3418,-3.3418,-3.3418,-3.3418,-3.3418,-3.3418,-3.3418,-3.3418,-3.3418,-3.3418,-3.3418,-3.3418,-3.3418,-3.3418,-3.3418,-3.3418,-3.3418,-3.3418,-3.3418,-3.3418,-3.3418,-3.3418,-3.3418,-3.3418,-3.3418,-3.3418,-3.3418,-3.3418,-3.3418,-3.3457,-3.3711,-3.418,-3.4746,-1.0717,-1.0717,-1.0717,-1.0717,-1.0717,-1.0982,-1.2025,-1.4623,-1.7731,-2.0716,-2.1109,-2.1109,-2.1109,-2.1109,-2.1109,-2.1109,-2.1109,-2.1109,-2.1109,-2.1109,-2.1853,-2.3574,-2.3574,-2.458,-2.6529,-2.7125,-2.8373,-3.0447,-3.0954,-3.1935,-3.3418,-3.3418,-3.3262,-3.2949,-3.2519,-3.209,-3.166,-3.125,-3.0996,-3.0898,-3.0898,-3.0898,-3.0898,-3.0898,-3.0898,-3.0898,-3.0898,-3.1367,-3.2012,-3.2129,-3.2656,-3.3262,-3.3379,-3.3418,-3.3418,-3.3418,-3.3418,-3.3418,-3.3418,-3.3418,-3.3418,-3.3418,-3.3418,-3.3418,-3.3418,-3.3418,-3.3418,-3.3418,-3.3418,0.0,0.0,0.0,-3.3418,-3.3418,0.0,-3.3418,-3.3418,-3.3418,-3.3418,-3.3418,-3.3418,-3.3418,-3.3418,-3.3418,-3.3418,-3.3418,-3.3418,-3.3418,-3.3418,-3.3418,-3.3418,-3.3418,-3.3418,-3.3418,-3.3418,-3.3418,-3.3418,-3.3418,-3.3418,-3.3418,-3.3418,-3.3418,-3.3418,-3.3418,-3.3418,-3.3418,-3.3418,-3.3418,-3.3418,-3.3418,-3.3418,-3.3496,-3.3633,-3.3945,-3.4336,-3.4766,-1.0717,-1.0717,-1.0717,-1.0717,-1.0717,-1.1894,-1.5265,-1.7205,-1.9024,-2.0843,-2.1109,-2.1109,-2.1109,-2.1109,-2.1109,-2.1109,-2.1109,-2.1109,-2.1109,-2.1109,-2.1853,-2.3574,-2.3574,-2.458,-2.6496,-2.8623,-2.9904,-3.0447,-3.2409,-3.3272,-3.3418,-3.3418,-3.3418,-3.3379,-3.2969,-3.2539,-3.2129,-3.168,-3.1269,-3.0898,-3.0898,-3.0898,-3.0898,-3.0898,-3.0898,-3.0898,-3.0898,-3.1172,-3.1601,-3.2031,-3.2461,-3.2891,-3.3301,-3.3418,-3.3418,-3.3418,-3.3418,-3.3418,-3.3418,-3.3418,-3.3418,-3.3418,-3.3418,-3.3418,-3.3418,-3.3418,-3.3418,-3.3418,-3.3418,-3.3418,-3.3418,-3.3418,-3.3418,-3.3418,-3.3418,0.0,0.0,-3.3418,-3.3418,-3.3418,-3.3418,-3.3418,-3.3418,-3.3418,-3.3418,-3.3418,-3.3418,-3.3418,-3.3418,-3.3418,-3.3418,-3.3418,-3.3418,-3.3418,-3.3418,-3.3418,-3.3418,-3.3418,-3.3418,-3.3418,-3.3418,-3.3418,-3.3418,-3.3418,-3.3418,-3.3418,-3.3418,-3.3418,-3.3418,-3.3418,-3.3418,-3.3691,-3.4062,-3.4062,-3.4336,-3.4766,-1.0717,-1.0717,-1.0717,-1.0717,-1.163,-1.3578,-1.7076,-1.8116,-1.9152,-2.0843,-2.1109,-2.1109,-2.1109,-2.1109,-2.1109,-2.1109,-2.1109,-2.1109,-2.1109,-2.209,-2.3435,-2.513,-2.6477,-2.8132,-3.0278,-3.12,-3.1989,-3.2409,-3.3087,-3.3418,-3.3418,-3.3418,-3.3418,-3.3398,-3.2988,-3.2559,-3.2148,-3.1699,-3.1269,-3.0898,-3.0898,-3.0898,-3.0898,-3.0898,-3.0898,-3.0898,-3.0898,-3.1152,-3.1582,-3.2012,-3.2441,-3.2871,-3.3281,-3.3418,-3.3418,-3.3418,-3.3418,-3.3418,-3.3418,-3.3418,-3.3418,-3.3418,-3.3418,-3.3418,-3.3418,-3.3418,-3.3418,-3.3418,-3.3418,-3.3418,-3.3418,-3.3418,-3.3418,-3.3418,-3.3418,-3.3418,0.0,-3.3418,-3.3418,-3.3418,-3.3418,-3.3418,-3.3418,-3.3418,-3.3418,-3.3418,-3.3418,-3.3418,-3.3418,-3.3418,-3.3418,-3.3418,-3.3418,-3.3418,-3.3418,-3.3418,-3.3418,-3.3418,-3.3418,-3.3418,-3.3418,-3.3418,-3.3418,-3.3418,-3.3418,-3.3418,-3.3418,-3.3418,-3.3418,-3.3457,-3.375,-3.3945,-3.4101,-3.4394,-3.4766,-3.5215,-1.0717,-1.124,-1.163,-1.163,-1.3578,-1.5913,-1.8116,-1.9024,-1.9801,-2.0982,-2.1109,-2.1109,-2.1109,-2.1109,-2.1109,-2.1109,-2.1109,-2.1362,-2.1978,-2.2952,-2.4532,-2.6712,-2.8179,-2.987,-3.1934,-3.2363,-3.2773,-3.3203,-3.334,-3.3418,-3.3418,-3.3418,-3.3418,-3.3398,-3.2988,-3.2559,-3.2148,-3.1699,-3.1269,-3.0898,-3.0898,-3.0898,-3.0898,-3.0898,-3.0898,-3.0898,-3.0898,-3.1074,-3.1367,-3.1797,-3.2226,-3.2656,-3.3066,-3.3301,-3.3418,-3.3418,-3.3418,-3.3418,-3.3418,-3.3418,-3.3418,-3.3418,-3.3418,-3.3418,-3.3418,-3.3418,-3.3418,-3.3418,-3.3418,-3.3418,-3.3418,-3.3418,-3.3418,-3.3418,-3.3418,-3.3418,0.0,-3.3418,-3.3418,-3.3418,-3.3418,-3.3418,-3.3418,-3.3418,-3.3418,-3.3418,-3.3418,-3.3418,-3.3418,-3.3418,-3.3418,-3.3418,-3.3418,-3.3418,-3.3418,-3.3418,-3.3418,-3.3418,-3.3418,-3.3418,-3.3418,-3.3418,-3.3418,-3.3418,-3.3418,-3.3418,-3.3418,-3.3418,-3.3418,-3.3457,-3.3906,-3.416,-3.4355,-3.4785,-3.5234,-3.5664,-1.085,-1.2281,-1.3578,-1.3578,-1.6302,-1.8512,-1.864,-2.0068,-2.1109,-2.1109,-2.1109,-2.1109,-2.1109,-2.1109,-2.1109,-2.1109,-2.1109,-2.1853,-2.345,-2.3698,-2.5146,-2.8289,-2.8564,-2.948,-3.1504,-3.1953,-3.2363,-3.2773,-3.3184,-3.3379,-3.3359,-3.3379,-3.3379,-3.334,-3.2949,-3.2539,-3.2109,-3.1699,-3.1269,-3.0898,-3.0898,-3.0898,-3.0898,-3.0898,-3.0898,-3.0898,-3.0898,-3.0898,-3.0957,-3.1367,-3.1797,-3.2207,-3.2656,-3.3066,-3.3398,-3.3418,-3.3418,-3.3418,-3.3418,-3.3418,-3.3418,-3.3418,-3.3418,-3.3418,-3.3418,-3.3418,-3.3418,-3.3418,-3.3418,-3.3418,-3.3418,-3.3418,-3.3418,-3.3418,-3.3418,-3.3418,-3.3418,-3.3418,-3.3418,-3.3418,-3.3418,-3.3418,-3.3418,-3.3418,-3.3418,-3.3418,-3.3418,-3.3418,-3.3418,-3.3418,-3.3418,-3.3418,-3.3418,-3.3418,-3.3418,-3.3418,-3.3418,-3.3418,-3.3418,-3.3418,-3.3418,-3.3418,-3.3418,-3.3418,-3.3418,-3.3418,-3.3418,-3.3418,-3.3437,-3.3496,-3.3945,-3.4375,-3.4824,-3.5254,-3.5684,-3.6016,-1.2413,-1.5135,-1.7216,-1.7216,-1.7859,-1.8896,-2.0195,-2.0843,-2.1109,-2.1109,-2.1109,-2.1109,-2.1109,-2.1109,-2.1109,-2.1109,-2.1109,-2.1853,-2.345,-2.4778,-2.6227,-2.8289,-2.993,-3.0911,-3.1523,-3.1953,-3.2226,-3.2324,-3.2754,-3.2793,-3.25,-3.2812,-3.2793,-3.248,-3.2383,-3.209,-3.168,-3.1562,-3.1269,-3.0898,-3.0898,-3.0898,-3.0898,-3.0898,-3.0898,-3.0898,-3.0898,-3.0898,-3.0957,-3.1367,-3.1601,-3.1816,-3.2559,-3.2871,-3.3008,-3.332,-3.3418,-3.3418,-3.3418,-3.3418,-3.3418,-3.3418,-3.3418,-3.3418,-3.3418,-3.3418,-3.3418,-3.3418,-3.3418,-3.3418,-3.3418,-3.3418,-3.3418,-3.3418,-3.3418,-3.3418,-3.3418,-3.3418,-3.3418,-3.3418,-3.3418,-3.3418,-3.3418,-3.3418,-3.3418,-3.3418,-3.3418,-3.3418,-3.3418,-3.3418,-3.3418,-3.3418,-3.3418,-3.3418,-3.3418,-3.3418,-3.3418,-3.3418,-3.3418,-3.3418,-3.3418,-3.3418,-3.3418,-3.3418,-3.3418,-3.3418,-3.3418,-3.3418,-3.3613,-3.3945,-3.4375,-3.5,-3.5684,-3.582,-3.5937,-3.6016,-1.2931,-1.6172,-1.8768,-1.9546,-1.9674,-1.9941,-2.0982,-2.1109,-2.1109,-2.1109,-2.1109,-2.1109,-2.1109,-2.1109,-2.1109,-2.1109,-2.1109,-2.209,-2.4532,-2.4901,-2.6349,-2.9412,-2.9874,-3.0501,-3.125,-3.166,-3.1875,-3.1875,-3.2305,-3.2402,-3.2168,-3.2402,-3.2402,-3.2168,-3.1973,-3.1758,-3.1504,-3.1328,-3.1113,-3.0898,-3.0898,-3.0898,0.0,-3.0898,-3.0898,-3.0898,-3.0898,-3.0898,-3.0918,-3.1172,-3.1367,-3.1601,-3.209,-3.25,-3.2832,-3.3086,-3.3281,-3.3418,-3.3418,-3.3418,-3.3418,-3.3418,-3.3418,-3.3418,-3.3418,-3.3418,-3.3418,-3.3418,-3.3418,-3.3418,-3.3418,-3.3418,-3.3418,-3.3418,-3.3418,-3.3418,-3.3418,-3.3418,-3.3418,-3.3418,-3.3418,-3.3418,-3.3418,-3.3418,-3.3418,-3.3418,-3.3418,-3.3418,-3.3418,-3.3418,-3.3418,-3.3418,-3.3418,-3.3418,-3.3418,-3.3418,-3.3418,-3.3418,-3.3418,-3.3418,-3.3418,-3.3418,-3.3418,-3.3418,-3.3418,-3.3418,-3.3437,-3.3633,-3.3848,-3.4141,-3.4766,-3.541,-3.6016,-3.6016,-3.6016,-3.6016,-1.3193,-1.6431,-1.9291,-2.0843,-2.1109,-2.1109,-2.1109,-2.1109,-2.1109,-2.1109,-2.1109,-2.1109,-2.1109,-2.1109,-2.1109,-2.1109,-2.1109,-2.2452,-2.5497,-2.4532,-2.5879,-3.0392,-2.9412,-2.9412,-3.0879,-3.125,-3.1445,-3.1445,-3.1875,-3.2051,-3.1992,-3.2051,-3.2051,-3.1992,-3.1601,-3.1445,-3.1406,-3.1055,-3.0898,-3.0898,-3.0898,-3.0898,-3.0898,-3.0898,-3.0898,-3.0898,-3.0898,-3.0898,-3.0898,-3.0898,-3.1133,-3.1445,-3.1504,-3.2031,-3.2656,-3.2754,-3.3047,-3.3359,-3.3398,-3.3418,-3.3418,-3.3418,-3.3418,-3.3418,-3.3418,-3.3418,-3.3418,-3.3418,-3.3418,-3.3418,-3.3418,-3.3418,-3.3418,-3.3418,-3.3418,-3.3418,-3.3418,-3.3418,-3.3418,-3.3418,-3.3418,0.0,-3.3418,-3.3418,-3.3418,-3.3418,-3.3418,-3.3418,-3.3418,-3.3418,-3.3418,-3.3418,-3.3418,-3.3418,-3.3418,-3.3418,-3.3418,-3.3418,-3.3418,-3.3418,-3.3418,-3.3418,-3.3418,-3.3418,-3.3418,-3.3418,-3.3457,-3.3887,-3.4141,-3.4316,-3.5156,-3.5703,-3.6016,-3.6016,-3.6016,-3.6016,-1.4874,-1.8244,-2.0716,-2.1109,-2.1109,-2.1109,-2.1109,-2.1109,-2.1109,-2.1109,-2.1109,-2.1109,-2.1109,-2.1109,-2.1109,-2.1109,-2.1109,-2.1978,-2.3931,-2.5024,-2.6591,-2.8783,-2.9903,-3.0645,-3.0898,-3.0957,-3.0996,-3.0996,-3.1426,-3.1445,-3.1113,-3.1465,-3.1445,-3.1113,-3.1035,-3.0996,-3.0996,-3.0918,-3.0898,-3.0898,-3.0898,-3.0898,-3.0898,-3.0898,-3.0898,-3.0898,-3.0898,-3.0898,-3.0898,-3.0898,-3.0937,-3.1055,-3.1406,-3.1621,-3.1875,-3.2578,-3.2851,-3.2988,-3.332,-3.3418,-3.3418,-3.3418,-3.3418,-3.3418,-3.3418,-3.3418,-3.3418,-3.3418,-3.3418,-3.3418,-3.3418,-3.3418,-3.3418,-3.3418,-3.3418,-3.3418,-3.3418,-3.3418,-3.3418,-3.3418,-3.3418,-3.3418,-3.3418,-3.3418,-3.3418,-3.3418,-3.3418,-3.3418,-3.3418,-3.3418,-3.3418,-3.3418,-3.3418,-3.3418,-3.3418,-3.3418,-3.3418,-3.3418,-3.3418,-3.3418,-3.3418,-3.3418,-3.3418,-3.3418,-3.3418,-3.3418,-3.3457,-3.3887,-3.4512,-3.5215,-3.5723,-3.5957,-3.6016,-3.6016,-3.6016,-3.6016,-1.5524,-1.8768,-2.1109,-2.1109,-2.1109,-2.1109,-2.1109,-2.1109,-2.1109,-2.1109,-2.1109,-2.1109,-2.1109,-2.1109,-2.1109,-2.1109,-2.1109,-2.1853,-2.345,-2.4301,-2.5879,-2.8289,-2.9157,-3.002,-3.0898,-3.0898,-3.0898,-3.0898,-3.1094,-3.1094,-3.0898,-3.1094,-3.1094,-3.0898,-3.0898,-3.0898,-3.0898,-3.0898,-3.0898,-3.0898,-3.0898,-3.0898,-3.0898,-3.0898,-3.0898,-3.0898,-3.0898,-3.0898,-3.0898,-3.0898,-3.0898,-3.0918,-3.1133,-3.1348,-3.1601,-3.2012,-3.2441,-3.2832,-3.3047,-3.3262,-3.3418,-3.3418,-3.3418,-3.3418,-3.3418,-3.3418,-3.3418,-3.3418,-3.3418,-3.3418,-3.3418,-3.3418,-3.3418,-3.3418,-3.3418,-3.3418,-3.3418,-3.3418,-3.3418,-3.3418,-3.3418,-3.3418,-3.3418,-3.2619,-3.2492,-3.3292,-3.3418,-3.3418,-3.3418,-3.3418,-3.3418,-3.3418,-3.3418,-3.3418,-3.3418,-3.3418,-3.3418,-3.3418,-3.3418,-3.3418,-3.3418,-3.3418,-3.3418,-3.3418,-3.3418,-3.3418,-3.3476,-3.4121,-3.4922,-3.5742,-3.5937,-3.6016,-3.6016,-3.6016,-3.6016,-3.6016,-1.5394,-1.8116,-2.0589,-2.0589,-2.0856,-2.1109,-2.1109,-2.1109,-2.1109,-2.1109,-2.1109,-2.1109,-2.1109,-2.1109,-2.1109,-2.1109,-2.1109,-2.1601,-2.2952,-2.345,-2.4901,-2.7811,-2.817,-2.9157,-3.0898,-3.0898,-3.0898,-3.0898,-3.0898,-3.0898,-3.0898,-3.0898,-3.0898,-3.0898,-3.0898,-3.0898,-3.0898,-3.0898,-3.0898,-3.0898,-3.0898,-3.0898,-3.0898,-3.0898,-3.0898,-3.0898,-3.0898,-3.0898,-3.0898,-3.0898,-3.0898,-3.0898,-3.0898,-3.1113,-3.1406,-3.1484,-3.1992,-3.2559,-3.2734,-3.3027,-3.3301,-3.3398,-3.3418,-3.3418,-3.3418,-3.3418,-3.3418,-3.3418,-3.3418,-3.3418,-3.3418,-3.3418,-3.3418,-3.3418,-3.3418,-3.3418,-3.3418,-3.3418,-3.3418,-3.3418,-3.3418,-3.3418,-3.3418,-3.1835,-3.1433,-3.2746,-3.2892,-3.3019,-3.3418,-3.3418,-3.3418,-3.3418,-3.3418,-3.3418,-3.3418,-3.3418,-3.3418,-3.3418,-3.3418,-3.3418,-3.3418,-3.3418,-3.3418,-3.3418,-3.3418,-3.3535,-3.375,-3.4531,-3.5312,-3.6016,-3.6016,-3.6016,-3.6016,-3.6016,-3.6016,-3.6016,-1.3578,-1.6302,-1.8768,-1.8768,-2.0068,-2.1109,-2.1109,-2.1109,-2.1109,-2.1109,-2.1109,-2.1109,-2.1109,-2.1109,-2.1109,-2.1109,-2.1109,-2.1109,-2.1362,-2.2716,-2.4425,-2.6106,-2.7572,-2.9157,-3.0898,-3.0898,-3.0898,-3.0898,-3.0898,-3.0898,-3.0898,-3.0898,-3.0898,-3.0898,-3.0898,-3.0898,-3.0898,-3.0898,-3.0898,-3.0898,-3.0898,-3.0898,-3.0898,-3.0898,-3.0898,-3.0898,-3.0898,-3.0898,-3.0898,-3.0898,-3.0898,-3.0898,-3.0898,-3.0918,-3.1016,-3.1406,-3.1582,-3.1797,-3.2578,-3.2832,-3.2949,-3.332,-3.3418,-3.3418,-3.3418,-3.3418,-3.3418,-3.3418,-3.3418,-3.3418,-3.3418,-3.3418,-3.3418,-3.3418,-3.3418,-3.3418,-3.3418,-3.3418,-3.3418,-3.3418,-3.3418,-3.3418,-3.3418,-3.1835,-3.09,-3.1029,-3.1029,-3.1707,-3.3292,-3.3418,-3.3418,-3.3418,-3.3418,-3.3418,-3.3418,-3.3418,-3.3418,-3.3418,-3.3418,-3.3418,-3.3418,-3.3418,-3.3418,-3.3418,-3.3418,-3.3867,-3.4609,-3.5117,-3.5605,-3.6016,-3.6016,-3.6016,-3.6016,-3.6016,-3.6016,-3.6016,-1.3325,-1.6172,-1.8512,-1.8512,-1.9941,-2.1109,-2.1109,-2.1109,-2.1109,-2.1109,-2.1109,-2.1109,-2.1109,-2.1109,-2.1109,-2.1109,-2.1109,-2.1109,-2.1109,-2.2716,-2.3946,-2.4532,-2.6106,-2.7692,-2.9412,-2.9412,-2.9903,-3.0898,-3.0898,-3.0898,-3.0898,-3.0898,-3.0898,-3.0898,-3.0898,-3.0898,-3.0898,-3.0898,-3.0898,-3.0898,-3.0898,-3.0898,-3.0898,-3.0898,-3.0898,-3.0898,-3.0898,-3.0898,-3.0898,-3.0898,-3.0898,-3.0898,-3.0898,-3.0898,-3.0918,-3.1094,-3.1328,-3.1601,-3.1934,-3.2226,-3.2519,-3.2949,-3.3047,-3.3105,-3.3359,-3.3418,-3.3418,-3.3418,-3.3418,-3.3418,-3.3418,-3.3418,-3.3418,-3.3418,-3.3418,-3.3418,-3.3418,-3.3418,-3.3418,-3.3418,-3.3418,-3.3418,-3.3418,-3.1835,-3.1194,-3.2237,-3.0384,-2.9995,-3.1707,-3.1835,-3.2365,-3.3418,-3.3418,-3.3418,-3.3418,-3.3418,-3.3418,-3.3418,-3.3418,-3.3418,-3.3418,-3.3418,-3.3418,-3.3437,-3.3691,-3.4141,-3.4726,-3.5195,-3.5644,-3.6016,-3.6016,-3.6016,-3.6016,-3.6016,-3.6016,-3.6016,-1.2545,-1.5394,-1.7731,-1.7731,-1.9546,-2.1109,-2.1109,-2.1109,-2.1109,-2.1109,-2.1109,-2.1109,-2.1109,-2.1109,-2.1109,-2.1109,-2.1109,-2.1109,-2.1109,-2.2215,-2.3076,-2.3574,-2.513,-2.6712,-2.8426,-2.8902,-2.9648,-3.0898,-3.0898,-3.0898,-3.0898,-3.0898,-3.0898,-3.0898,-3.0898,-3.0898,-3.0898,-3.0898,-3.0898,-3.0898,-3.0898,-3.0898,-3.0898,-3.0898,-3.0898,-3.0898,-3.0898,-3.0898,-3.0898,-3.0898,-3.0898,-3.0898,-3.0898,-3.0898,-3.0898,-3.0898,-3.1094,-3.1367,-3.1484,-3.1738,-3.207,-3.25,-3.2695,-3.2871,-3.3164,-3.334,-3.3418,-3.3418,-3.3418,-3.3418,-3.3418,-3.3418,-3.3418,-3.3418,-3.3418,-3.3418,-3.3418,-3.3418,-3.3418,-3.3418,-3.3418,-3.3418,-3.3418,-3.1854,-3.1322,-3.2492,-2.9882,-2.9213,-3.1433,-3.1561,-3.2091,-3.3418,-3.3418,-3.3418,-3.3418,-3.3418,-3.3418,-3.3418,-3.3418,-3.3418,-3.3418,-3.3418,-3.3418,-3.3457,-3.4023,-3.4434,-3.4746,-3.5332,-3.5742,-3.6016,-3.6016,-3.6016,-3.6016,-3.6016,-3.6016,-3.6016,-1.0717,-1.3587,-1.5913,-1.5913,-1.8768,-2.1109,-2.1109,-2.1109,-2.1109,-2.1109,-2.1109,-2.1109,-2.1109,-2.1109,-2.1109,-2.1109,-2.1109,-2.1109,-2.1109,-2.1109,-2.1853,-2.3574,-2.513,-2.6712,-2.8426,-3.002,-3.0898,-3.0898,-3.0898,-3.0898,-3.0898,-3.0898,-3.0898,-3.0898,-3.0898,-3.0898,-3.0898,-3.0898,-3.0898,-3.0898,-3.0898,-3.0898,-3.0898,-3.0898,-3.0898,-3.0898,-3.0898,-3.0898,-3.0898,-3.0898,-3.0898,-3.0898,-3.0898,-3.0898,-3.0898,-3.0898,-3.0898,-3.0996,-3.1406,-3.1523,-3.1621,-3.207,-3.248,-3.2793,-3.2793,-3.3125,-3.3418,-3.3418,-3.3418,-3.3418,-3.3418,-3.3418,-3.3418,-3.3418,-3.3418,-3.3418,-3.3418,-3.3418,-3.3418,-3.3418,-3.3418,-3.3418,-3.3418,-3.1835,-3.0771,-3.0771,-2.9213,-2.9735,-3.3165,-3.3418,-3.3418,-3.3418,-3.3418,-3.3418,-3.3418,-3.3418,-3.3418,-3.3418,-3.3418,-3.3418,-3.3418,-3.3418,-3.3418,-3.3476,-3.4316,-3.4687,-3.4766,-3.5644,-3.6016,-3.6016,-3.6016,-3.6016,-3.6016,-3.6016,-3.6016,-3.6016,-1.0717,-1.3447,-1.5913,-1.5913,-1.8768,-2.1109,-2.1109,-2.1109,-2.1109,-2.1109,-2.1109,-2.1109,-2.1109,-2.1109,-2.1109,-2.1109,-2.1109,-2.1109,-2.1109,-2.1109,-2.1362,-2.1853,-2.2327,-2.3435,-2.5146,-2.6729,-2.8051,-2.9157,-3.0392,-3.0898,-3.0898,-3.0898,-3.0898,-3.0898,-3.0898,-3.0898,-3.0898,-3.0898,-3.0898,-3.0898,-3.0898,-3.0898,-3.0898,-3.0898,-3.0898,-3.0898,-3.0898,-3.0898,-3.0898,-3.0898,-3.0898,-3.0898,-3.0898,-3.0898,-3.0898,-3.0898,-3.0898,-3.0918,-3.1055,-3.1094,-3.1191,-3.1621,-3.1836,-3.1992,-3.2305,-3.2695,-3.3066,-3.3359,-3.3418,-3.3418,-3.3418,-3.3418,-3.3418,-3.3418,-3.3418,-3.3418,-3.3418,-3.3418,-3.3418,-3.3418,-3.3418,-3.3418,-3.3418,-3.2892,-3.2619,-3.2619,-3.211,-3.1707,-3.1561,-3.1561,-3.2218,-3.3418,-3.3418,-3.3418,-3.3418,-3.3418,-3.3418,-3.3418,-3.3418,-3.3418,-3.3418,-3.3418,-3.3418,-3.3476,-3.4336,-3.4707,-3.4766,-3.5644,-3.6016,-3.6016,-3.6016,-3.6016,-3.6016,-3.6016,-3.6016,-3.6016,-1.0636,-1.2882,-1.5135,-1.5784,-1.8244,-2.0322,-2.0982,-2.1109,-2.1109,-2.1109,-2.1109,-2.1109,-2.1109,-2.1109,-2.1109,-2.1109,-2.1109,-2.1109,-2.1109,-2.1109,-2.1109,-2.1109,-2.1727,-2.2591,-2.3574,-2.513,-2.647,-2.7434,-2.8545,-2.9412,-3.002,-3.002,-3.0274,-3.0898,-3.0898,-3.0898,-3.0898,-3.0898,-3.0898,-3.0898,-3.0898,-3.0898,-3.0898,-3.0898,-3.0898,-3.0898,-3.0898,-3.0898,-3.0898,-3.0898,-3.0898,-3.0898,-3.0898,-3.0898,-3.0898,-3.0898,-3.0898,-3.0898,-3.0898,-3.0898,-3.0957,-3.1211,-3.1406,-3.1621,-3.207,-3.2363,-3.2637,-3.2891,-3.3066,-3.3184,-3.3184,-3.332,-3.3418,-3.3418,-3.3418,-3.3418,-3.3418,-3.3418,-3.3418,-3.3418,-3.3418,-3.3418,-3.3418,-3.3418,-3.3418,-3.3418,-3.3418,-3.2892,-3.1835,-3.1835,-3.2237,-3.3418,-3.3418,-3.3418,-3.3418,-3.3418,-3.3418,-3.3418,-3.3418,-3.3418,-3.3418,-3.3418,-3.3418,-3.3476,-3.4336,-3.4707,-3.4766,-3.5644,-3.6016,-3.6016,-3.6016,-3.6016,-3.6016,-3.6016,-3.6016,-3.6016,-1.0487,-1.2157,-1.3953,-1.5654,-1.7474,-1.9279,-2.0856,-2.1109,-2.1109,-2.1109,-2.1109,-2.1109,-2.1109,-2.1109,-2.1109,-2.1109,-2.1109,-2.1109,-2.1109,-2.1109,-2.1109,-2.1109,-2.2591,-2.345,-2.345,-2.5024,-2.5863,-2.5984,-2.5984,-2.6712,-2.817,-2.817,-2.9157,-3.0762,-3.0762,-3.0762,-3.0898,-3.0898,-3.0898,-3.0898,-3.0898,-3.0898,-3.0898,-3.0898,-3.0898,-3.0898,-3.0898,-3.0898,-3.0898,-3.0898,-3.0898,-3.0898,-3.0898,-3.0898,-3.0898,-3.0898,-3.0898,-3.0898,-3.0898,-3.0898,-3.0898,-3.0898,-3.1191,-3.1582,-3.2031,-3.2129,-3.2129,-3.2168,-3.248,-3.2754,-3.2754,-3.3066,-3.334,-3.3379,-3.3379,-3.3379,-3.3418,-3.3418,-3.3418,-3.3418,-3.3418,-3.3418,-3.3418,-3.3418,-3.3418,-3.3418,-3.3418,-3.3418,-3.3418,-3.3418,-3.3418,-3.3418,-3.3418,-3.3418,-3.3418,-3.3418,-3.3418,-3.3418,-3.3418,-3.3418,-3.3418,-3.3418,-3.3418,-3.3476,-3.4297,-3.4668,-3.4766,-3.5625,-3.5996,-3.6016,-3.6016,-3.6016,-3.6016,-3.6016,-3.6016,-3.6016,-1.0473,-1.2951,-1.5327,-1.5754,-1.8384,-2.0589,-2.0982,-2.1109,-2.1109,-2.1109,-2.1109,-2.1109,-2.1109,-2.1109,-2.1109,-2.1109,-2.1109,-2.1109,-2.1109,-2.1109,-2.1109,-2.1109,-2.1475,-2.1727,-2.1727,-2.3325,-2.4778,-2.5984,-2.5984,-2.6227,-2.6591,-2.6591,-2.7452,-2.9039,-2.9039,-2.9648,-3.0898,-3.0898,-3.0898,-3.0898,-3.0898,-3.0898,-3.0898,-3.0898,-3.0898,-3.0898,-3.0898,-3.0898,-3.0898,-3.0898,-3.0898,-3.0898,-3.0898,-3.0898,-3.0898,-3.0898,-3.0898,-3.0898,-3.0898,-3.0898,-3.0898,-3.0898,-3.0957,-3.1152,-3.1582,-3.168,-3.1758,-3.209,-3.2246,-3.2324,-3.2324,-3.2402,-3.2578,-3.2891,-3.2949,-3.3066,-3.3379,-3.3418,-3.3418,-3.3418,-3.3418,-3.3418,-3.3418,-3.3418,-3.3418,-3.3418,-3.3418,-3.3418,-3.3418,-3.3418,-3.3418,-3.3418,-3.3418,-3.3418,-3.3418,-3.3418,-3.3418,-3.3418,-3.3418,-3.3418,-3.3418,-3.3418,-3.3418,-3.3457,-3.3984,-3.4394,-3.4746,-3.5312,-3.5723,-3.6016,-3.6016,-3.6016,-3.6016,-3.6016,-3.6016,-3.6016,-1.0276,-1.1853,-1.3734,-1.5465,-1.7423,-1.9145,-2.0829,-2.1109,-2.1109,-2.1109,-2.1109,-2.1109,-2.1109,-2.1109,-2.1109,-2.1109,-2.1109,-2.1109,-2.1109,-2.1109,-2.1109,-2.1109,-2.1109,-2.1109,-2.1109,-2.1978,-2.2952,-2.3792,-2.3792,-2.4163,-2.4901,-2.5619,-2.6832,-2.8426,-2.9157,-3.002,-3.0898,-3.0898,-3.0898,-3.0898,-3.0898,-3.0898,-3.0898,-3.0898,-3.0898,-3.0898,-3.0898,-3.0898,-3.0898,-3.0898,-3.0898,-3.0898,-3.0898,-3.0898,-3.0898,-3.0898,-3.0898,-3.0898,-3.0898,-3.0898,-3.0898,-3.0898,-3.0898,-3.0957,-3.1191,-3.123,-3.1289,-3.1543,-3.1738,-3.1875,-3.1875,-3.2031,-3.2246,-3.248,-3.2519,-3.2598,-3.2812,-3.2851,-3.293,-3.3105,-3.3144,-3.3203,-3.3398,-3.3418,-3.3418,-3.3418,-3.3418,-3.3418,-3.3418,-3.3418,-3.3418,-3.3418,-3.3418,-3.3418,-3.3418,-3.3418,-3.3418,-3.3418,-3.3418,-3.3418,-3.3418,-3.3418,-3.3418,-3.3437,-3.3887,-3.4316,-3.4726,-3.5195,-3.5644,-3.6016,-3.6016,-3.6016,-3.6016,-3.6016,-3.6016,-3.6016,-1.0046,-1.0406,-1.1664,-1.511,-1.5908,-1.713,-2.0485,-2.1042,-2.1056,-2.1096,-2.1109,-2.1109,-2.1109,-2.1109,-2.1109,-2.1109,-2.1109,-2.1109,-2.1109,-2.1109,-2.1109,-2.1109,-2.1109,-2.1109,-2.1109,-2.1109,-2.1109,-2.1109,-2.1109,-2.1853,-2.3201,-2.4655,-2.6106,-2.7692,-2.9176,-2.9903,-3.0157,-3.0392,-3.0528,-3.0528,-3.0762,-3.0898,-3.0898,-3.0898,-3.0898,-3.0898,-3.0898,-3.0898,-3.0898,-3.0898,-3.0898,-3.0898,-3.0898,-3.0898,-3.0898,-3.0898,-3.0898,-3.0898,-3.0898,-3.0898,-3.0898,-3.0898,-3.0898,-3.0898,-3.0898,-3.0898,-3.0898,-3.0898,-3.1172,-3.1426,-3.1426,-3.1738,-3.1992,-3.207,-3.207,-3.209,-3.2148,-3.2168,-3.2305,-3.2656,-3.2695,-3.2832,-3.3203,-3.3281,-3.332,-3.332,-3.3379,-3.3418,-3.3418,-3.3418,-3.3418,-3.3418,-3.3418,-3.3418,-3.3418,-3.3418,-3.3418,-3.3418,-3.3418,-3.3418,-3.3418,-3.3418,-3.3418,-3.3437,-3.3809,-3.4219,-3.4648,-3.5098,-3.5547,-3.5937,-3.5996,-3.6016,-3.6016,-3.6016,-3.6016,-3.6016,-1.0025,-1.117,-1.296,-1.5018,-1.6549,-1.8261,-2.0447,-2.0748,-2.0828,-2.1082,-2.1109,-2.1109,-2.1109,-2.1109,-2.1109,-2.1109,-2.1109,-2.1109,-2.1109,-2.1109,-2.1109,-2.1109,-2.1109,-2.1109,-2.1109,-2.1109,-2.1109,-2.1109,-2.1109,-2.1235,-2.1475,-2.1713,-2.2702,-2.4301,-2.4671,-2.5513,-2.6832,-2.817,-2.8783,-2.8902,-3.0274,-3.0898,-3.0898,-3.0898,-3.0898,-3.0898,-3.0898,-3.0898,-3.0898,-3.0898,-3.0898,-3.0898,-3.0898,-3.0898,-3.0898,-3.0898,-3.0898,-3.0898,-3.0898,-3.0898,-3.0898,-3.0898,-3.0898,-3.0898,-3.0898,-3.0898,-3.0898,-3.0898,-3.0937,-3.0996,-3.0996,-3.1035,-3.1211,-3.1562,-3.1621,-3.1758,-3.2109,-3.2168,-3.2187,-3.2266,-3.2266,-3.2285,-3.2363,-3.2676,-3.2891,-3.2891,-3.3223,-3.3418,-3.3418,-3.3418,-3.3418,-3.3418,-3.3418,-3.3418,-3.3418,-3.3418,-3.3418,-3.3418,-3.3418,-3.3418,-3.3418,-3.3418,-3.3418,-3.3418,-3.3496,-3.3769,-3.4199,-3.4629,-3.5078,-3.5527,-3.5879,-3.6016,-3.6016,-3.6016,-3.6016,-3.6016,-0.991,-1.053,-1.167,-1.356,-1.5197,-1.6997,-1.8877,-1.9924,-2.0548,-2.0842,-2.0869,-2.0935,-2.1096,-2.1109,-2.1109,-2.1109,-2.1109,-2.1109,-2.1109,-2.1109,-2.1109,-2.1109,-2.1109,-2.1109,-2.1109,-2.1109,-2.1109,-2.1109,-2.1109,-2.1109,-2.1109,-2.1964,-2.2841,-2.3698,-2.4532,-2.5741,-2.7314,-2.8051,-2.892,-2.9785,-3.0645,-3.0898,-3.0898,-3.0898,-3.0898,-3.0898,-3.0898,-3.0898,-3.0898,-3.0898,-3.0898,-3.0898,-3.0898,-3.0898,-3.0898,-3.0898,-3.0898,-3.0898,-3.0898,-3.0898,-3.0898,-3.0898,-3.0898,-3.0898,-3.0898,-3.0898,-3.0898,-3.0898,-3.0898,-3.0898,-3.0898,-3.0898,-3.0957,-3.1152,-3.1191,-3.125,-3.1445,-3.1484,-3.1562,-3.1797,-3.1816,-3.1914,-3.2148,-3.2344,-3.2461,-3.2461,-3.2851,-3.3086,-3.3086,-3.3301,-3.3418,-3.3418,-3.3418,-3.3418,-3.3418,-3.3418,-3.3418,-3.3418,-3.3418,-3.3418,-3.3418,-3.3418,-3.3418,-3.3418,-3.3418,-3.3672,-3.4101,-3.4531,-3.498,-3.543,-3.5859,-3.6016,-3.6016,-3.6016,-3.6016,-3.6016,-0.9822,-0.9822,-1.0336,-1.2159,-1.3882,-1.5529,-1.7486,-1.914,-2.0241,-2.0535,-2.0575,-2.0681,-2.0975,-2.1002,-2.1042,-2.1096,-2.1109,-2.1109,-2.1109,-2.1109,-2.1109,-2.1109,-2.1109,-2.1109,-2.1109,-2.1109,-2.1109,-2.1109,-2.1109,-2.1109,-2.1109,-2.2466,-2.2966,-2.3076,-2.4286,-2.5497,-2.6712,-2.7091,-2.8068,-2.9294,-2.9667,-3.002,-3.0274,-3.0274,-3.0528,-3.0898,-3.0898,-3.0898,-3.0898,-3.0898,-3.0898,-3.0898,-3.0898,-3.0898,-3.0898,-3.0898,-3.0898,-3.0898,-3.0898,-3.0898,-3.0898,-3.0898,-3.0898,-3.0898,-3.0898,-3.0898,-3.0898,-3.0898,-3.0898,-3.0898,-3.0898,-3.0898,-3.0898,-3.0898,-3.0898,-3.0898,-3.0898,-3.0898,-3.1016,-3.1328,-3.1367,-3.1504,-3.1836,-3.1953,-3.2012,-3.2012,-3.2402,-3.2695,-3.2793,-3.3105,-3.332,-3.3418,-3.3418,-3.3418,-3.3418,-3.3418,-3.3418,-3.3418,-3.3418,-3.3418,-3.3418,-3.3418,-3.3418,-3.3418,-3.3418,-3.3613,-3.3945,-3.4375,-3.4824,-3.5273,-3.5703,-3.5937,-3.6016,-3.6016,-3.6016,-3.6016,-0.9822,-0.9822,-1.0301,-1.1993,-1.3555,-1.5298,-1.7097,-1.8847,-1.9933,-2.0227,-2.0267,-2.0374,-2.0681,-2.0708,-2.0815,-2.1082,-2.1109,-2.1109,-2.1109,-2.1109,-2.1109,-2.1109,-2.1109,-2.1109,-2.1109,-2.1109,-2.1109,-2.1109,-2.1109,-2.1109,-2.1109,-2.1235,-2.1235,-2.1235,-2.1348,-2.1475,-2.1713,-2.3325,-2.4054,-2.4301,-2.5741,-2.7194,-2.8545,-2.8545,-2.953,-3.0898,-3.0898,-3.0898,-3.0898,-3.0898,-3.0898,-3.0898,-3.0898,-3.0898,-3.0898,-3.0898,-3.0898,-3.0898,-3.0898,-3.0898,-3.0898,-3.0898,-3.0898,-3.0898,-3.0898,-3.0898,-3.0898,-3.0898,-3.0898,-3.0898,-3.0898,-3.0898,-3.0898,-3.0898,-3.0898,-3.0898,-3.0898,-3.0898,-3.0898,-3.0937,-3.0937,-3.0957,-3.0976,-3.1328,-3.1562,-3.1562,-3.1973,-3.2383,-3.2773,-3.2832,-3.3008,-3.3418,-3.3418,-3.3418,-3.3418,-3.3418,-3.3418,-3.3418,-3.3418,-3.3418,-3.3418,-3.3418,-3.3418,-3.3418,-3.3418,-3.3437,-3.3496,-3.3945,-3.4375,-3.4805,-3.5254,-3.5684,-3.6016,-3.6016,-3.6016,-3.6016,-0.9802,-0.9822,-1.0301,-1.1976,-1.3526,-1.5224,-1.6854,-1.8555,-1.9639,-1.992,-1.996,-2.008,-2.0374,-2.0401,-2.0441,-2.0548,-2.0735,-2.0842,-2.0842,-2.1002,-2.1109,-2.1109,-2.1109,-2.1109,-2.1109,-2.1109,-2.1109,-2.1109,-2.1109,-2.1109,-2.1109,-2.1109,-2.1109,-2.1109,-2.1109,-2.1727,-2.2716,-2.3325,-2.4178,-2.513,-2.5741,-2.6349,-2.6953,-2.6953,-2.7331,-2.7931,-2.9039,-2.8664,-2.8188,-3.0157,-3.0274,-2.953,-3.0528,-3.0898,-3.0898,-3.0898,-3.0898,-3.0898,-3.0898,-3.0898,-3.0898,-3.0898,-3.0898,-3.0898,-3.0898,-3.0898,-3.0898,-3.0898,-3.0898,-3.0898,-3.0898,-3.0898,-3.0898,-3.0898,-3.0898,-3.0898,-3.0898,-3.0898,-3.0898,-3.0898,-3.0898,-3.0898,-3.0898,-3.1035,-3.1133,-3.1133,-3.1523,-3.1836,-3.1992,-3.25,-3.2988,-3.3418,-3.3418,-3.3418,-3.3418,-3.3418,-3.3418,-3.3418,-3.3418,-3.3418,-3.3418,-3.3418,-3.3418,-3.3418,-3.3418,-3.3418,-3.3457,-3.3887,-3.416,-3.4375,-3.5117,-3.5488,-3.5664,-3.5918,-3.6016,-3.6016,-0.9727,-0.9754,-1.013,-1.1246,-1.3168,-1.4955,-1.602,-1.8052,-1.9439,-1.9639,-1.9666,-1.9773,-2.0067,-2.0094,-2.0134,-2.0227,-2.0414,-2.0535,-2.0535,-2.0815,-2.1015,-2.1109,-2.1109,-2.1109,-2.1109,-2.1109,-2.1109,-2.1109,-2.1109,-2.1109,-2.1109,-2.1109,-2.1109,-2.1109,-2.1109,-2.1727,-2.2841,-2.2841,-2.3435,-2.4517,-2.4517,-2.4763,-2.5253,-2.5253,-2.5863,-2.6953,-2.8051,-2.8051,-2.7931,-3.0157,-3.0157,-2.9412,-3.0528,-3.0898,-3.0898,-3.0898,-3.0898,-3.0898,-3.0898,-3.0898,-3.0898,-3.0898,-3.0898,-3.0898,-3.0898,-3.0898,-3.0898,-3.0898,-3.0898,-3.0898,-3.0898,-3.0898,-3.0898,-3.0898,-3.0898,-3.0898,-3.0898,-3.0898,-3.0898,-3.0898,-3.0898,-3.0898,-3.0898,-3.0898,-3.0898,-3.0898,-3.1152,-3.1387,-3.1504,-3.2324,-3.293,-3.3223,-3.3359,-3.3418,-3.3418,-3.3418,-3.3418,-3.3418,-3.3418,-3.3418,-3.3418,-3.3418,-3.3418,-3.3418,-3.3418,-3.3418,-3.3437,-3.375,-3.3945,-3.4141,-3.4883,-3.5273,-3.5449,-3.5859,-3.6016,-3.6016,-0.9578,-0.9605,-0.9652,-0.9795,-1.2449,-1.4599,-1.4599,-1.7337,-1.9372,-1.9372,-1.9372,-1.9479,-1.976,-1.98,-1.9907,-2.0201,-2.0227,-2.0227,-2.0227,-2.0508,-2.0802,-2.1096,-2.1109,-2.1109,-2.1109,-2.1109,-2.1109,-2.1109,-2.1109,-2.1109,-2.1109,-2.1109,-2.1109,-2.1109,-2.1109,-2.1109,-2.1109,-2.1109,-2.1109,-2.1109,-2.1109,-2.209,-2.3574,-2.3574,-2.5513,-2.8307,-2.8426,-2.9412,-3.0879,-3.0879,-3.0879,-3.0898,-3.0898,-3.0898,-3.0898,-3.0898,-3.0898,-3.0898,-3.0898,-3.0898,-3.0898,-3.0898,-3.0898,-3.0898,-3.0898,-3.0898,-3.0898,-3.0898,-3.0898,-3.0898,-3.0898,-3.0898,-3.0898,-3.0898,-3.0898,-3.0898,-3.0898,-3.0898,-3.0898,-3.0898,-3.0898,-3.0898,-3.0898,-3.0898,-3.0898,-3.0898,-3.0898,-3.1074,-3.1504,-3.2324,-3.2793,-3.2793,-3.3203,-3.3418,-3.3418,-3.3418,-3.3418,-3.3418,-3.3418,-3.3418,-3.3418,-3.3418,-3.3418,-3.3418,-3.3418,-3.3418,-3.3418,-3.3418,-3.3672,-3.4101,-3.4531,-3.498,-3.543,-3.5859,-3.6016,-3.6016,-0.9422,-0.9449,-0.9842,-1.1161,-1.2132,-1.3594,-1.5869,-1.7091,-1.8169,-1.9243,-1.9372,-1.9399,-1.9492,-1.9492,-1.9533,-1.9626,-1.9813,-2.0013,-2.0214,-2.0307,-2.0401,-2.0494,-2.0895,-2.1109,-2.1109,-2.1109,-2.1109,-2.1109,-2.1109,-2.1109,-2.1109,-2.1109,-2.1109,-2.1109,-2.1109,-2.1109,-2.1109,-2.1109,-2.1109,-2.1109,-2.1109,-2.1362,-2.1853,-2.1853,-2.2466,-2.3435,-2.4655,-2.4532,-2.4409,-2.6712,-2.6729,-2.6001,-2.7091,-2.7452,-2.7692,-2.8783,-2.9157,-2.9412,-3.0528,-3.0898,-3.0898,-3.0898,-3.0898,-3.0898,-3.0898,-3.0898,-3.0898,-3.0898,-3.0898,-3.0898,-3.0898,-3.0898,-3.0898,-3.0898,-3.0898,-3.0898,-3.0898,-3.0898,-3.0898,-3.0898,-3.0898,-3.0898,-3.0898,-3.0898,-3.0898,-3.0898,-3.0898,-3.1074,-3.1504,-3.1758,-3.2168,-3.2773,-3.291,-3.3125,-3.3418,-3.3418,-3.3418,-3.3418,-3.3418,-3.3418,-3.3418,-3.3418,-3.3418,-3.3418,-3.3418,-3.3418,-3.3418,-3.3418,-3.3496,-3.3691,-3.4414,-3.4785,-3.5,-3.5742,-3.6016,-3.6016,-0.9259,-0.9293,-0.968,-1.0755,-1.1536,-1.2903,-1.562,-1.6552,-1.7572,-1.9243,-1.9372,-1.9372,-1.9372,-1.9372,-1.9372,-1.9372,-1.9533,-1.9706,-1.988,-2.0,-2.0067,-2.0067,-2.0508,-2.0815,-2.0935,-2.0935,-2.0989,-2.1109,-2.1109,-2.1109,-2.1109,-2.1109,-2.1109,-2.1109,-2.1109,-2.1109,-2.1109,-2.1109,-2.1109,-2.1109,-2.1109,-2.1109,-2.1109,-2.1109,-2.1475,-2.2215,-2.3201,-2.3325,-2.3311,-2.5375,-2.5375,-2.4778,-2.5741,-2.5984,-2.6349,-2.7931,-2.7931,-2.7811,-2.9412,-2.9903,-2.9903,-2.9903,-3.0392,-3.0898,-3.0898,-3.0898,-3.0898,-3.0898,-3.0898,-3.0898,-3.0898,-3.0898,-3.0898,-3.0898,-3.0898,-3.0898,-3.0898,-3.0898,-3.0898,-3.0898,-3.0898,-3.0898,-3.0898,-3.0898,-3.0898,-3.0898,-3.0898,-3.0996,-3.125,-3.1426,-3.1758,-3.2266,-3.2617,-3.291,-3.3164,-3.334,-3.3418,-3.3418,-3.3418,-3.3418,-3.3418,-3.3418,-3.3418,-3.3418,-3.3418,-3.3418,-3.3418,-3.3418,-3.3418,-3.3496,-3.418,-3.4551,-3.4785,-3.5508,-3.5879,-3.6016,-0.911,-0.913,-0.9184,-0.9334,-1.0856,-1.2471,-1.4119,-1.5832,-1.7523,-1.9087,-1.9359,-1.9372,-1.9372,-1.9372,-1.9372,-1.9372,-1.9372,-1.9372,-1.9372,-1.9613,-1.976,-1.976,-2.0013,-2.0294,-2.0588,-2.0628,-2.0762,-2.1029,-2.1029,-2.1042,-2.1069,-2.1069,-2.1082,-2.1109,-2.1109,-2.1109,-2.1109,-2.1109,-2.1109,-2.1109,-2.1109,-2.1109,-2.1109,-2.1109,-2.209,-2.3325,-2.3325,-2.4286,-2.5619,-2.5619,-2.5619,-2.5619,-2.5619,-2.5619,-2.5863,-2.7452,-2.7073,-2.6349,-2.7931,-2.8545,-2.8664,-2.8664,-2.9785,-3.0898,-3.0898,-3.0898,-3.0898,-3.0898,-3.0898,-3.0898,-3.0898,-3.0898,-3.0898,-3.0898,-3.0898,-3.0898,-3.0898,-3.0898,-3.0898,-3.0898,-3.0898,-3.0898,-3.0898,-3.0898,-3.0898,-3.0898,-3.0898,-3.0898,-3.0898,-3.125,-3.1484,-3.1523,-3.2305,-3.2754,-3.2793,-3.3203,-3.3418,-3.3418,-3.3418,-3.3418,-3.3418,-3.3418,-3.3418,-3.3418,-3.3418,-3.3418,-3.3418,-3.3418,-3.3418,-3.3457,-3.3906,-3.4336,-3.4766,-3.5215,-3.5664,-3.6016,-0.8981,-0.8988,-0.9028,-0.9178,-1.0462,-1.1994,-1.3744,-1.5462,-1.7141,-1.8783,-1.9225,-1.9372,-1.9372,-1.9372,-1.9372,-1.9372,-1.9372,-1.9372,-1.9372,-1.9426,-1.9466,-1.9466,-1.9519,-1.9693,-1.9987,-2.0214,-2.0361,-2.0428,-2.0428,-2.0535,-2.0775,-2.0775,-2.0895,-2.1109,-2.1109,-2.1109,-2.1109,-2.1109,-2.1109,-2.1109,-2.1109,-2.1109,-2.1109,-2.1109,-2.1362,-2.1601,-2.1601,-2.1839,-2.2215,-2.2215,-2.2215,-2.2215,-2.2215,-2.2215,-2.2452,-2.4178,-2.5269,-2.6349,-2.7931,-2.9412,-3.0392,-3.0392,-3.0645,-3.0898,-3.0898,-3.0898,-3.0898,-3.0898,-3.0898,-3.0898,-3.0898,-3.0898,-3.0898,-3.0898,-3.0898,-3.0898,-3.0898,-3.0898,-3.0898,-3.0898,-3.0898,-3.0898,-3.0898,-3.0898,-3.0898,-3.0898,-3.0898,-3.0898,-3.0898,-3.0976,-3.1172,-3.1504,-3.2031,-3.2461,-3.2793,-3.3203,-3.3418,-3.3418,-3.3418,-3.3418,-3.3418,-3.3418,-3.3418,-3.3418,-3.3418,-3.3418,-3.3418,-3.3418,-3.3418,-3.3457,-3.3906,-3.4336,-3.4766,-3.5215,-3.5664,-3.6016,-0.894,-0.894,-0.896,-0.9035,-0.9771,-1.1077,-1.3414,-1.4643,-1.6057,-1.8367,-1.8971,-1.9158,-1.9158,-1.9279,-1.9372,-1.9372,-1.9372,-1.9372,-1.9372,-1.9372,-1.9372,-1.9372,-1.9372,-1.9439,-1.9586,-1.9746,-1.996,-2.0227,-2.0227,-2.0307,-2.0468,-2.0468,-2.0628,-2.0909,-2.0909,-2.0975,-2.1109,-2.1109,-2.1109,-2.1109,-2.1109,-2.1109,-2.1109,-2.1109,-2.1109,-2.1109,-2.1109,-2.1109,-2.1109,-2.1109,-2.1109,-2.1109,-2.1109,-2.1109,-2.1488,-2.3076,-2.3683,-2.4039,-2.5635,-2.6729,-2.7589,-2.8307,-2.9157,-2.9903,-3.0762,-3.0898,-3.0898,-3.0898,-3.0898,-3.0898,-3.0898,-3.0898,-3.0898,-3.0898,-3.0898,-3.0898,-3.0898,-3.0898,-3.0898,-3.0898,-3.0898,-3.0898,-3.0898,-3.0898,-3.0898,-3.0898,-3.0898,-3.0898,-3.0898,-3.0898,-3.0996,-3.1211,-3.1641,-3.207,-3.25,-3.291,-3.3223,-3.3418,-3.3418,-3.3418,-3.3418,-3.3418,-3.3418,-3.3418,-3.3418,-3.3418,-3.3418,-3.3418,-3.3418,-3.3437,-3.3672,-3.4141,-3.4726,-3.498,-3.5469,-3.6016,-0.894,-0.894,-0.894,-0.894,-0.9259,-1.0443,-1.3206,-1.3953,-1.5233,-1.8066,-1.8664,-1.8851,-1.8851,-1.9118,-1.9319,-1.9359,-1.9372,-1.9372,-1.9372,-1.9372,-1.9372,-1.9372,-1.9372,-1.9372,-1.9372,-1.9372,-1.9599,-2.008,-2.008,-2.0107,-2.016,-2.016,-2.0321,-2.0601,-2.0601,-2.0762,-2.1029,-2.1029,-2.1069,-2.1109,-2.1109,-2.1109,-2.1109,-2.1109,-2.1109,-2.1109,-2.1109,-2.1109,-2.1109,-2.1109,-2.1109,-2.1109,-2.1109,-2.1109,-2.1348,-2.2716,-2.2341,-2.1853,-2.3201,-2.3822,-2.4301,-2.5619,-2.6953,-2.8426,-3.0138,-3.0645,-3.0898,-3.0898,-3.0898,-3.0898,-3.0898,-3.0898,-3.0898,-3.0898,-3.0898,-3.0898,-3.0898,-3.0898,-3.0898,-3.0898,-3.0898,-3.0898,-3.0898,-3.0898,-3.0898,-3.0898,-3.0898,-3.0898,-3.0898,-3.0898,-3.0898,-3.0898,-3.1309,-3.1719,-3.2168,-3.2578,-3.3008,-3.3418,-3.3418,-3.3418,-3.3418,-3.3418,-3.3418,-3.3418,-3.3418,-3.3418,-3.3418,-3.3418,-3.3418,-3.3418,-3.3418,-3.3945,-3.4726,-3.4863,-3.5391,-3.6016,-0.894,-0.894,-0.894,-0.894,-0.9934,-1.1362,-1.3098,-1.4593,-1.6198,-1.7886,-1.837,-1.8544,-1.8544,-1.8811,-1.9092,-1.9345,-1.9372,-1.9372,-1.9372,-1.9372,-1.9372,-1.9372,-1.9372,-1.9372,-1.9372,-1.9372,-1.9412,-1.9479,-1.9479,-1.9613,-1.9853,-1.9853,-2.0013,-2.0294,-2.0294,-2.0454,-2.0735,-2.0735,-2.0882,-2.1109,-2.1109,-2.1109,-2.1109,-2.1109,-2.1109,-2.1109,-2.1109,-2.1109,-2.1109,-2.1109,-2.1109,-2.1109,-2.1109,-2.1109,-2.1109,-2.1348,-2.2341,-2.3325,-2.3574,-2.4655,-2.5741,-2.5984,-2.6106,-2.6712,-2.8426,-2.9903,-3.0898,-3.0898,-3.0898,-3.0898,-3.0898,-3.0898,-3.0898,-3.0898,-3.0898,-3.0898,-3.0898,-3.0898,-3.0898,-3.0898,-3.0898,-3.0898,-3.0898,-3.0898,-3.0898,-3.0898,-3.0898,-3.0898,-3.0898,-3.0898,-3.0898,-3.0898,-3.1309,-3.1719,-3.2168,-3.2578,-3.3008,-3.3418,-3.3418,-3.3418,-3.3418,-3.3418,-3.3418,-3.3418,-3.3418,-3.3418,-3.3418,-3.3418,-3.3418,-3.3418,-3.3418,-3.3945,-3.4785,-3.5566,-3.5918,-3.6016,-0.892,-0.894,-0.894,-0.894,-0.9478,-1.0351,-1.1864,-1.3454,-1.4939,-1.6365,-1.7495,-1.8237,-1.8237,-1.8651,-1.8971,-1.9105,-1.9265,-1.9372,-1.9372,-1.9372,-1.9372,-1.9372,-1.9372,-1.9372,-1.9372,-1.9372,-1.9372,-1.9372,-1.9372,-1.9439,-1.9559,-1.9559,-1.972,-1.9987,-1.9987,-2.016,-2.0428,-2.0428,-2.0601,-2.0869,-2.0869,-2.0962,-2.1109,-2.1109,-2.1109,-2.1109,-2.1109,-2.1109,-2.1109,-2.1109,-2.1109,-2.1109,-2.1109,-2.1109,-2.1109,-2.1109,-2.1601,-2.2215,-2.2215,-2.2702,-2.3435,-2.4409,-2.4655,-2.5024,-2.6712,-2.7692,-2.8683,-3.0528,-3.0898,-3.0898,-3.0898,-3.0898,-3.0898,-3.0898,-3.0898,-3.0898,-3.0898,-3.0898,-3.0898,-3.0898,-3.0898,-3.0898,-3.0898,-3.0898,-3.0898,-3.0898,-3.0898,-3.0898,-3.0898,-3.0898,-3.0898,-3.0898,-3.1074,-3.1484,-3.2168,-3.2344,-3.2773,-3.3418,-3.3418,-3.3418,-3.3418,-3.3418,-3.3418,-3.3418,-3.3418,-3.3418,-3.3418,-3.3418,-3.3418,-3.3418,-3.3418,-3.3945,-3.4805,-3.5684,-3.6016,-3.6152]},{"header":{"parameterUnit":"m.s-1","parameterCategory":1,"la1":30.6,"la2":28.766,"lo1":-90.7593,"lo2":-88.6598,"dy":0.0162,"dx":0.0183,"nx":116,"ny":114,"refTime":"2024-05-11T06:00:00:Z","depth":0,"parameterNumber":3,"parameterNumberName":"V-component_of_WINDS"},"data":[0.0,0.0,0.0,0.0,0.0,0.0,0.0,0.0,0.0,0.0,0.0,0.0,0.0,0.0,0.0,0.0,0.0,0.0,0.0,0.0,0.0,0.0,0.0,0.0,0.0,0.0,0.0,0.0,0.0,0.0,0.0,0.0,0.0,0.0,0.0,0.0,0.0,0.0,0.0,0.0,0.0,0.0,0.0,0.0,0.0,0.0,0.0,0.0,0.0,0.0,0.0,0.0,0.0,0.0,0.0,0.0,0.0,0.0,0.0,0.0,0.0,0.0,0.0,0.0,0.0,0.0,0.0,0.0,0.0,0.0,0.0,0.0,0.0,0.0,0.0,0.0,0.0,0.0,0.0,0.0,0.0,0.0,0.0,0.0,0.0,0.0,0.0,0.0,0.0,0.0,0.0,0.0,0.0,0.0,0.0,0.0,0.0,0.0,0.0,0.0,0.0,0.0,0.0,0.0,0.0,0.0,0.0,0.0,0.0,0.0,0.0,0.0,0.0,0.0,0.0,0.0,0.0,0.0,0.0,0.0,0.0,0.0,0.0,0.0,0.0,0.0,0.0,0.0,0.0,0.0,0.0,0.0,0.0,0.0,0.0,0.0,0.0,0.0,0.0,0.0,0.0,0.0,0.0,0.0,0.0,0.0,0.0,0.0,0.0,0.0,0.0,0.0,0.0,0.0,0.0,0.0,0.0,0.0,0.0,0.0,0.0,0.0,0.0,0.0,0.0,0.0,0.0,0.0,0.0,0.0,0.0,0.0,0.0,0.0,0.0,0.0,0.0,0.0,0.0,0.0,0.0,0.0,0.0,0.0,0.0,0.0,0.0,0.0,0.0,0.0,0.0,0.0,0.0,0.0,0.0,0.0,0.0,0.0,0.0,0.0,0.0,0.0,0.0,0.0,0.0,0.0,0.0,0.0,0.0,0.0,0.0,0.0,0.0,0.0,0.0,0.0,0.0,0.0,0.0,0.0,0.0,0.0,0.0,0.0,0.0,0.0,0.0,0.0,0.0,0.0,0.0,0.0,0.0,0.0,0.0,0.0,0.0,0.0,0.0,0.0,0.0,0.0,0.0,0.0,0.0,0.0,0.0,0.0,0.0,0.0,0.0,0.0,0.0,0.0,0.0,0.0,0.0,0.0,0.0,0.0,0.0,0.0,0.0,0.0,0.0,0.0,0.0,0.0,0.0,0.0,0.0,0.0,0.0,0.0,0.0,0.0,0.0,0.0,0.0,0.0,0.0,0.0,0.0,0.0,0.0,0.0,0.0,0.0,0.0,0.0,0.0,0.0,0.0,0.0,0.0,0.0,0.0,0.0,0.0,0.0,0.0,0.0,0.0,0.0,0.0,0.0,0.0,0.0,0.0,0.0,0.0,0.0,0.0,0.0,0.0,0.0,0.0,0.0,0.0,0.0,0.0,0.0,0.0,0.0,0.0,0.0,0.0,0.0,0.0,0.0,0.0,0.0,0.0,0.0,0.0,0.0,0.0,0.0,0.0,0.0,0.0,0.0,0.0,0.0,0.0,0.0,0.0,0.0,0.0,0.0,0.0,0.0,0.0,0.0,0.0,0.0,0.0,0.0,0.0,0.0,0.0,0.0,0.0,0.0,0.0,0.0,0.0,0.0,0.0,0.0,0.0,0.0,0.0,0.0,0.0,0.0,0.0,0.0,0.0,0.0,0.0,0.0,0.0,0.0,0.0,0.0,0.0,0.0,0.0,0.0,0.0,0.0,0.0,0.0,0.0,0.0,0.0,0.0,0.0,0.0,0.0,0.0,0.0,0.0,0.0,0.0,0.0,0.0,0.0,0.0,0.0,0.0,0.0,0.0,0.0,0.0,0.0,0.0,0.0,0.0,0.0,0.0,0.0,0.0,0.0,0.0,0.0,0.0,0.0,0.0,0.0,0.0,0.0,0.0,0.0,0.0,0.0,0.0,0.0,0.0,0.0,0.0,0.0,0.0,0.0,0.0,0.0,0.0,0.0,0.0,0.0,0.0,0.0,0.0,0.0,0.0,0.0,0.0,0.0,0.0,0.0,0.0,0.0,0.0,0.0,0.0,0.0,0.0,0.0,0.0,0.0,0.0,0.0,0.0,0.0,0.0,0.0,0.0,0.0,0.0,0.0,0.0,0.0,0.0,0.0,0.0,0.0,0.0,0.0,0.0,0.0,0.0,0.0,0.0,0.0,0.0,0.0,0.0,0.0,0.0,0.0,0.0,0.0,0.0,0.0,0.0,0.0,0.0,0.0,0.0,0.0,0.0,0.0,0.0,0.0,0.0,0.0,0.0,0.0,0.0,0.0,0.0,0.0,0.0,0.0,0.0,0.0,0.0,0.0,0.0,0.0,0.0,0.0,0.0,0.0,0.0,0.0,0.0,0.0,0.0,0.0,0.0,0.0,0.0,0.0,0.0,0.0,0.0,0.0,0.0,0.0,0.0,0.0,0.0,0.0,0.0,0.0,0.0,0.0,0.0,0.0,0.0,0.0,0.0,0.0,0.0,0.0,0.0,0.0,0.0,0.0,0.0,0.0,0.0,0.0,0.0,0.0,0.0,0.0,0.0,0.0,0.0,0.0,0.0,0.0,0.0,0.0,0.0,0.0,0.0,0.0,0.0,0.0,0.0,0.0,0.0,0.0,0.0,0.0,0.0,0.0,0.0,0.0,0.0,0.0,0.0,0.0,0.0,0.0,0.0,0.0,0.0,0.0,0.0,0.0,0.0,0.0,0.0,0.0,0.0,0.0,0.0,0.0,0.0,0.0,0.0,0.0,0.0,0.0,0.0,0.0,0.0,0.0,0.0,0.0,0.0,0.0,0.0,0.0,0.0,0.0,0.0,0.0,0.0,0.0,0.0,0.0,0.0,0.0,0.0,0.0,0.0,0.0,0.0,0.0,0.0,0.0,0.0,0.0,0.0,0.0,0.0,0.0,0.0,0.0,0.0,0.0,0.0,0.0,0.0,0.0,0.0,0.0,0.0,0.0,0.0,0.0,0.0,0.0,0.0,0.0,0.0,0.0,0.0,0.0,0.0,0.0,0.0,0.0,0.0,0.0,0.0,0.0,0.0,0.0,0.0,0.0,0.0,0.0,0.0,0.0,0.0,0.0,0.0,0.0,0.0,0.0,0.0,0.0,0.0,0.0,0.0,0.0,0.0,0.0,0.0,0.0,0.0,0.0,0.0,0.0,0.0,0.0,0.0,0.0,0.0,0.0,0.0,0.0,0.0,0.0,0.0,0.0,0.0,0.0,0.0,0.0,0.0,0.0,0.0,0.0,0.0,0.0,0.0,0.0,0.0,0.0,0.0,0.0,0.0,0.0,0.0,0.0,0.0,0.0,0.0,0.0,0.0,0.0,0.0,0.0,0.0,0.0,0.0,0.0,0.0,0.0,0.0,0.0,0.0,0.0,0.0,0.0,0.0,0.0,0.0,0.0,0.0,0.0,0.0,0.0,0.0,0.0,0.0,0.0,0.0,0.0,0.0,0.0,0.0,0.0,0.0,0.0,0.0,0.0,0.0,0.0,0.0,0.0,0.0,0.0,0.0,0.0,0.0,0.0,0.0,0.0,0.0,0.0,0.0,0.0,0.0,0.0,0.0,0.0,0.0,0.0,0.0,0.0,0.0,0.0,0.0,0.0,0.0,0.0,0.0,0.0,0.0,0.0,0.0,0.0,0.0,0.0,0.0,0.0,0.0,0.0,0.0,0.0,0.0,0.0,0.0,0.0,0.0,0.0,0.0,0.0,0.0,0.0,0.0,0.0,0.0,0.0,0.0,0.0,0.0,0.0,0.0,0.0,0.0,0.0,0.0,0.0,0.0,0.0,0.0,0.0,0.0,0.0,0.0,0.0,0.0,0.0,0.0,0.0,0.0,0.0,0.0,0.0,0.0,0.0,0.0,0.0,0.0,0.0,0.0,0.0,0.0,0.0,0.0,0.0,0.0,0.0,0.0,0.0,0.0,0.0,0.0,0.0,0.0,0.0,0.0,0.0,0.0,0.0,0.0,0.0,0.0,0.0,0.0,0.0,0.0,0.0,0.0,0.0,0.0,0.0,0.0,0.0,0.0,0.0,0.0,0.0,0.0,0.0,0.0,0.0,0.0,0.0,0.0,0.0,0.0,0.0,0.0,0.0,0.0,0.0,0.0,0.0,0.0,0.0,0.0,0.0,0.0,0.0,0.0,0.0,0.0,0.0,0.0,0.0,0.0,0.0,0.0,0.0,0.0,0.0,0.0,0.0,0.0,0.0,0.0,0.0,0.0,0.0,0.0,0.0,0.0,0.0,0.0,0.0,0.0,0.0,0.0,0.0,0.0,0.0,0.0,0.0,0.0,0.0,0.0,0.0,0.0,0.0,0.0,0.0,0.0,0.0,0.0,0.0,0.0,0.0,0.0,0.0,0.0,0.0,0.0,0.0,0.0,0.0,0.0,0.0,0.0,0.0,0.0,0.0,0.0,0.0,0.0,0.0,0.0,0.0,0.0,0.0,0.0,0.0,0.0,0.0,0.0,0.0,0.0,0.0,0.0,0.0,0.0,0.0,0.0,0.0,0.0,0.0,0.0,0.0,0.0,0.0,0.0,0.0,0.0,0.0,0.0,0.0,0.0,0.0,0.0,0.0,0.0,0.0,0.0,0.0,0.0,0.0,0.0,0.0,0.0,0.0,0.0,0.0,0.0,0.0,0.0,0.0,0.0,0.0,0.0,0.0,0.0,0.0,0.0,0.0,0.0,0.0,0.0,0.0,0.0,0.0,0.0,0.0,0.0,0.0,0.0,0.0,0.0,0.0,0.0,0.0,0.0,0.0,0.0,0.0,0.0,0.0,0.0,0.0,0.0,0.0,0.0,0.0,0.0,0.0,0.0,0.0,0.0,0.0,0.0,0.0,0.0,0.0,0.0,0.0,0.0,0.0,0.0,0.0,0.0,0.0,0.0,0.0,0.0,0.0,0.0,0.0,0.0,0.0,0.0,0.0,0.0,0.0,0.0,0.0,0.0,0.0,0.0,0.0,0.0,0.0,0.0,0.0,0.0,0.0,0.0,0.0,0.0,0.0,0.0,0.0,0.0,0.0,0.0,0.0,0.0,0.0,0.0,0.0,0.0,0.0,0.0,0.0,0.0,0.0,0.0,0.0,0.0,0.0,0.0,0.0,0.0,0.0,0.0,0.0,0.0,0.0,0.0,0.0,0.0,0.0,0.0,0.0,0.0,0.0,0.0,0.0,0.0,0.0,0.0,0.0,0.0,0.0,0.0,0.0,0.0,0.0,0.0,0.0,0.0,0.0,0.0,0.0,0.0,0.0,0.0,0.0,0.0,0.0,0.0,0.0,0.0,0.0,0.0,0.0,0.0,0.0,0.0,0.0,0.0,0.0,0.0,0.0,0.0,0.0,0.0,0.0,0.0,0.0,0.0,0.0,0.0,0.0,0.0,0.0,0.0,0.0,0.0,0.0,0.0,0.0,0.0,0.0,0.0,0.0,0.0,0.0,0.0,0.0,0.0,0.0,0.0,0.0,0.0,0.0,0.0,0.0,0.0,0.0,0.0,0.0,0.0,0.0,0.0,0.0,0.0,0.0,0.0,0.0,0.0,0.0,0.0,0.0,0.0,0.0,0.0,0.0,0.0,0.0,0.0,0.0,0.0,0.0,0.0,0.0,0.0,0.0,0.0,0.0,0.0,0.0,0.0,0.0,0.0,0.0,0.0,0.0,0.0,0.0,0.0,0.0,0.0,0.0,0.0,0.0,0.0,0.0,0.0,0.0,0.0,0.0,0.0,0.0,0.0,0.0,0.0,0.0,0.0,0.0,0.0,0.0,0.0,0.0,0.0,0.0,0.0,0.0,0.0,0.0,0.0,0.0,0.0,0.0,0.0,0.0,0.0,0.0,0.0,0.0,0.0,0.0,0.0,0.0,0.0,0.0,0.0,0.0,0.0,0.0,0.0,0.0,0.0,0.0,0.0,0.0,0.0,0.0,0.0,0.0,0.0,0.0,0.0,0.0,0.0,0.0,0.0,0.0,0.0,0.0,0.0,0.0,0.0,0.0,0.0,0.0,0.0,0.0,0.0,0.0,0.0,0.0,0.0,0.0,0.0,0.0,0.0,-5.4988,-5.5179,0.0,0.0,0.0,0.0,0.0,0.0,0.0,0.0,0.0,0.0,0.0,0.0,0.0,0.0,0.0,0.0,0.0,0.0,0.0,0.0,0.0,0.0,0.0,-6.1719,-6.1719,-6.1719,-6.1719,-6.1719,-6.1719,0.0,0.0,0.0,0.0,0.0,-6.1719,-6.1719,-6.168,-6.1601,-6.1541,-6.1399,-6.1151,-6.1151,-6.105,-6.0896,0.0,0.0,0.0,0.0,0.0,0.0,0.0,0.0,0.0,0.0,0.0,0.0,0.0,0.0,0.0,0.0,0.0,0.0,0.0,0.0,0.0,0.0,0.0,0.0,0.0,0.0,0.0,0.0,0.0,0.0,0.0,0.0,0.0,0.0,0.0,0.0,0.0,0.0,0.0,0.0,0.0,0.0,0.0,0.0,0.0,0.0,0.0,0.0,0.0,0.0,0.0,0.0,0.0,0.0,0.0,0.0,0.0,0.0,0.0,0.0,0.0,0.0,0.0,0.0,0.0,0.0,0.0,0.0,0.0,0.0,-5.4988,-5.5179,0.0,0.0,0.0,0.0,0.0,0.0,0.0,0.0,0.0,0.0,0.0,0.0,0.0,0.0,0.0,0.0,0.0,0.0,0.0,0.0,0.0,-6.1719,-6.1719,-6.1719,-6.1719,-6.1719,-6.1719,-6.1719,-6.1719,-6.1719,0.0,0.0,0.0,-6.1719,-6.1719,-6.1719,-6.1637,-6.1495,-6.1419,-6.1266,-6.0935,-6.0858,-6.0781,-6.0781,-6.0781,0.0,0.0,0.0,0.0,0.0,0.0,0.0,0.0,0.0,0.0,0.0,0.0,0.0,0.0,0.0,0.0,0.0,0.0,0.0,0.0,0.0,0.0,0.0,0.0,0.0,0.0,0.0,0.0,0.0,0.0,0.0,0.0,0.0,0.0,0.0,0.0,0.0,0.0,0.0,0.0,0.0,0.0,0.0,0.0,0.0,0.0,0.0,0.0,0.0,0.0,0.0,0.0,0.0,0.0,0.0,0.0,0.0,0.0,0.0,0.0,0.0,0.0,0.0,-5.5051,-5.4698,-5.4399,-5.4929,-5.5179,-5.5179,-5.5179,-5.5179,-5.5209,-5.5842,0.0,0.0,0.0,0.0,0.0,0.0,0.0,0.0,0.0,0.0,0.0,0.0,0.0,0.0,0.0,0.0,0.0,0.0,0.0,-6.1719,-6.1719,-6.1719,-6.1719,-6.1719,-6.1719,-6.1719,-6.1719,-6.1719,-6.1719,-6.1719,-6.1719,-6.1719,-6.1719,-6.1719,-6.1641,-6.1484,-6.1219,-6.0973,-6.0819,-6.0819,-6.0781,-6.0781,-6.0781,-6.0781,-6.0781,0.0,0.0,0.0,0.0,0.0,0.0,0.0,0.0,0.0,0.0,0.0,0.0,0.0,0.0,0.0,0.0,0.0,0.0,0.0,0.0,0.0,0.0,0.0,0.0,0.0,0.0,0.0,0.0,0.0,0.0,0.0,0.0,0.0,0.0,0.0,0.0,0.0,0.0,0.0,0.0,0.0,-5.7474,-5.6045,0.0,0.0,0.0,0.0,0.0,0.0,0.0,0.0,0.0,0.0,0.0,0.0,0.0,-5.7471,-5.6438,-5.6303,-5.5726,-5.4696,-5.4849,-5.4911,-5.4869,-5.5119,-5.5179,-5.5179,-5.5179,0.0,-5.5209,-5.5239,0.0,0.0,0.0,0.0,0.0,0.0,0.0,0.0,0.0,0.0,0.0,0.0,0.0,0.0,0.0,0.0,0.0,0.0,0.0,0.0,0.0,-6.1719,-6.1719,-6.1719,-6.1719,-6.1719,-6.1719,-6.1719,-6.1719,-6.1719,-6.1719,-6.1719,-6.1719,-6.164,-6.1463,-6.1228,-6.0973,-6.0858,-6.0781,-6.0781,-6.0781,-6.0781,-6.0781,-6.0781,-6.0781,-6.0781,0.0,0.0,0.0,0.0,0.0,0.0,0.0,0.0,0.0,0.0,0.0,0.0,0.0,0.0,0.0,0.0,0.0,0.0,0.0,0.0,0.0,0.0,0.0,0.0,0.0,0.0,0.0,0.0,0.0,0.0,0.0,0.0,0.0,0.0,0.0,0.0,0.0,0.0,0.0,-5.7997,-5.7437,-5.5898,-5.5731,-5.5144,0.0,0.0,0.0,0.0,0.0,0.0,0.0,0.0,0.0,-5.7881,-5.7881,-5.733,-5.6197,-5.562,-5.4781,-5.3617,-5.3526,-5.3561,-5.3959,-5.4428,-5.4869,-5.5179,-5.5179,-5.5179,-5.5179,-5.5179,-5.5711,-5.6617,0.0,0.0,0.0,0.0,-5.8811,-5.9099,0.0,0.0,0.0,0.0,0.0,0.0,0.0,0.0,0.0,0.0,0.0,0.0,-6.1719,-6.1719,-6.1719,-6.1719,-6.1719,-6.1719,-6.1719,-6.1719,-6.1719,-6.1719,-6.1719,-6.168,-6.164,-6.146,-6.125,-6.0973,-6.0858,-6.0781,-6.0781,-6.0781,-6.0781,-6.0781,-6.0781,-6.0781,-6.0781,-6.0647,-6.0622,-6.0597,0.0,0.0,0.0,0.0,0.0,0.0,0.0,0.0,0.0,0.0,0.0,0.0,0.0,0.0,0.0,0.0,0.0,0.0,0.0,0.0,0.0,0.0,0.0,0.0,0.0,0.0,0.0,0.0,0.0,0.0,0.0,0.0,0.0,0.0,0.0,0.0,0.0,-5.7997,-5.7437,-5.5898,-5.5731,-5.5144,0.0,0.0,0.0,0.0,0.0,0.0,-5.5689,-5.6224,-5.6954,-5.7881,-5.7606,-5.6954,-5.5822,-5.4735,-5.3586,-5.242,-5.2329,-5.2522,-5.3228,-5.3882,-5.4518,-5.5179,-5.5179,-5.5179,-5.5179,-5.5179,-5.5621,-5.6173,-5.6153,-5.703,-5.8141,-5.8089,-5.8554,-5.9099,0.0,0.0,0.0,0.0,0.0,0.0,0.0,0.0,0.0,0.0,0.0,-6.1719,-6.1719,-6.1719,-6.1719,-6.1719,-6.1719,-6.1719,-6.1719,-6.1719,-6.1719,-6.1719,-6.1719,-6.164,-6.1523,-6.1196,-6.1004,-6.0973,-6.0858,-6.0781,-6.0781,-6.0781,-6.0781,-6.0781,-6.0781,-6.0781,-6.0757,-6.0338,-6.0132,-6.0074,-5.9139,0.0,0.0,0.0,0.0,0.0,0.0,0.0,0.0,0.0,0.0,0.0,0.0,0.0,0.0,0.0,0.0,0.0,0.0,0.0,0.0,0.0,0.0,0.0,0.0,0.0,0.0,0.0,0.0,0.0,0.0,0.0,0.0,0.0,0.0,0.0,0.0,0.0,0.0,-5.5898,-5.5731,0.0,0.0,0.0,0.0,-5.3518,-5.3518,-5.4161,-5.5654,-5.5744,-5.6404,-5.7848,-5.6886,-5.5789,-5.4728,-5.3545,-5.2389,-5.1259,-5.1931,-5.251,-5.3183,-5.3853,-5.4518,-5.5179,-5.5179,-5.5179,-5.5179,-5.5179,-5.5621,-5.6184,-5.6244,-5.693,-5.8156,-5.8141,-5.8554,-5.9099,0.0,0.0,0.0,0.0,0.0,-6.1719,-6.1719,-6.1719,-6.1719,-6.1719,-6.1719,-6.1719,-6.1719,-6.1719,-6.1719,-6.1719,-6.1719,-6.1719,-6.1719,-6.1719,-6.1719,-6.1719,-6.1172,-6.0744,-6.0561,-6.0846,-6.0935,-6.0858,-6.0819,-6.0781,-6.0781,-6.0781,-6.0781,-6.0781,-6.0781,-6.0781,-6.0757,-6.0311,-6.0103,-6.0006,-5.9103,-5.8713,0.0,0.0,0.0,0.0,0.0,0.0,0.0,0.0,0.0,0.0,0.0,0.0,0.0,0.0,0.0,0.0,0.0,0.0,0.0,0.0,0.0,0.0,0.0,0.0,0.0,0.0,0.0,0.0,0.0,0.0,0.0,0.0,0.0,0.0,0.0,0.0,0.0,-5.5816,-5.5262,0.0,-5.3585,-5.3518,-5.3518,-5.3518,-5.3518,-5.3957,-5.4941,-5.5437,-5.6163,-5.7195,-5.7263,-5.6713,-5.5643,-5.4543,-5.3401,-5.2329,-5.1747,-5.2145,-5.3216,-5.3456,-5.4179,-5.5179,-5.5179,-5.5179,-5.5179,-5.5179,-5.537,-5.5591,-5.5591,-5.6375,-5.7466,-5.7434,-5.8129,-5.9099,0.0,0.0,0.0,-6.1719,-6.1719,-6.1719,-6.1719,-6.1719,-6.1719,-6.1719,-6.1719,-6.1719,-6.1719,-6.1719,-6.1719,-6.1719,-6.1719,-6.1719,-6.1719,-6.1406,-6.125,-6.125,-6.0625,-6.0137,-5.9935,-6.0319,-6.0319,-5.995,-5.9958,-5.9958,-5.9973,-5.9935,-5.9935,-5.9973,-5.9973,-5.9973,-5.9911,-5.9293,-5.9323,-5.9792,-5.8835,-5.8461,-5.8418,0.0,0.0,0.0,0.0,0.0,0.0,0.0,0.0,0.0,0.0,0.0,0.0,0.0,0.0,0.0,0.0,0.0,0.0,0.0,0.0,0.0,0.0,0.0,0.0,0.0,0.0,0.0,0.0,0.0,0.0,0.0,0.0,0.0,0.0,-5.7354,-5.6624,-5.5793,-5.5069,-5.433,-5.3551,-5.3518,-5.3518,-5.3518,-5.3518,-5.3822,-5.4567,-5.531,-5.6044,-5.6746,-5.7161,-5.6779,-5.5684,-5.4522,-5.3454,-5.2359,-5.1533,-5.19,-5.3186,-5.3238,-5.3959,-5.5179,-5.5179,-5.5179,-5.5179,-5.5179,-5.5179,-5.5179,-5.5179,-5.5872,-5.6798,-5.706,-5.7813,-5.8811,0.0,-6.1719,-6.1719,-6.1719,-6.1719,-6.1719,-6.1719,-6.1719,-6.1719,-6.1719,-6.1719,-6.1719,-6.1719,-6.1719,-6.1719,-6.1719,-6.1719,-6.168,-6.164,-6.0859,-6.039,-6.0351,-6.0116,-5.9935,-5.9781,-5.9565,-5.9081,-5.8289,-5.8303,-5.8286,-5.8319,-5.8303,-5.8303,-5.8319,-5.8319,-5.8319,-5.8235,-5.7317,-5.7842,-5.9244,-5.8338,-5.796,-5.796,0.0,0.0,0.0,0.0,0.0,0.0,0.0,0.0,0.0,0.0,0.0,0.0,0.0,0.0,0.0,0.0,0.0,0.0,0.0,0.0,0.0,0.0,0.0,0.0,0.0,0.0,0.0,0.0,0.0,0.0,0.0,0.0,0.0,-5.7997,-5.7354,-5.6572,-5.5781,-5.5076,-5.433,-5.3551,-5.3518,-5.3518,-5.3518,-5.3518,-5.3822,-5.4567,-5.5247,-5.6029,-5.6713,-5.6404,-5.5682,-5.4695,-5.3493,-5.2365,-5.1259,-5.1229,-5.19,-5.3186,-5.3208,-5.3929,-5.5179,-5.5179,-5.5179,-5.5179,-5.5179,-5.5179,-5.5179,-5.5179,-5.5621,-5.6263,-5.6835,-5.7527,-5.8267,-6.1719,-6.1719,-6.1719,-6.1719,-6.1719,-6.1719,-6.1719,-6.1719,-6.1719,-6.1719,-6.1719,-6.1719,-6.1719,-6.1719,-6.1719,-6.1719,-6.1719,-6.1445,-6.0781,-6.0547,-6.0078,-5.9336,-5.9677,-5.9534,-5.8889,-5.8726,-5.8517,-5.8286,-5.8308,-5.8308,-5.8303,-5.8303,-5.8303,-5.8319,-5.8319,-5.8319,-5.8258,-5.7652,-5.768,-5.8015,-5.739,-5.7152,-5.7189,0.0,0.0,0.0,0.0,0.0,0.0,0.0,0.0,0.0,0.0,0.0,0.0,0.0,0.0,0.0,0.0,0.0,0.0,0.0,0.0,0.0,0.0,0.0,0.0,0.0,0.0,0.0,0.0,0.0,0.0,0.0,-5.7997,-5.7997,-5.7997,-5.7354,-5.6572,-5.5781,-5.5076,-5.433,-5.3551,-5.3518,-5.3518,-5.3518,-5.3518,-5.3585,-5.3788,-5.4975,-5.5756,-5.6029,-5.613,-5.6096,-5.5789,-5.3847,-5.276,-5.242,-5.1626,-5.1656,-5.248,-5.2991,-5.371,-5.4488,-5.4958,-5.5179,-5.5179,-5.5179,-5.5179,-5.5179,-5.5179,-5.5621,-5.6274,-5.6937,-5.7798,-5.8841,-6.1719,-6.1719,-6.1719,-6.1719,-6.1719,-6.1719,-6.1719,-6.1719,-6.1719,-6.1719,-6.1719,-6.1719,-6.1719,-6.1719,-6.1719,-6.1719,-6.1367,-6.0937,-6.043,-6.0,-5.9478,-5.8822,-5.9088,-5.8812,-5.7873,-5.7824,-5.7576,-5.7208,-5.7208,-5.7208,-5.7225,-5.7225,-5.7225,-5.7203,-5.7203,-5.7203,-5.7181,-5.6728,-5.6529,-5.6549,-5.6405,-5.6543,-5.6915,-5.736,-5.7933,-5.8465,-5.8465,-5.8839,-5.9432,-5.9694,0.0,0.0,0.0,0.0,0.0,0.0,0.0,0.0,0.0,0.0,0.0,0.0,0.0,0.0,0.0,0.0,0.0,0.0,0.0,0.0,0.0,0.0,0.0,0.0,-5.7997,-5.7997,-5.7997,-5.7354,-5.6563,-5.5822,-5.5046,-5.433,-5.3551,-5.3518,-5.3518,-5.3518,-5.3518,-5.3518,-5.3518,-5.4601,-5.5381,-5.5722,-5.6163,-5.6345,-5.6206,-5.4532,-5.3371,-5.288,-5.1717,-5.1533,-5.2205,-5.2875,-5.3605,-5.4238,-5.4929,-5.5179,-5.5179,-5.5179,-5.5179,-5.5179,0.0,0.0,0.0,0.0,-5.8008,-5.9099,-6.1719,-6.1719,-6.1719,-6.1719,-6.1719,-6.1719,-6.1719,-6.1719,-6.1719,-6.1719,-6.1719,-6.1719,-6.1719,-6.1719,-6.1719,-6.1719,-6.0976,-6.0508,-6.039,-5.9449,-5.881,-5.8704,-5.8466,-5.7912,-5.7016,-5.69,-5.6456,-5.5703,-5.5703,-5.5703,-5.5703,-5.5703,-5.5703,-5.5703,-5.5703,-5.5703,-5.5682,-5.5326,-5.516,-5.521,-5.5557,-5.6134,-5.6756,-5.687,-5.7356,-5.8027,-5.8027,-5.8623,-5.9408,-5.9412,0.0,0.0,0.0,0.0,0.0,0.0,0.0,0.0,0.0,0.0,0.0,0.0,0.0,0.0,0.0,0.0,0.0,0.0,0.0,0.0,0.0,0.0,0.0,0.0,-5.7997,-5.7997,-5.7997,-5.7474,-5.6722,-5.5779,-5.5121,-5.4398,-5.3551,-5.3518,-5.3518,-5.3518,-5.3518,-5.3518,-5.3518,-5.4161,0.0,0.0,0.0,-5.6488,-5.6242,-5.5067,-5.3929,-5.3095,-5.1777,-5.1533,-5.2329,-5.291,-5.3561,-5.4149,-5.4899,-5.533,-5.5357,-5.526,-5.5179,-5.5179,-5.5179,-5.5239,-5.5538,-5.664,-5.8011,-5.9099,-6.1719,-6.1719,-6.1719,-6.1719,-6.1719,-6.1719,-6.1719,-6.1719,-6.1719,-6.1719,-6.1719,-6.1719,-6.1719,-6.1719,-6.1719,-6.1719,-6.1562,-6.1133,-6.0469,-5.9366,-5.8722,-5.8693,-5.7786,-5.7187,-5.7016,-5.6302,-5.5857,-5.5703,-5.5703,-5.5703,-5.5703,-5.5703,-5.5703,-5.5703,-5.5703,-5.5703,-5.5703,-5.5599,-5.5577,-5.5577,-5.5662,-5.5805,-5.5998,-5.6643,-5.7213,-5.771,-5.771,-5.847,-5.9498,-5.9486,-6.0009,-6.0649,-6.0657,-6.0742,0.0,0.0,0.0,0.0,0.0,0.0,0.0,0.0,0.0,0.0,0.0,0.0,0.0,0.0,0.0,0.0,0.0,0.0,0.0,-5.7997,-5.7997,-5.7997,-5.7997,-5.7886,-5.7244,-5.5852,-5.5566,-5.4941,-5.3619,-5.3518,-5.3518,-5.3518,-5.3518,-5.3518,-5.3518,-5.4161,-5.4941,-5.569,-5.5501,-5.5696,-5.6172,-5.4251,-5.3592,-5.4265,-5.2175,0.0,-5.2819,-5.3095,-5.3218,-5.3461,-5.4678,-5.575,-5.6621,-5.5582,-5.5179,-5.5179,-5.5179,-5.5872,-5.6768,-5.706,-5.8011,-5.9099,-6.1719,-6.1719,-6.1719,-6.1719,-6.1719,-6.1719,-6.1719,-6.1719,-6.1719,-6.1719,-6.1719,-6.1719,-6.1719,-6.1719,-6.1719,-6.1719,-6.1289,-6.0859,-6.043,-5.9735,-5.9133,-5.8715,-5.8038,-5.7247,-5.6379,-5.5895,-5.5703,-5.5703,-5.5703,-5.5703,-5.5703,-5.5703,-5.5703,-5.5703,-5.5703,-5.5703,-5.5703,-5.5703,-5.5703,-5.5703,-5.5703,-5.5715,-5.5756,-5.6148,-5.6714,-5.7315,-5.7315,-5.7987,-5.8896,-5.8889,-5.9465,-6.0142,-6.0142,-6.0473,-6.0781,0.0,0.0,0.0,0.0,0.0,0.0,0.0,0.0,0.0,0.0,0.0,0.0,0.0,0.0,-5.852,-5.807,0.0,-5.7997,-5.7997,-5.7997,-5.7997,-5.7997,-5.7997,-5.7437,-5.5898,-5.5731,-5.5144,-5.3619,-5.3518,-5.3518,-5.3518,-5.3518,-5.3518,-5.3518,-5.3822,-5.4567,-5.5689,-5.5505,-5.5923,-5.7021,-5.5375,-5.4825,-5.541,-5.3695,-5.3184,-5.3802,-5.3996,-5.4352,-5.4937,-5.5122,-5.6279,-5.7804,-5.656,-5.613,-5.5992,-5.543,-5.5962,-5.7051,-5.7119,-5.8011,-5.9147,-6.1719,-6.1719,-6.1719,-6.1719,-6.1719,-6.1719,-6.1719,-6.1719,-6.1719,-6.1719,-6.1719,-6.1719,-6.1719,-6.1719,-6.1719,-6.1719,-6.1055,-6.0664,-6.0664,-6.0266,-5.963,-5.8753,-5.8308,-5.7324,-5.5742,-5.5703,-5.5703,-5.5703,-5.5703,-5.5703,-5.5703,-5.5703,-5.5703,-5.5703,-5.5703,-5.5703,-5.5703,-5.5703,-5.5703,-5.5703,-5.5703,-5.5703,-5.5703,-5.5703,-5.6126,-5.6742,-5.6742,-5.7319,-5.805,-5.8043,-5.8581,-5.9258,-5.9273,-5.9758,-6.0319,-6.0319,-6.0319,0.0,0.0,0.0,0.0,0.0,0.0,0.0,0.0,-6.0219,-5.9988,-5.9158,-5.8907,-5.8713,-5.8226,-5.8033,-5.7997,-5.7997,-5.7997,-5.7997,-5.7997,-5.7997,-5.751,-5.6081,-5.5801,-5.5178,-5.3822,-5.3551,-5.3518,-5.3518,-5.3518,-5.3518,-5.3518,-5.3518,-5.4161,-5.5689,-5.5711,-5.6404,-5.7881,-5.6746,-5.629,-5.6505,-5.5234,-5.4737,-5.4934,-5.5159,-5.5686,-5.6362,-5.5999,-5.7027,-5.8788,-5.7987,-5.7456,-5.688,-5.6222,-5.645,-5.722,-5.7107,-5.8047,-5.947,-6.1719,-6.1719,-6.1719,-6.1719,-6.1719,-6.1719,-6.1719,-6.1719,-6.1719,-6.1719,-6.1719,-6.1719,-6.1719,-6.1719,-6.1719,-6.1719,-6.1601,-6.1562,-6.1562,-6.0698,-5.9754,-5.8732,-5.7824,-5.6823,-5.5703,-5.5703,-5.5703,-5.5703,-5.5703,-5.5703,-5.5703,-5.5703,-5.5703,-5.5703,-5.5703,-5.5703,-5.5703,-5.5703,-5.5703,-5.5703,-5.5703,-5.5703,-5.5703,-5.5703,-5.5742,-5.5857,-5.5857,-5.6417,-5.717,-5.7148,-5.7709,-5.844,-5.8427,-5.8481,-5.8558,-5.8558,-5.8558,-5.8558,-5.8558,-5.9119,-5.9642,-5.9642,-6.0219,-6.0781,0.0,-6.0704,-6.0589,-6.0027,-5.9621,-5.9164,-5.8713,-5.83,-5.7997,-5.7997,-5.7997,-5.7997,-5.7997,-5.7997,-5.7694,-5.6868,-5.6106,-5.5382,-5.4567,-5.3856,-5.3518,-5.3518,-5.3518,-5.3518,-5.3518,-5.3518,-5.4161,-5.5689,-5.5711,-5.6404,-5.7881,-5.6746,-5.6734,-5.7666,-5.5603,-5.5122,-5.6046,-5.6376,-5.5978,-5.5243,-5.748,-5.8566,-5.8895,-5.9838,-5.8896,-5.7081,-5.8028,-5.8233,-5.7837,-5.7303,-5.8365,-5.9898,-6.1719,-6.1719,-6.1719,-6.1719,-6.1719,-6.1719,-6.1719,-6.1719,-6.1719,-6.1719,-6.1719,-6.1719,-6.1719,-6.1719,-6.1719,-6.1719,-6.1719,-6.1719,-6.1719,-6.1211,-6.0532,-5.962,-5.86,-5.761,-5.6571,-5.6071,-5.578,-5.5703,-5.5703,-5.5703,-5.5703,-5.5703,-5.5703,-5.5703,-5.5703,-5.5703,-5.5703,-5.5703,-5.5703,-5.5703,-5.5703,-5.5703,-5.5703,-5.5703,-5.5703,-5.5703,-5.5703,-5.5934,0.0,-5.6225,-5.6823,-5.7516,-5.755,-5.7896,-5.8303,-5.8303,-5.8303,-5.8418,-5.8864,-5.9249,-5.9634,-6.0127,-6.055,-6.0781,-6.0781,-6.0781,-6.0666,-6.0181,-5.9932,-5.9583,-5.8829,-5.852,-5.8336,-5.8033,-5.7997,-5.7997,-5.7997,-5.7997,-5.7886,-5.7584,-5.684,-5.5918,-5.4734,-5.3957,-5.3518,-5.3518,-5.3518,-5.3518,-5.3518,-5.3518,-5.4161,-5.5689,-5.5711,-5.6404,-5.7881,-5.7471,-5.7471,-5.7881,-5.6954,-5.6746,-5.719,-5.7483,-5.7441,-5.7277,-5.9781,-6.0472,-5.987,-6.0417,-5.9628,-5.8091,-5.8578,-5.8264,-5.7621,-5.8892,-6.0072,-6.1212,-6.1719,-6.1719,-6.1719,-6.1719,-6.1719,-6.1719,-6.1719,-6.1719,-6.1719,-6.1719,-6.1719,-6.1719,-6.1719,-6.1719,-6.1719,-6.1719,-6.1719,-6.1719,-6.1719,-6.1601,-6.1133,-6.0234,-5.9493,-5.8557,-5.7273,-5.6655,-5.6148,-5.5818,-5.5818,-5.5818,-5.5742,-5.5742,-5.5742,-5.5703,-5.5703,-5.5703,-5.5703,-5.5703,-5.5703,-5.5703,-5.5703,-5.5703,-5.5703,-5.5703,-5.5703,-5.5742,-5.5742,-5.5742,-5.5742,-5.5818,-5.6263,-5.6785,-5.6785,-5.7208,-5.773,-5.773,-5.773,-5.7884,-5.8676,-5.9061,-5.9403,-6.0242,-6.0627,-6.0781,-6.0781,-6.0781,-6.0704,-6.0358,-6.0181,-5.9905,-5.9215,-5.8857,-5.8603,-5.8263,-5.807,-5.7997,-5.7997,-5.7997,-5.7997,-5.7997,-5.7317,-5.6378,-5.5044,-5.4216,-5.3754,-5.3518,-5.3518,-5.3518,-5.3518,-5.372,-5.4364,-5.5689,-5.5879,-5.6645,-5.7881,-5.7881,-5.7881,-5.7881,-5.7881,-5.7881,-5.7949,-5.821,-5.888,-5.987,-6.1317,-6.1595,-6.1119,-6.1119,-6.0417,-5.9346,-5.9697,-5.9081,-5.8335,-6.0929,-6.202,-6.2281,-6.1719,-6.1719,-6.1719,-6.1719,-6.1719,-6.1719,-6.1719,-6.1719,-6.1719,-6.1719,-6.1719,-6.1719,-6.1719,-6.1719,-6.1719,-6.1719,-6.1719,-6.1719,-6.1719,-6.1719,-6.125,-6.0234,-6.0156,-5.9308,-5.7437,-5.7348,-5.6977,-5.6186,-5.6186,-5.6109,-5.5895,-5.5895,-5.5818,-5.5703,-5.5703,-5.5703,-5.5703,-5.5703,-5.5703,-5.5703,-5.5703,-5.5703,-5.5703,-5.5703,-5.578,-5.5895,-5.5895,-5.5895,-5.5895,-5.6109,-5.6186,-5.6225,-5.6225,-5.6225,-5.6263,-5.6263,-5.6263,-5.6417,-5.7093,-5.7896,-5.8673,-5.935,-6.0181,-6.0781,-6.0781,-6.0781,-6.0781,-6.0781,-6.0435,-6.0104,-6.0056,-5.9287,-5.8713,-5.8676,-5.83,-5.7997,-5.7997,-5.7997,-5.7997,-5.7997,-5.7317,-5.6603,-5.5759,-5.5003,-5.4296,-5.3551,-5.3518,-5.3518,-5.3518,-5.4161,-5.4907,-5.5689,-5.6393,-5.7161,-5.7881,-5.7881,-5.7881,-5.7881,-5.7881,-5.7881,-5.7949,-5.815,-5.9724,-6.2223,-6.1119,-6.1317,-6.2381,-6.2381,-6.1676,-6.067,-6.1837,-6.1561,-6.0868,-6.3515,-6.3768,-6.2782,-6.1719,-6.1719,-6.1719,-6.1719,-6.1719,-6.1719,-6.1719,-6.1719,-6.1719,-6.1719,-6.1719,0.0,0.0,0.0,0.0,0.0,-6.1719,-6.1719,-6.1719,-6.1719,-6.1562,-6.1211,-6.0625,-5.9998,-5.9273,-5.8175,-5.741,-5.7014,-5.6456,-5.6185,-5.6093,-5.6117,-5.6071,-5.6032,-5.6032,-5.6032,-5.6032,-5.6032,-5.6032,-5.6032,-5.6032,-5.6032,-5.6032,-5.6032,-5.6071,-5.6109,0.0,-5.6173,-5.6102,-5.6194,-5.6186,-5.6194,-5.6212,-5.6191,-5.6191,-5.6191,-5.6191,-5.6503,-5.7836,-5.842,-5.8927,-6.0181,-6.0704,-6.0896,-6.0819,-6.0781,-6.0781,-6.0781,-6.0666,-6.0473,-6.0142,-5.9568,-5.9084,-5.8755,-5.83,-5.7997,-5.7997,-5.7997,-5.7997,-5.7997,-5.7813,-5.7134,-5.5816,-5.5062,-5.4296,-5.3551,-5.3518,-5.3518,-5.3518,-5.4161,-5.4941,-5.5711,-5.6448,-5.7195,-5.7881,-5.7881,-5.7881,-5.7881,-5.7881,-5.8389,-5.937,-5.943,-6.0583,-6.2381,-6.1951,-6.203,-6.2381,-6.2381,-6.1676,-6.0703,-6.1951,-6.1676,-6.0886,-6.306,-6.3896,-6.4053,0.0,-6.1719,-6.1719,-6.1719,-6.1719,0.0,0.0,0.0,0.0,0.0,0.0,0.0,0.0,0.0,0.0,0.0,0.0,-6.1719,-6.1719,-6.1719,-6.1719,-6.1719,-6.1172,-6.0664,-6.0273,-5.8945,-5.8038,-5.757,-5.6751,-5.6315,-5.6276,-5.6275,-5.6257,-5.6188,-5.6188,-5.6188,-5.6188,-5.6188,-5.6188,-5.6188,-5.6188,-5.6188,-5.6188,-5.6188,-5.6233,0.0,-5.6379,-5.6366,-5.6325,-5.6354,-5.6329,-5.6329,-5.6351,-5.6328,-5.6328,-5.6328,-5.6328,-5.6719,-5.832,-5.8772,-5.9134,-6.0701,-6.1041,-6.0973,-6.0896,-6.0819,-6.0781,-6.0781,-6.0781,-6.0704,-6.0435,-5.995,-5.9512,-5.8998,-5.852,-5.8226,-5.7997,-5.7997,-5.7997,-5.7997,-5.7997,-5.74,-5.5816,-5.5238,-5.4601,-5.3551,-5.3518,-5.3518,-5.3518,-5.4465,-5.5168,-5.5722,-5.6679,-5.7471,-5.7881,-5.7881,-5.7881,-5.7881,-5.7881,-5.866,-6.0114,-6.0114,-6.0926,-6.2381,-6.2381,-6.2381,-6.2381,-6.2381,-6.1951,-6.1317,-6.211,-6.1951,-6.1417,-6.2952,-6.3971,-6.4667,0.0,0.0,-6.1719,0.0,0.0,0.0,0.0,0.0,0.0,0.0,0.0,0.0,0.0,0.0,0.0,0.0,0.0,0.0,-6.1719,-6.1719,-6.1719,-6.1719,-6.1719,-6.1328,-6.0469,-5.9687,-5.8867,-5.8047,-5.7148,-5.664,-5.6484,-5.6484,-5.638,-5.6212,-5.6212,-5.6212,-5.6212,-5.6212,-5.6212,-5.6212,-5.6212,-5.6212,-5.6212,-5.6212,-5.6311,-5.6417,-5.6417,-5.6498,-5.6616,-5.6602,-5.6601,-5.6601,-5.6601,-5.6601,-5.6601,-5.6601,-5.664,-5.6992,-5.8515,-5.8945,-5.9336,-6.0937,-6.1156,-6.1026,-6.0997,-6.0896,-6.0819,-6.0781,-6.0781,-6.0781,-6.0781,-6.0435,-5.996,-5.9473,-5.8989,-5.852,-5.807,-5.7997,-5.7997,-5.7997,-5.7997,-5.74,-5.5816,-5.5754,-5.5108,-5.3653,-5.3518,-5.3518,-5.3518,-5.4892,-5.5722,-5.5682,-5.7161,-5.7881,-5.7881,-5.7881,-5.7881,-5.7881,-5.7881,-5.866,-6.0114,-6.0114,-6.0926,-6.2381,-6.2381,-6.2381,-6.2381,-6.2381,-6.2381,-6.2381,-6.2381,-6.2381,-6.2482,-6.3193,-6.3903,-6.4647,0.0,0.0,0.0,0.0,0.0,0.0,0.0,0.0,0.0,0.0,0.0,0.0,0.0,0.0,0.0,0.0,0.0,0.0,-6.1719,-6.1719,-6.1719,-6.1719,-6.1719,-6.1601,-6.1367,-6.0547,-6.0,-5.9765,-5.8945,-5.8203,-5.7539,-5.7539,-5.7146,-5.651,-5.651,-5.651,-5.651,-5.651,-5.651,-5.651,-5.651,-5.651,-5.651,-5.651,-5.6513,-5.6533,-5.6533,-5.6558,-5.6597,-5.6598,-5.6601,-5.6601,-5.6601,-5.6601,-5.6601,-5.6601,-5.707,-5.7812,-5.8828,-5.957,-6.0234,-6.1211,-6.1391,-6.1305,-6.1057,-6.0973,-6.0896,-6.0819,-6.0781,-6.0781,-6.0781,-6.0435,-5.9969,-5.9483,-5.8988,-5.852,-5.807,-5.7997,-5.7997,-5.7997,-5.7997,-5.74,-5.5816,-5.626,-5.5695,-5.3651,-5.3518,-5.3518,-5.3518,-5.4937,-5.5703,-5.5722,-5.7161,-5.7881,-5.7881,-5.7881,-5.7881,-5.7881,-5.7881,-5.866,-6.0114,-6.0114,-6.0926,-6.2381,-6.2381,-6.2381,-6.2381,-6.2381,-6.2381,-6.2381,-6.2381,-6.2381,-6.2415,-6.2618,-6.3159,-6.3903,0.0,0.0,0.0,0.0,0.0,0.0,0.0,0.0,0.0,0.0,0.0,0.0,0.0,0.0,0.0,0.0,0.0,0.0,0.0,-6.1719,-6.1719,-6.1719,-6.1719,-6.1719,-6.1719,-6.0859,-6.039,-6.039,-5.9609,-5.8945,-5.8476,-5.8476,-5.8203,-5.7734,-5.7734,-5.7734,-5.7734,-5.7734,-5.7734,0.0,0.0,-5.7734,-5.7734,-5.7734,-5.7729,-5.7702,-5.7313,-5.718,-5.7187,-5.7187,-5.6914,-5.6601,-5.6601,-5.6601,-5.668,-5.707,-5.7539,-5.8164,-5.9375,-6.0078,-6.0586,-6.1406,-6.1484,-6.1358,-6.1156,-6.102,-6.0896,-6.0819,-6.0781,-6.0781,-6.0781,-6.0589,-6.0181,-5.9504,-5.9174,-5.8787,-5.807,-5.7997,-5.7997,-5.7997,-5.7997,-5.7547,-5.6347,-5.6289,-5.5716,-5.4074,-5.3983,-5.3822,-5.3518,-5.4903,-5.5673,-5.5732,-5.7128,-5.7881,-5.7881,-5.7881,-5.7881,-5.7881,-5.7881,-5.866,-6.0114,-6.0114,-6.0926,-6.2381,-6.2381,-6.2381,-6.2381,-6.2381,-6.2381,-6.2381,-6.2381,-6.2381,-6.2381,-6.2381,-6.2854,-6.3632,0.0,0.0,0.0,0.0,0.0,0.0,0.0,0.0,0.0,0.0,-6.1719,-6.1719,-6.1719,-6.1719,0.0,0.0,0.0,0.0,0.0,0.0,-6.1719,-6.1719,-6.1719,-6.1719,-6.1719,-6.0976,-6.0586,-6.0586,-5.9883,-5.9453,-5.9375,-5.9375,-5.9297,-5.9219,-5.9219,-5.9219,-5.9219,-5.9219,-5.9219,-5.9219,-5.9219,-5.9219,-5.9219,0.0,-5.9219,-5.9101,-5.8359,-5.8086,-5.8086,-5.8086,-5.7578,-5.6953,-5.6953,-5.6953,-5.7109,-5.7851,-5.8164,-5.8555,-6.0,-6.0469,-6.0742,-6.1484,-6.1484,-6.1288,-6.1277,-6.1045,-6.0819,-6.0781,-6.0781,-6.0781,-6.0781,-6.0781,-6.0512,-5.9565,-5.94,-5.909,-5.8107,-5.7997,-5.7997,-5.7997,-5.7997,-5.7674,-5.6806,-5.6247,-5.5513,-5.4478,-5.45,-5.4261,-5.3518,-5.4867,-5.5812,-5.6014,-5.72,-5.7881,-5.7881,-5.7881,-5.7881,-5.7881,-5.7881,-5.8626,-5.9945,-6.0047,-6.0892,-6.2245,-6.2347,-6.2381,-6.2381,-6.2381,-6.2381,-6.2381,-6.2381,-6.2381,-6.2381,-6.2381,-6.2787,-6.3463,0.0,0.0,0.0,0.0,0.0,0.0,0.0,0.0,0.0,0.0,-6.1719,-6.1719,0.0,0.0,0.0,0.0,0.0,0.0,0.0,0.0,0.0,-6.1719,-6.1719,-6.1719,-6.1719,-6.1562,-6.1484,-6.1484,-6.1328,-6.0898,-6.0195,-6.0195,-5.9844,-5.9219,-5.9219,-5.9219,-5.9219,-5.9219,-5.9219,-5.9219,-5.9219,-5.9219,-5.9219,-5.9219,0.0,0.0,-5.9023,-5.8984,-5.8984,-5.8984,-5.8867,-5.875,-5.875,-5.875,-5.8789,-5.8945,-5.9453,-6.0039,-6.0312,-6.0859,-6.1367,-6.1484,-6.1406,-6.1268,-6.1103,-6.1015,-6.0935,-6.0819,-6.0781,-6.0781,-6.0781,-6.0781,-6.0512,-5.9565,-5.94,-5.909,-5.8107,-5.7997,-5.7997,-5.7997,-5.7997,-5.7442,-5.6008,-5.6353,-5.586,-5.3844,-5.4269,-5.4274,-5.3585,-5.4938,-5.622,-5.7509,-5.778,-5.7881,-5.7881,-5.7881,-5.7881,-5.7881,-5.7881,-5.8355,-5.9235,-5.981,-6.0622,-6.1535,-6.2144,-6.2381,-6.2381,-6.2381,-6.2381,-6.2381,-6.2381,-6.2381,-6.2381,-6.2381,-6.2482,-6.2685,0.0,0.0,0.0,0.0,0.0,0.0,0.0,-6.1719,-6.1719,-6.1719,-6.1719,-6.1719,-6.1719,-6.1719,-6.1719,0.0,0.0,0.0,0.0,0.0,0.0,-6.1719,0.0,0.0,-6.1719,-6.1719,-6.1719,-6.1719,0.0,-6.1484,-6.1094,-6.1094,-6.0859,-6.0508,-6.0508,-6.0508,-6.0508,-6.0508,-6.0508,-6.0508,-6.0508,-6.0508,-6.0508,0.0,0.0,0.0,-5.9805,-5.9805,-5.9805,-5.9805,-6.0117,-6.0351,-5.9492,-5.914,-5.914,-5.9609,-5.9922,-6.0273,-6.0742,-6.1133,-6.1399,-6.1383,-6.1265,-6.1109,-6.1032,-6.0935,-6.0858,-6.0819,-6.0781,-6.0781,-6.0781,-6.0589,-6.0219,-5.9504,-5.9212,-5.8787,-5.807,-5.7997,-5.7997,-5.7997,-5.7997,-5.7556,-5.6458,-5.6258,-5.5672,-5.4171,-5.4042,-5.3881,-5.3518,-5.4905,-5.6393,-5.7848,-5.7881,-5.7881,-5.7881,-5.7881,-5.7881,-5.7881,-5.7881,-5.8287,-5.9032,-5.9776,-6.0554,-6.1332,-6.2076,-6.2381,-6.2381,-6.2381,-6.2381,-6.2381,-6.2381,-6.2381,-6.2381,-6.2381,-6.2381,-6.2516,0.0,0.0,0.0,0.0,0.0,0.0,-6.1719,-6.1719,-6.1719,-6.1719,-6.1719,-6.1719,-6.1719,-6.1719,-6.1719,0.0,0.0,0.0,0.0,0.0,0.0,0.0,0.0,0.0,-6.1719,0.0,0.0,-6.1719,-6.1719,0.0,0.0,0.0,0.0,0.0,-6.1719,-6.1719,-6.1719,-6.1719,-6.1719,0.0,0.0,-6.1719,-6.1719,0.0,0.0,0.0,0.0,-6.0664,-6.0664,-6.0664,-6.1094,-6.1445,-6.0117,-5.957,-5.9609,-6.0284,-6.0388,-6.0427,-6.113,-6.1286,-6.1261,-6.1252,-6.1112,-6.0935,-6.0935,-6.0858,-6.0781,-6.0781,-6.0781,-6.0781,-6.0666,-6.0358,-5.9893,-5.9311,-5.8914,-5.852,-5.807,-5.7997,-5.7997,-5.7997,-5.7857,-5.7497,-5.6725,-5.5953,-5.5166,-5.4391,-5.3986,-5.3788,-5.3957,-5.5074,-5.6393,-5.7848,-5.7881,-5.7881,-5.7881,-5.7881,-5.7881,-5.7881,-5.7881,-5.8186,-5.8795,-5.9708,-6.0452,-6.1095,-6.2009,-6.2381,-6.2381,-6.2381,-6.2381,-6.2381,-6.2381,-6.2381,-6.2381,-6.2381,-6.2381,-6.2482,0.0,0.0,0.0,0.0,0.0,0.0,-6.1719,-6.1719,-6.1719,-6.1719,-6.1719,-6.1719,-6.1719,-6.1719,-6.1719,0.0,0.0,0.0,0.0,0.0,0.0,0.0,0.0,0.0,0.0,0.0,0.0,-6.1719,-6.1719,0.0,0.0,0.0,0.0,0.0,0.0,-6.1719,-6.1719,-6.1719,0.0,0.0,0.0,0.0,0.0,0.0,0.0,0.0,0.0,-6.1562,-6.1562,-6.1562,-6.1562,-6.1484,-6.1328,-6.1289,-6.1274,-6.1341,-6.1306,-6.119,-6.1267,-6.119,-6.1032,-6.102,-6.0896,-6.0819,-6.0819,-6.0819,-6.0781,-6.0781,-6.0781,-6.0666,-6.0219,-6.0142,-5.9835,-5.8884,-5.8739,-5.852,-5.807,-5.7997,-5.7997,-5.7997,-5.7397,-5.6671,-5.5883,-5.5122,-5.4425,-5.3685,-5.4161,-5.4803,-5.548,-5.5649,-5.6393,-5.7848,-5.7881,-5.7881,-5.7881,-5.7881,-5.7881,-5.7881,-5.7881,-5.7915,-5.8051,-5.9471,-6.0148,-6.0283,-6.1738,-6.2381,-6.2381,-6.2381,-6.2381,-6.2381,-6.2381,-6.2381,-6.2381,-6.2381,-6.2381,-6.2415,0.0,0.0,0.0,0.0,0.0,0.0,-6.1719,-6.1719,-6.1719,-6.1719,-6.1719,-6.1719,-6.1719,-6.1719,-6.1719,-6.1719,-6.1719,0.0,0.0,0.0,0.0,0.0,0.0,0.0,0.0,0.0,-6.1719,-6.1719,-6.1719,0.0,0.0,0.0,0.0,0.0,0.0,-6.1719,-6.1719,-6.1719,0.0,0.0,0.0,0.0,0.0,0.0,0.0,0.0,0.0,0.0,-6.1676,-6.1596,-6.1536,-6.1497,-6.1419,-6.1303,-6.1205,-6.1208,-6.1112,-6.0973,-6.0973,-6.0935,-6.0858,-6.0858,-6.0819,-6.0781,-6.0781,-6.0781,-6.0704,-6.0435,-6.0396,-6.0219,-5.9758,-5.9437,-5.9098,-5.8739,-5.8447,-5.8226,-5.8033,-5.7997,-5.781,-5.7397,-5.7113,-5.638,-5.5183,-5.4799,-5.4264,-5.3551,-5.416,-5.4905,-5.5683,-5.6122,-5.6833,-5.7848,-5.7881,-5.7881,-5.7881,-5.7881,-5.7881,-5.7881,-5.7881,-5.7881,-5.7915,-5.8964,-5.9674,-6.0148,-6.1264,-6.1975,-6.2381,-6.2381,-6.2381,-6.2381,-6.2381,-6.2381,-6.2381,-6.2381,-6.2381,-6.2381,0.0,0.0,0.0,0.0,0.0,-6.1719,-6.1719,-6.1719,-6.1719,-6.1719,-6.1719,-6.1719,-6.1719,-6.1719,-6.1719,-6.1719,-6.1719,0.0,0.0,0.0,0.0,0.0,0.0,0.0,0.0,0.0,-6.1719,-6.1719,-6.1719,-6.1719,0.0,0.0,-6.1719,-6.1719,0.0,0.0,0.0,0.0,0.0,0.0,0.0,0.0,0.0,0.0,0.0,0.0,0.0,0.0,0.0,0.0,0.0,-6.1343,-6.1228,-6.1112,-6.0935,-6.0973,-6.0896,-6.0781,-6.0781,-6.0781,-6.0781,-6.0781,-6.0781,-6.0742,-6.0627,-6.0589,-6.0473,-5.9988,-5.9879,-5.9756,-5.9269,-5.895,-5.8676,-5.852,-5.8226,-5.7997,-5.7997,-5.781,-5.746,-5.6937,-5.6509,-5.5786,-5.473,-5.4356,-5.4042,-5.3551,-5.4397,-5.5141,-5.5683,-5.6596,-5.734,-5.7881,-5.7881,-5.7881,-5.7881,-5.7881,-5.7881,-5.7881,-5.7881,-5.7881,-5.7915,-5.866,-5.9404,-6.0148,-6.096,-6.1704,-6.2381,-6.2381,-6.2381,-6.2381,-6.2381,-6.2381,-6.2381,-6.2381,-6.2381,-6.2381,0.0,0.0,0.0,0.0,0.0,-6.1719,-6.1719,-6.1719,-6.1719,-6.1719,-6.1719,-6.1719,-6.1719,-6.1719,-6.1719,-6.1719,-6.1719,0.0,0.0,0.0,0.0,0.0,0.0,0.0,-6.1719,-6.1719,-6.1719,-6.1719,-6.1719,-6.1719,-6.1719,-6.1719,-6.1719,-6.1719,0.0,0.0,0.0,0.0,0.0,0.0,0.0,0.0,0.0,0.0,0.0,0.0,0.0,0.0,0.0,0.0,0.0,0.0,0.0,-6.0896,-6.0819,-6.0935,-6.0896,-6.0781,-6.0781,-6.0781,-6.0781,-6.0781,-6.0781,-6.0666,-6.0219,-6.0104,-5.995,-5.9504,-5.9395,-5.9246,-5.8796,-5.8676,-5.852,-5.807,-5.7997,-5.7997,-5.7997,-5.7347,-5.692,-5.6897,-5.5588,-5.4606,-5.4606,-5.3946,-5.3518,-5.3518,-5.4871,-5.5716,-5.5716,-5.7103,-5.7881,-5.7881,-5.7881,-5.7881,-5.7881,-5.7881,-5.7881,-5.7881,-5.7881,-5.7881,-5.7915,-5.866,-5.9404,-6.0148,-6.096,-6.1704,-6.2381,-6.2381,-6.2381,-6.2381,-6.2381,-6.2381,-6.2381,-6.2381,-6.2381,-6.2381,0.0,0.0,0.0,0.0,0.0,0.0,-6.1719,-6.1719,-6.1719,-6.1719,-6.1719,-6.1719,-6.1719,-6.1719,-6.1719,-6.1719,-6.1719,0.0,0.0,0.0,0.0,0.0,0.0,0.0,-6.1719,-6.1719,-6.1719,-6.1719,-6.1719,-6.1719,-6.1719,-6.1719,-6.1719,-6.1719,-6.1719,-6.1719,0.0,-6.1719,0.0,0.0,0.0,0.0,-6.1562,0.0,0.0,0.0,0.0,0.0,0.0,0.0,0.0,0.0,0.0,0.0,0.0,-6.0858,-6.0819,-6.0781,-6.0781,-6.0781,-6.0704,-6.0396,-6.0319,-6.0181,-5.9719,-5.9602,-5.9513,-5.9025,-5.8905,-5.8787,-5.83,-5.8226,-5.7996,-5.7341,-5.7249,-5.7084,-5.6486,-5.6253,-5.5851,-5.5414,-5.4454,-5.3815,-5.3815,-5.3618,-5.3518,-5.3518,-5.4397,-5.5175,-5.5683,-5.663,-5.7374,-5.7881,-5.7881,-5.7881,-5.7881,-5.7881,-5.7881,-5.7881,-5.7881,-5.7881,-5.7915,-5.8118,-5.866,-5.9404,-6.0148,-6.0926,-6.167,-6.2178,-6.2381,-6.2381,-6.2381,-6.2381,-6.2381,-6.2381,-6.2381,-6.2381,0.0,0.0,0.0,0.0,0.0,0.0,-6.1719,-6.1719,-6.1719,-6.1719,-6.1719,-6.1719,-6.1719,-6.1719,-6.1719,-6.1719,-6.1719,0.0,0.0,0.0,0.0,0.0,0.0,0.0,-6.1719,-6.1719,-6.1719,-6.1719,-6.1719,-6.1719,-6.1719,-6.1719,-6.1719,-6.1719,-6.1719,-6.1719,0.0,-6.1654,0.0,0.0,0.0,0.0,-6.1428,0.0,0.0,0.0,0.0,0.0,0.0,0.0,0.0,0.0,0.0,0.0,0.0,0.0,-6.0533,-6.0546,-6.0541,-6.055,-6.0435,-5.995,-5.9835,-5.9722,-5.9235,-5.9136,-5.9016,-5.852,-5.8447,-5.8238,-5.7693,-5.7604,-5.7362,-5.6613,-5.643,-5.627,-5.5774,-5.5448,-5.4999,-5.4264,-5.3783,-5.3518,-5.3518,-5.3518,-5.3518,-5.3518,-5.416,-5.4905,-5.5683,-5.6393,-5.7137,-5.7881,-5.7881,-5.7881,-5.7881,-5.7881,-5.7881,-5.7881,-5.7881,-5.7881,-5.7881,-5.7881,-5.8287,-5.9032,-5.9505,-6.0317,0.0,-6.1806,-6.2144,-6.2381,-6.2381,-6.2381,-6.2381,-6.2381,-6.2381,-6.2381,0.0,0.0,0.0,0.0,0.0,0.0,0.0,-6.1719,-6.1719,-6.1719,-6.1719,-6.1719,-6.1719,-6.1719,-6.1719,-6.1719,-6.1719,0.0,0.0,0.0,0.0,0.0,0.0,-6.1719,-6.1719,-6.1719,-6.1719,-6.1719,-6.1719,-6.1719,-6.1719,-6.1719,-6.1719,-6.1719,-6.1716,-6.1674,-6.1668,-6.153,0.0,0.0,-6.1345,-6.1292,0.0,0.0,0.0,0.0,0.0,0.0,0.0,0.0,0.0,0.0,0.0,0.0,0.0,0.0,0.0,0.0,0.0,-6.0046,-5.9945,-5.9459,-5.9359,-5.9237,-5.875,-5.8676,0.0,-5.807,-5.793,-5.7738,-5.7002,-5.6848,-5.656,-5.5731,-5.5648,-5.5593,-5.5558,-5.4938,-5.4264,-5.3551,-5.3518,-5.3518,-5.3518,-5.3518,-5.3518,-5.3518,-5.4058,-5.4801,-5.5683,-5.6288,-5.6998,-5.7848,-5.7881,-5.7881,-5.7881,-5.7881,-5.7881,-5.7881,-5.7881,-5.7881,-5.7881,-5.7881,-5.8254,-5.893,-5.8998,-5.981,-6.1129,-6.1264,-6.1704,-6.2313,-6.2381,-6.2381,-6.2381,-6.2381,-6.2381,-6.2381,0.0,0.0,0.0,0.0,0.0,0.0,0.0,0.0,0.0,0.0,-6.1719,-6.1719,-6.1719,-6.1719,-6.1719,0.0,0.0,0.0,0.0,0.0,0.0,0.0,-6.1719,-6.1719,-6.1719,-6.1719,-6.1719,-6.1719,-6.1719,-6.1719,-6.1719,-6.1719,-6.1719,-6.1718,-6.1693,-6.1637,-6.1539,-6.1384,0.0,0.0,-6.1285,-6.1232,0.0,0.0,0.0,0.0,-6.0858,-6.0858,0.0,0.0,0.0,0.0,0.0,0.0,0.0,0.0,-5.9581,-5.9513,-5.9131,0.0,-5.9462,-5.9011,-5.8894,-5.875,0.0,-5.8143,-5.8107,-5.7997,-5.7512,-5.7115,-5.6948,-5.6371,-5.5754,-5.4995,-5.4861,-5.4661,-5.4086,-5.3883,-5.3651,-5.3484,-5.3518,-5.3518,-5.3518,-5.3518,-5.3518,-5.3518,-5.2864,-5.3461,-5.5579,-5.5068,-5.5736,-5.7848,-5.7881,-5.7881,-5.7881,-5.7881,-5.7881,-5.7881,-5.7881,-5.7881,-5.7881,-5.7881,-5.7983,-5.8186,-5.8761,-5.9235,-5.9641,-6.0825,-6.14,-6.1603,-6.2178,-6.2381,-6.2381,-6.2381,-6.2381,-6.2381,0.0,0.0,0.0,0.0,0.0,0.0,0.0,0.0,0.0,0.0,-6.1719,-6.1719,-6.1719,-6.1719,-6.1719,0.0,0.0,0.0,0.0,0.0,0.0,-6.1719,-6.1719,-6.1719,-6.1719,-6.1719,-6.1719,-6.1719,-6.1712,-6.1684,-6.1606,-6.1606,-6.1586,-6.1504,-6.1522,-6.1466,-6.1405,-6.1234,-6.1138,-6.1151,-6.1112,0.0,0.0,0.0,0.0,0.0,-6.0781,-6.0647,0.0,-6.0482,-6.0338,-6.0132,0.0,0.0,0.0,0.0,-5.9102,-5.8982,-5.8512,-5.8732,-5.8934,-5.8483,-5.8373,-5.83,-5.8033,-5.7997,-5.7894,-5.7579,-5.7171,-5.6703,-5.5992,-5.5485,-5.4941,-5.4262,-5.4093,-5.3991,-5.3551,-5.3518,-5.3348,-5.28,-5.28,-5.2557,-5.2098,-5.2098,-5.2098,-5.2098,-5.1557,-5.2104,-5.4105,-5.3684,-5.4338,-5.636,-5.6887,-5.7372,-5.7881,-5.7881,-5.7881,-5.7881,-5.7881,-5.7881,-5.7881,-5.7881,-5.7881,-5.7915,-5.8321,-5.8693,-5.9099,-6.0283,-6.096,-6.1366,-6.211,-6.2381,-6.2381,-6.2381,-6.2381,-6.2381,0.0,0.0,0.0,0.0,0.0,0.0,0.0,0.0,0.0,0.0,0.0,0.0,0.0,0.0,0.0,0.0,0.0,0.0,0.0,0.0,0.0,-6.1719,-6.1719,-6.1719,-6.1719,-6.167,-6.1658,-6.1658,-6.1656,-6.1593,-6.1477,-6.1466,-6.1408,-6.1291,-6.1291,-6.1247,-6.1228,-6.105,-6.0973,-6.0935,-6.0858,0.0,0.0,0.0,0.0,0.0,0.0,0.0,0.0,-5.9977,-5.976,-5.9389,-5.9319,0.0,0.0,0.0,0.0,0.0,-5.8097,-5.83,-5.8483,-5.807,-5.7997,-5.7997,-5.7997,-5.7894,-5.7642,-5.7061,-5.668,-5.6185,-5.4834,-5.4533,-5.4262,-5.3585,-5.3518,-5.3416,-5.328,-5.328,-5.287,-5.1776,-5.1704,-5.1303,-5.0474,-5.0397,-5.0397,-5.0397,-5.0242,-5.0849,-5.2413,-5.2316,-5.2954,-5.4557,-5.5458,-5.647,-5.7406,-5.7554,-5.7628,-5.7628,-5.7628,-5.7701,-5.7881,-5.7881,-5.7881,-5.7881,-5.7881,-5.8254,-5.8896,-5.9641,-6.0419,-6.1197,-6.1941,-6.2279,-6.2381,-6.2381,-6.2381,-6.2381,0.0,0.0,0.0,0.0,0.0,0.0,0.0,0.0,0.0,0.0,0.0,0.0,0.0,0.0,0.0,0.0,0.0,0.0,0.0,0.0,0.0,-6.1719,-6.1719,-6.1719,-6.1719,-6.159,-6.1524,-6.1524,-6.1423,-6.1369,-6.1317,-6.133,-6.1312,-6.1285,-6.1109,-6.1065,-6.1012,-6.0896,-6.0819,-6.0819,-6.0819,0.0,0.0,0.0,0.0,0.0,0.0,0.0,0.0,-5.9492,-5.9458,-5.9319,-5.8951,0.0,0.0,0.0,0.0,0.0,-5.8042,-5.8033,-5.807,-5.7997,-5.7997,-5.7997,-5.7997,-5.7514,-5.7025,-5.6908,-5.5881,-5.4901,-5.4668,-5.4093,-5.3619,-5.3518,-5.3518,-5.3179,-5.2241,-5.217,-5.1776,-5.0779,-5.0627,-5.055,-5.0397,-5.0397,-5.0397,-5.0397,-4.9536,-5.0053,-5.2413,-5.1663,-5.2209,-5.4557,-5.4755,-5.492,-5.5084,-5.6047,-5.6437,-5.6437,-5.6437,-5.6963,-5.7881,-5.7881,-5.7881,-5.7881,-5.7881,-5.7949,-5.8118,-5.8863,-5.9607,-6.0351,-6.1163,-6.1839,-6.2381,-6.2381,-6.2381,-6.2381,0.0,0.0,0.0,0.0,0.0,0.0,0.0,0.0,0.0,0.0,0.0,0.0,0.0,0.0,0.0,0.0,0.0,0.0,0.0,0.0,-6.1655,-6.1576,-6.1603,-6.1603,-6.1603,-6.1462,-6.1408,-6.1381,-6.1331,-6.125,-6.1155,-6.107,-6.1012,-6.1012,-6.0935,-6.0896,-6.0896,-6.0819,-6.0781,-6.0781,0.0,0.0,0.0,0.0,0.0,0.0,0.0,0.0,0.0,0.0,-5.8835,-5.8591,-5.8375,0.0,0.0,0.0,0.0,0.0,-5.7997,-5.7726,-5.7401,-5.7401,-5.7401,-5.7266,-5.6876,-5.6527,-5.6184,-5.5718,-5.5085,-5.4453,-5.4058,-5.3754,-5.3518,-5.3518,-5.3518,-5.311,-5.2065,-5.1921,-5.1303,-4.9694,-4.9536,-4.9296,-4.879,-4.8708,-4.8708,-4.8708,-4.824,-4.8821,-5.0653,-5.0284,-5.0839,-5.2692,-5.3309,-5.3396,-5.2723,-5.3882,-5.4723,-5.5329,-5.5329,-5.5889,-5.6963,-5.6963,-5.7297,-5.7881,-5.7881,-5.7881,-5.7949,-5.8693,-5.9201,-5.9641,-6.0825,-6.1501,-6.1839,-6.2245,-6.2381,-6.2381,0.0,0.0,0.0,0.0,0.0,0.0,0.0,0.0,0.0,0.0,0.0,0.0,0.0,0.0,0.0,0.0,0.0,0.0,0.0,-6.1658,-6.1596,-6.1505,-6.142,-6.142,-6.1458,-6.1307,-6.1247,-6.1228,-6.1189,-6.1112,-6.0935,-6.0858,-6.0781,-6.0781,-6.0781,-6.0734,-6.0622,-6.0622,-6.0559,-6.0456,0.0,0.0,0.0,0.0,0.0,0.0,0.0,0.0,0.0,0.0,0.0,0.0,0.0,0.0,0.0,-5.7726,-5.7594,-5.7462,-5.7462,-5.7029,-5.6563,-5.6403,-5.651,-5.6421,-5.5836,-5.5552,-5.5262,-5.4695,-5.4482,-5.4171,-5.3618,-5.3518,-5.3518,-5.3518,-5.328,-5.28,-5.1704,-5.1303,-5.0518,-4.8677,-4.846,-4.8157,-4.7366,-4.7309,-4.7309,-4.7309,-4.7309,-4.7878,-4.9194,-4.9254,-4.9853,-5.1169,-5.2063,-5.2063,-5.1229,-5.2063,-5.3077,-5.4168,-5.4168,-5.4888,-5.6204,-5.6204,-5.6778,-5.7881,-5.7881,-5.7881,-5.7915,-5.8524,-5.8863,-5.9133,-6.0486,-6.1231,-6.1637,-6.2178,-6.2381,-6.2381,0.0,0.0,0.0,0.0,0.0,0.0,0.0,0.0,0.0,0.0,0.0,0.0,0.0,0.0,0.0,0.0,0.0,0.0,0.0,-6.1602,-6.1511,-6.1497,-6.1189,-6.1112,-6.1304,-6.1097,-6.102,-6.1012,-6.0896,-6.0819,-6.0819,-6.0781,-6.0781,-6.0781,-6.0781,-6.0572,-6.0161,-6.0161,-5.9885,-5.9492,-5.9458,0.0,0.0,0.0,0.0,0.0,0.0,0.0,0.0,0.0,0.0,0.0,0.0,0.0,-5.6964,-5.6964,-5.6421,-5.5893,-5.5893,-5.5836,-5.561,-5.4939,-5.5262,-5.578,-5.5724,-5.5144,-5.4634,-5.4606,-5.4042,-5.3551,-5.3518,-5.3518,-5.3518,-5.3518,-5.2627,-5.1704,-5.0627,-4.9694,-4.8594,-4.7538,-4.7366,-4.7366,-4.7309,-4.7309,-4.7309,-4.7309,-4.7309,-4.7878,-4.9194,-4.9254,-4.9853,-5.1169,-5.1293,-5.1293,-5.1229,-5.1293,-5.188,-5.2989,-5.2989,-5.4137,-5.6204,-5.6204,-5.6778,-5.7881,-5.7881,-5.7881,-5.7881,-5.7949,-5.8389,-5.9099,-5.9877,-6.1061,-6.2313,-6.2381,-6.2381,-6.2381,0.0,0.0,0.0,0.0,0.0,0.0,0.0,0.0,0.0,0.0,0.0,0.0,0.0,0.0,0.0,0.0,0.0,0.0,0.0,-6.1543,-6.142,-6.1189,-6.105,-6.0973,-6.0973,-6.0896,-6.0858,-6.0858,-6.0819,-6.0781,-6.0781,-6.0781,-6.0781,-6.0781,-6.0482,-6.0283,-6.0103,-5.9792,-5.9559,-5.9354,-5.9065,-5.899,0.0,0.0,0.0,0.0,0.0,0.0,0.0,0.0,-5.7997,-5.795,-5.7449,-5.7116,-5.6809,-5.6313,-5.5948,-5.5724,-5.5724,-5.5379,-5.4939,-5.4634,-5.4419,-5.4328,-5.4328,-5.4106,-5.3946,-5.3946,-5.3651,-5.3518,-5.3518,-5.3518,-5.3518,-5.3518,-5.2627,-5.1557,-5.055,-4.9456,-4.846,-4.7452,-4.7309,-4.7309,-4.7309,-4.7309,-4.7309,-4.7309,-4.7309,-4.7878,-4.9194,-4.9254,-4.9853,-5.1169,-5.1229,-5.1229,-5.1229,-5.1229,-5.1386,-5.1789,-5.1789,-5.2989,-5.5247,-5.5247,-5.6237,-5.7881,-5.7881,-5.7881,-5.7881,-5.7881,-5.8051,-5.8423,-5.9641,-6.0757,-6.1772,-6.2212,-6.2381,-6.2381,0.0,0.0,0.0,0.0,0.0,0.0,0.0,0.0,0.0,0.0,0.0,0.0,0.0,0.0,0.0,0.0,0.0,0.0,-6.1505,-6.142,-6.1228,-6.1012,-6.0935,-6.0896,-6.0781,-6.0781,-6.0781,-6.0781,-6.0781,-6.0781,-6.0781,-6.0647,-6.0597,-6.0572,-6.0103,-5.9792,-5.9625,-5.9319,-5.9065,-5.8951,-5.8591,-5.8503,0.0,0.0,0.0,0.0,0.0,0.0,0.0,0.0,-5.7821,-5.7546,-5.7065,-5.6563,-5.6095,-5.5495,-5.5203,-5.4999,-5.4999,-5.4668,-5.4264,-5.4264,-5.3881,-5.3518,-5.3518,-5.3518,-5.3518,-5.3518,-5.3687,-5.3788,-5.3551,-5.3687,-5.3788,-5.3551,-5.2312,-5.1155,-5.0474,-4.9215,-4.8072,-4.7366,-4.7309,-4.7309,-4.7309,-4.7309,-4.7309,-4.7309,-4.7309,-4.7878,-4.9194,-4.9254,-4.9853,-5.1169,-5.1229,-5.1229,-5.1229,-5.1229,-5.1229,-5.1229,-5.1229,-5.2245,-5.4084,-5.4421,-5.5651,-5.7372,-5.7701,-5.7881,-5.7881,-5.7881,-5.8017,-5.8355,-5.9607,-6.0588,-6.14,-6.211,-6.2381,-6.2381,0.0,0.0,0.0,0.0,0.0,0.0,0.0,0.0,-6.1719,-6.1719,-6.1719,0.0,0.0,0.0,0.0,0.0,0.0,0.0,-6.1497,-6.1189,-6.0973,-6.0973,-6.0858,-6.0781,-6.0781,-6.0781,-6.0781,-6.0781,-6.0781,-6.0781,-6.0781,-6.0311,-6.0103,-6.0074,-5.9592,-5.9139,-5.8713,-5.8713,-5.8418,-5.7997,-5.7997,-5.7997,-5.7997,0.0,0.0,0.0,0.0,0.0,0.0,0.0,-5.7498,-5.6912,-5.6861,-5.5816,-5.4606,-5.4606,-5.4042,-5.3518,-5.3518,-5.3518,-5.3518,-5.3518,-5.3518,-5.3518,-5.3518,-5.3518,-5.3518,-5.3518,-5.4093,-5.4363,-5.3619,-5.4093,-5.4329,-5.3619,-5.1736,-5.0397,-5.0397,-4.8625,-4.7309,-4.7309,-4.7309,-4.7309,-4.7309,-4.7309,-4.7309,-4.7309,-4.7309,-4.7878,-4.9194,-4.9284,-4.9883,-5.1169,-5.1229,-5.1229,-5.1229,-5.1229,-5.1229,-5.1229,-5.1229,-5.1819,-5.29,-5.4084,-5.5166,-5.6282,-5.7372,-5.7881,-5.7881,-5.7881,-5.8321,-5.9066,-5.981,-6.0588,-6.1366,-6.211,-6.2381,-6.2381,0.0,0.0,0.0,0.0,0.0,0.0,0.0,0.0,-6.1719,-6.1719,-6.1719,0.0,0.0,0.0,0.0,0.0,0.0,0.0,-6.1151,-6.105,-6.0935,-6.0858,-6.0819,-6.0781,-6.0781,-6.0781,-6.0781,-6.0781,-6.0781,-6.0622,-6.0311,-6.0161,-5.9916,-5.9592,-5.9102,-5.8835,-5.8673,-5.8332,-5.8142,-5.7997,-5.7997,-5.7997,-5.7997,0.0,0.0,0.0,0.0,0.0,0.0,0.0,0.0,0.0,-5.5645,-5.4999,-5.4482,-5.4011,-5.3651,-5.3619,-5.4126,-5.389,-5.3619,-5.4126,-5.4262,-5.4262,-5.4262,-5.4262,-5.4262,-5.4262,-5.4025,-5.3754,-5.3551,-5.3687,-5.3754,-5.3551,-5.1736,-5.0397,-5.0397,-4.8625,-4.7309,-4.7309,-4.7309,-4.7309,-4.7309,-4.7309,-4.7309,-4.7309,-4.7728,-4.8356,-4.9224,-4.9703,-5.0331,-5.1199,-5.1229,-5.1229,-5.1229,-5.1229,-5.1229,-5.1229,-5.1229,-5.1819,-5.29,-5.4084,-5.5166,-5.6282,-5.7372,-5.7881,-5.7881,-5.7881,-5.8017,-5.8287,-5.9032,-5.981,-6.0554,-6.1332,-6.1941,-6.2381,0.0,0.0,0.0,0.0,0.0,0.0,0.0,0.0,-6.1719,-6.1719,-6.1719,-6.167,0.0,0.0,0.0,0.0,0.0,0.0,-6.1012,-6.0935,-6.0858,-6.0781,-6.0781,-6.0781,-6.0781,-6.0622,-6.0508,-6.0508,-6.0508,-6.0365,-6.0103,-5.9728,-5.9389,-5.9102,-5.8632,-5.8418,-5.8418,-5.8142,-5.7997,-5.7997,-5.7997,-5.7997,-5.7997,0.0,0.0,0.0,0.0,0.0,0.0,0.0,0.0,0.0,-5.4878,-5.4356,-5.4106,-5.3618,-5.3518,-5.3585,-5.4025,-5.4059,-5.4025,-5.4465,-5.4803,-5.5108,-5.5412,-5.5243,-5.504,-5.504,-5.4905,-5.4735,-5.4431,-5.4634,-5.4735,-5.4431,-5.2957,-5.175,-5.1459,-4.9622,-4.8207,-4.7934,-4.7538,-4.7309,-4.7309,-4.7309,-4.7429,-4.7668,-4.8057,-4.8686,-4.9613,-5.0032,-5.0541,-5.1199,-5.1229,-5.1229,-5.1229,-5.1229,-5.1386,-5.1911,-5.1911,-5.2485,-5.3569,-5.4253,-5.5166,-5.6282,-5.7372,-5.7881,-5.7881,-5.7881,-5.7881,-5.7949,-5.8727,-5.9471,-6.0216,-6.0994,-6.1772,-6.2381,0.0,0.0,-6.1719,-6.1719,0.0,0.0,0.0,0.0,-6.1719,-6.1719,-6.1719,-6.166,0.0,0.0,0.0,0.0,0.0,-6.0973,-6.0973,-6.0858,-6.0781,-6.0781,-6.0781,-6.0781,-6.0781,-6.0338,-6.0103,-6.0103,-6.0074,-6.0006,-5.9946,-5.9065,-5.8673,-5.8632,-5.8194,-5.7997,-5.7997,-5.7997,-5.7997,-5.7997,-5.7997,-5.795,-5.7904,-5.7904,0.0,0.0,0.0,0.0,0.0,0.0,0.0,0.0,-5.4544,-5.411,-5.3585,-5.3585,-5.3653,-5.3721,-5.3788,-5.4228,-5.4702,-5.4769,-5.531,-5.6021,-5.6731,-5.6393,-5.5886,-5.5818,-5.6292,-5.6494,-5.5852,-5.6258,-5.6494,-5.5818,-5.4795,-5.3832,-5.3066,-5.1248,-4.9677,-4.8924,-4.8031,-4.7489,-4.7489,-4.7489,-4.7728,-4.8327,-4.8416,-4.8985,-5.0182,-5.0301,-5.0601,-5.1199,-5.1229,-5.1199,-5.1386,-5.1386,-5.188,-5.3077,-5.3077,-5.3656,-5.4755,-5.4755,-5.5296,-5.6437,-5.748,-5.7881,-5.7881,-5.7881,-5.7881,-5.7949,-5.866,-5.937,-6.0114,-6.0892,-6.167,-6.2313,0.0,0.0,-6.1719,-6.1719,0.0,0.0,0.0,0.0,0.0,-6.1719,0.0,0.0,0.0,0.0,0.0,0.0,-6.1026,-6.0935,-6.0858,-6.0819,-6.0781,-6.0781,-6.0781,-6.0781,-6.0781,-6.0338,-6.0103,-6.0103,-5.976,-5.9354,-5.9028,-5.8796,-5.8466,-5.8142,-5.8042,-5.7997,-5.7997,-5.7997,-5.7997,-5.7997,-5.7997,-5.7679,-5.7116,-5.7116,-5.6773,0.0,0.0,0.0,0.0,0.0,0.0,0.0,-5.3946,-5.4025,-5.4363,-5.4363,-5.4769,-5.5378,-5.5953,-5.5784,-5.5615,-5.619,-5.6461,-5.6765,-5.7476,-5.7543,-5.7273,-5.6697,-5.6258,-5.5919,-5.575,-5.5852,-5.5886,-5.575,-5.4795,-5.377,-5.2727,-5.1493,-5.0321,-4.9337,-4.9014,-4.8835,-4.8835,-4.8835,-4.8895,-4.9045,-4.9523,-4.9942,-5.0242,-5.072,-5.1079,-5.1229,-5.1229,-5.1635,-5.2575,-5.2575,-5.3077,-5.4253,-5.4253,-5.4806,-5.5889,-5.5889,-5.647,-5.7554,-5.7808,-5.7881,-5.7881,-5.7881,-5.7881,-5.7915,-5.8051,-5.8592,-5.9336,-6.008,-6.0858,-6.1603,0.0,0.0,0.0,0.0,0.0,0.0,0.0,0.0,0.0,0.0,0.0,0.0,0.0,0.0,0.0,0.0,-6.0896,-6.0858,-6.0781,-6.0781,-6.0781,-6.0781,-6.0781,-6.0671,-6.0482,-5.9977,-5.9625,-5.9424,-5.8951,-5.8753,-5.8713,-5.8503,-5.8238,-5.7997,-5.7997,-5.7997,-5.7997,-5.7997,-5.7997,-5.7997,-5.7631,-5.7252,-5.6861,-5.6474,-5.6059,-5.578,-5.6169,0.0,0.0,0.0,0.0,0.0,0.0,0.0,-5.5141,-5.5141,-5.5412,-5.5784,-5.619,-5.6258,-5.6393,-5.7137,-5.734,-5.7408,-5.7814,-5.7881,-5.778,-5.7408,-5.7036,-5.6765,-5.6765,-5.6765,-5.6765,-5.6765,-5.6264,-5.5621,-5.4731,-5.3198,-5.1874,-5.0917,-4.9907,-4.9254,-4.9254,-4.9254,-4.9404,-4.9703,-5.0032,-5.0361,-5.069,-5.102,-5.1229,-5.1229,-5.1727,-5.2305,-5.29,-5.3396,-5.4221,-5.541,-5.541,-5.5968,-5.7039,-5.7039,-5.7372,-5.7881,-5.7881,-5.7881,-5.7881,-5.7881,-5.7881,-5.7881,-5.7881,-5.8355,-5.9099,-5.9844,-6.0622,-6.14,0.0,0.0,0.0,0.0,0.0,0.0,0.0,0.0,0.0,0.0,0.0,0.0,0.0,0.0,-6.0935,0.0,0.0,0.0,-6.0781,-6.0781,-6.0781,-6.0781,-6.0734,-6.0508,-6.0103,-5.9559,-5.9065,-5.8713,-5.8238,-5.8194,-5.8549,-5.815,-5.7997,-5.7997,-5.7997,-5.7997,-5.7997,-5.7997,-5.7997,-5.795,-5.7351,-5.6912,-5.6616,-5.5948,-5.5552,-5.532,-5.5495,-5.5059,-5.4454,-5.4683,0.0,0.0,0.0,0.0,-5.5919,-5.5919,-5.5987,-5.6089,-5.6089,-5.6528,-5.7137,-5.7746,-5.7881,-5.7881,-5.7881,-5.7881,-5.7881,-5.7881,-5.7881,-5.7881,-5.7881,-5.7881,-5.7881,-5.7881,-5.7881,-5.7606,-5.6819,-5.5193,-5.3745,-5.2973,-5.1313,-5.0183,-4.9944,-4.9944,-5.0065,-5.0361,-5.0421,-5.0723,-5.1449,-5.1479,-5.1542,-5.1819,-5.2723,-5.3309,-5.3483,-5.4389,-5.541,-5.6437,-5.6437,-5.6963,-5.7881,-5.7881,-5.7881,-5.7881,-5.7881,-5.7881,-5.7881,-5.7881,-5.7881,-5.7881,-5.7881,-5.8254,-5.893,-5.9776,-6.052,-6.1231,0.0,0.0,0.0,0.0,0.0,0.0,0.0,0.0,0.0,0.0,-6.143,-6.1229,0.0,-6.102,-6.0935,-6.0819,-6.0781,-6.0781,-6.0781,0.0,0.0,-6.0781,-6.0391,-6.0161,-6.0103,-5.9248,-5.8756,-5.8713,-5.8238,-5.8042,-5.8097,-5.8042,-5.7997,-5.7997,-5.7997,-5.7997,-5.7997,-5.7997,-5.7997,-5.7997,-5.7867,-5.7029,-5.5836,-5.5724,-5.4878,-5.3881,-5.4544,-5.4264,-5.3819,-5.515,-5.5135,0.0,0.0,0.0,-5.6664,-5.6664,-5.7103,-5.7611,-5.7611,-5.7679,-5.778,-5.7881,-5.7881,-5.7881,-5.7881,-5.7881,-5.7881,-5.7881,-5.7881,-5.7881,-5.7881,-5.7881,-5.7881,-5.7881,-5.7881,-5.752,-5.6415,-5.6039,-5.5455,-5.4466,-5.4051,-5.3458,-5.2564,-5.2387,-5.2001,-5.1173,-5.1079,-5.1544,-5.2664,-5.2634,-5.3165,-5.4084,-5.4337,-5.4806,-5.5777,-5.5889,-5.6547,-5.7628,-5.7628,-5.7735,-5.7881,-5.7881,-5.7881,-5.7881,-5.7881,-5.7881,-5.7881,-5.7881,-5.7881,-5.7881,-5.7881,-5.7949,-5.8186,-5.9573,-6.0182,-6.0452,0.0,0.0,0.0,0.0,0.0,0.0,0.0,0.0,0.0,0.0,0.0,-6.1099,-6.102,-6.0935,-6.0858,-6.0819,-6.0781,-6.0781,-6.0781,-6.0533,-6.043,-6.043,-5.9946,-5.9559,-5.9319,-5.8913,-5.8549,-5.8326,-5.8097,-5.7997,-5.7997,-5.7997,-5.7997,-5.7997,-5.7997,-5.7997,-5.7997,-5.7997,-5.7997,-5.795,-5.7546,-5.6721,-5.5724,-5.5724,-5.4757,-5.3618,-5.4328,-5.4346,-5.4228,-5.4904,-5.5451,-5.5886,-5.6224,0.0,0.0,0.0,-5.7645,-5.7881,-5.7881,-5.7881,-5.7881,-5.7881,-5.7881,-5.7881,-5.7881,-5.7881,-5.7881,-5.7881,-5.7881,-5.7881,-5.7881,-5.7881,-5.7881,-5.7881,-5.7881,-5.7735,-5.7222,-5.6624,-5.6047,-5.5538,-5.5002,-5.4421,-5.3913,-5.3828,-5.3656,-5.3165,-5.3077,-5.3309,-5.3828,-5.3828,-5.4084,-5.4589,-5.5134,-5.573,-5.6204,-5.6854,-5.7372,-5.7881,-5.7881,-5.7881,-5.7881,-5.7881,-5.7881,-5.7881,-5.7881,-5.7881,-5.7881,-5.7881,-5.7881,-5.7881,-5.7881,-5.7881,-5.8017,-5.9099,-5.9742,-6.025,0.0,0.0,0.0,0.0,0.0,0.0,0.0,0.0,0.0,0.0,0.0,-6.0935,-6.0935,0.0,0.0,0.0,-6.0781,-6.0757,-6.0622,-6.0311,-6.0074,-5.9916,-5.9458,-5.9065,-5.8713,-5.8591,-5.8332,-5.7997,-5.7997,-5.7997,-5.7997,-5.7997,-5.7997,-5.7997,-5.7997,-5.7997,-5.7997,-5.7997,-5.7997,-5.795,-5.7401,-5.6721,-5.6004,-5.578,-5.4878,-5.3849,-5.4661,-5.4789,-5.4703,-5.5247,-5.6062,-5.6833,-5.7036,-5.7442,0.0,0.0,0.0,-5.7881,-5.7881,-5.7881,-5.7881,-5.7881,-5.7881,-5.7881,-5.7881,-5.7881,-5.7881,-5.7881,-5.7881,-5.7881,-5.7881,-5.7881,-5.7881,-5.7881,-5.7881,-5.7881,-5.7881,-5.7189,-5.6624,-5.6624,-5.5889,-5.5329,-5.5052,-5.5002,-5.492,-5.4589,-5.4589,-5.4755,-5.5002,-5.5002,-5.5166,-5.541,-5.6204,-5.6624,-5.6624,-5.748,-5.7881,-5.7881,-5.7881,-5.7881,-5.7881,-5.7881,-5.7881,-5.7881,-5.7881,-5.7881,-5.7881,-5.7881,-5.7881,-5.7881,-5.7881,-5.7881,-5.7983,-5.8727,-5.9471,-6.0216,0.0,0.0,0.0,0.0,0.0,0.0,0.0,0.0,0.0,0.0,0.0,-6.0819,-6.0819,-6.0781,-6.0781,-6.0781,-6.0781,-6.0622,-6.0161,-6.0132,-5.9885,-5.9458,-5.899,0.0,-5.8713,-5.8282,-5.8042,-5.7997,-5.7997,-5.7997,-5.7997,-5.7997,-5.7997,-5.7997,-5.7997,-5.7997,-5.7997,-5.7997,-5.7997,-5.7997,-5.795,-5.7498,-5.6721,-5.6004,-5.5203,-5.4648,-5.5403,-5.5269,-5.4907,-5.7118,-5.733,-5.6934,-5.7611,-5.7848,-5.7881,0.0,0.0,0.0,-5.7881,-5.7881,-5.7881,-5.7881,-5.7881,-5.7881,-5.7881,-5.7881,-5.7881,-5.7881,-5.7881,-5.7881,-5.7881,-5.7881,-5.7881,-5.7881,-5.7881,-5.7881,-5.7881,-5.7881,-5.7808,-5.7808,-5.7808,-5.7297,-5.6204,-5.6126,-5.573,-5.4672,-5.4589,-5.5052,-5.6047,-5.6126,-5.6624,-5.7701,-5.7808,-5.7808,-5.7808,-5.7881,-5.7881,-5.7881,-5.7881,-5.7881,-5.7881,-5.7881,-5.7881,-5.7881,-5.7881,-5.7881,-5.7881,-5.7881,-5.7881,-5.7881,-5.7881,-5.7881,-5.7983,-5.8727,-5.9471,-6.0216,0.0,0.0,0.0,0.0,0.0,0.0,0.0,0.0,0.0,0.0,0.0,0.0,0.0,-6.0781,-6.0781,-6.0781,-6.0508,-6.0283,-6.0103,-5.9526,-5.9102,-5.8951,-5.8503,-5.8238,-5.8238,-5.8097,-5.7997,-5.7997,-5.7997,-5.7997,-5.7997,-5.7997,-5.7997,-5.7997,-5.7997,-5.7997,-5.7997,-5.7997,-5.7997,-5.7997,-5.7997,-5.7546,-5.6912,-5.7116,-5.6385,-5.5355,-5.5637,-5.5862,-5.6059,-5.6406,-5.6981,-5.7543,-5.7814,-5.7881,-5.7881,-5.7881,-5.7881,-5.7881,-5.7881,-5.7881,-5.7881,-5.7881,-5.7881,-5.7881,-5.7881,-5.7881,-5.7881,-5.7881,-5.7881,-5.7881,-5.7881,-5.7881,-5.7881,-5.7881,-5.7881,-5.7881,-5.7881,-5.7881,-5.7881,-5.7881,-5.7881,-5.7735,-5.7297,-5.7297,-5.7147,-5.6734,-5.6734,-5.6887,-5.7297,-5.7297,-5.748,-5.7881,-5.7881,-5.7881,-5.7881,-5.7881,-5.7881,-5.7881,-5.7881,-5.7881,-5.7881,-5.7881,-5.7881,-5.7881,-5.7881,-5.7881,-5.7881,-5.7881,-5.7881,-5.7881,-5.7881,-5.7881,-5.7915,-5.8186,-5.9066,-6.0148,0.0,0.0,0.0,0.0,0.0,-6.1151,-6.1151,-6.1012,-6.0935,-6.0935,0.0,0.0,0.0,0.0,-6.0734,-6.0597,-6.0283,-5.9946,-5.9625,-5.9065,-5.8632,-5.8503,-5.8186,-5.7997,-5.7997,-5.8253,-5.8253,-5.7997,-5.8253,-5.8253,-5.7997,-5.7997,-5.7997,-5.7997,-5.7997,-5.7997,-5.7997,-5.7997,-5.7997,-5.7997,-5.7726,-5.7351,-5.6912,-5.6876,-5.6385,-5.5702,-5.5719,-5.6012,-5.6452,-5.644,-5.6947,-5.7577,-5.7814,-5.7881,-5.7881,-5.7881,-5.7881,-5.7881,-5.7881,-5.7881,-5.7881,-5.7881,-5.7881,-5.7881,-5.7881,-5.7881,-5.7881,-5.7881,-5.7881,-5.7881,-5.7881,-5.7881,-5.7881,-5.7881,-5.7881,-5.7881,-5.7881,-5.7881,-5.7881,-5.7881,-5.7881,-5.7881,-5.7881,-5.7881,-5.7881,-5.7881,-5.7881,-5.7881,-5.7881,-5.7881,-5.7881,-5.7881,-5.7881,-5.7881,-5.7881,-5.7881,-5.7881,-5.7881,-5.7881,-5.7881,-5.7881,-5.7881,-5.7881,-5.7881,-5.7881,-5.7881,-5.7881,-5.7881,-5.7881,-5.7881,-5.7881,-5.7881,-5.7881,-5.7881,-5.8829,-6.0114,0.0,0.0,-6.0781,-6.0781,-6.0781,-6.0781,-6.0781,-6.0781,-6.0781,-6.0781,0.0,0.0,0.0,0.0,0.0,-6.0132,-6.0074,-5.9658,-5.8756,-5.8713,-5.8503,-5.8042,-5.7997,-5.7997,-5.7997,-5.8767,-5.8804,-5.7997,-5.8804,-5.8767,-5.7997,-5.7997,-5.7997,-5.7997,-5.7997,-5.7997,-5.7997,-5.7997,-5.7997,-5.795,-5.7202,-5.6912,-5.6721,-5.5238,-5.5084,-5.5716,-5.5715,-5.575,-5.5929,-5.7417,-5.7467,-5.6968,-5.7679,-5.7881,-5.7881,-5.7881,-5.7881,-5.7881,0.0,0.0,0.0,-5.7881,-5.7881,-5.7881,-5.7881,-5.7881,-5.7881,-5.7881,-5.7881,-5.7881,-5.7881,-5.7881,-5.7881,-5.7881,-5.7881,-5.7881,-5.7881,-5.7881,-5.7881,-5.7881,-5.7881,-5.7881,-5.7881,-5.7881,-5.7881,-5.7881,-5.7881,-5.7881,-5.7881,-5.7881,-5.7881,-5.7881,-5.7881,-5.7881,-5.7881,-5.7881,-5.7881,-5.7881,-5.7881,-5.7881,-5.7881,-5.7881,-5.7881,-5.7881,-5.7881,-5.7881,-5.7881,-5.7881,-5.7881,-5.7881,-5.7881,-5.7881,-5.7881,-5.7881,-5.8829,-6.0114,0.0,-6.0781,-6.0781,-6.0781,-6.0781,-6.0781,-6.0781,-6.0781,-6.0781,0.0,0.0,0.0,-6.0781,-6.0482,-6.0103,-5.9625,-5.9284,-5.899,-5.8753,-5.8375,-5.8142,-5.7997,-5.7997,-5.7997,-5.7997,-5.8217,-5.8217,-5.7997,-5.8217,-5.8217,-5.7997,-5.7997,-5.7997,-5.7997,-5.7997,-5.7726,-5.7252,-5.7774,-5.7997,-5.795,-5.7202,-5.6912,-5.6809,-5.578,-5.5552,-5.561,-5.5122,-5.5611,-5.6487,-5.6338,-5.691,-5.7611,-5.7814,-5.7881,-5.7881,-5.7881,-5.7881,-5.7881,-5.7881,0.0,0.0,0.0,0.0,0.0,-5.7881,-5.7881,-5.7881,-5.7881,-5.7881,-5.7881,-5.7881,-5.7881,-5.7881,-5.7881,-5.7881,-5.7881,-5.7881,-5.7881,-5.7881,-5.7881,-5.7881,-5.7881,-5.7881,-5.7881,-5.7881,-5.7881,-5.7881,-5.7881,-5.7881,-5.7881,-5.7881,-5.7881,-5.7881,-5.7881,-5.7881,-5.7881,-5.7881,-5.7881,-5.7881,-5.7881,-5.7881,-5.7881,-5.7881,-5.7881,-5.7881,-5.7881,-5.7881,-5.7881,-5.7881,-5.7881,-5.7881,-5.7881,-5.7881,-5.7881,-5.8829,-6.0114,-6.0781,-6.0781,-6.0781,-6.0781,-6.0781,-6.0781,-6.0781,-6.0781,-6.0781,0.0,0.0,0.0,-6.0508,-6.0245,-5.9855,-5.9139,-5.8874,-5.8632,-5.8418,-5.8142,-5.7997,-5.7997,-5.7997,-5.7997,-5.7997,-5.8327,-5.8327,-5.7997,-5.8327,-5.8327,-5.7997,-5.7997,-5.7997,-5.7997,-5.7679,-5.7449,-5.7351,-5.713,-5.7029,-5.6978,-5.6259,-5.5928,-5.5872,-5.5059,-5.4999,-5.5144,-5.4391,-5.5086,-5.6249,-5.5825,-5.6697,-5.7881,-5.7881,-5.7881,-5.7881,-5.7881,-5.7881,-5.7881,-5.7881,-5.7881,-5.7881,-5.7881,0.0,0.0,-5.7881,-5.7881,-5.7881,-5.7881,-5.7881,-5.7881,-5.7881,-5.7881,-5.7881,-5.7881,-5.7881,-5.7881,-5.7881,-5.7881,-5.7881,-5.7881,-5.7881,-5.7881,-5.7881,-5.7881,-5.7881,-5.7881,-5.7881,-5.7881,-5.7881,-5.7881,-5.7881,-5.7881,-5.7881,-5.7881,-5.7881,-5.7881,-5.7881,-5.7881,-5.7881,-5.7881,-5.7881,-5.7881,-5.7881,-5.7881,-5.7881,-5.7881,-5.7881,-5.7881,-5.7881,-5.7881,-5.7881,-5.7881,-5.7881,-5.7881,-5.8829,-6.0114,0.0,-6.0781,-6.0781,-6.0781,-6.0781,-6.0781,-6.0781,-6.0781,-6.0781,0.0,-6.0757,-6.0508,-5.9977,-5.9946,-5.9592,-5.8713,-5.8632,-5.8461,-5.8042,-5.7997,-5.7997,-5.7997,-5.7997,-5.7997,-5.7997,-5.8694,-5.8731,-5.7997,-5.8731,-5.8694,-5.7997,-5.795,-5.795,-5.795,-5.7116,-5.7116,-5.7642,-5.6169,-5.5552,-5.5437,-5.4818,-5.4606,-5.4544,-5.3783,-5.3881,-5.4356,-5.3717,-5.4427,-5.5706,-5.5927,-5.6833,-5.7881,-5.7881,-5.7881,-5.7881,-5.7881,-5.7881,-5.7881,-5.7881,-5.7881,-5.7881,-5.7881,-5.7881,0.0,-5.7881,-5.7881,-5.7881,-5.7881,-5.7881,-5.7881,-5.7881,-5.7881,-5.7881,-5.7881,-5.7881,-5.7881,-5.7881,-5.7881,-5.7881,-5.7881,-5.7881,-5.7881,-5.7881,-5.7881,-5.7881,-5.7881,-5.7881,-5.7881,-5.7881,-5.7881,-5.7881,-5.7881,-5.7881,-5.7881,-5.7881,-5.7881,-5.7881,-5.7881,-5.7881,-5.7881,-5.7881,-5.7881,-5.7881,-5.7881,-5.7881,-5.7881,-5.7881,-5.7881,-5.7881,-5.7881,-5.7881,-5.7881,-5.7881,-5.7881,-5.8829,-6.0114,-6.0781,-6.0781,-6.0781,-6.0781,-6.0781,-6.0781,-6.0781,-6.0781,-6.0781,-6.0781,-6.0482,-5.9916,-5.9103,-5.899,-5.8716,-5.8186,-5.8142,-5.8097,-5.7997,-5.7997,-5.7997,-5.7997,-5.7997,-5.7997,-5.7997,-5.8143,-5.8143,-5.7997,-5.8143,-5.8143,-5.7997,-5.7401,-5.7449,-5.795,-5.658,-5.6004,-5.6114,-5.5203,-5.4482,-5.3946,-5.4419,-5.4606,-5.4544,-5.3783,-5.3618,-5.3651,-5.3551,-5.4432,-5.5858,-5.7074,-5.7645,-5.7881,-5.7881,-5.7881,-5.7881,-5.7881,-5.7881,-5.7881,-5.7881,-5.7881,-5.7881,-5.7881,-5.7881,0.0,-5.7881,-5.7881,-5.7881,-5.7881,-5.7881,-5.7881,-5.7881,-5.7881,-5.7881,-5.7881,-5.7881,-5.7881,-5.7881,-5.7881,-5.7881,-5.7881,-5.7881,-5.7881,-5.7881,-5.7881,-5.7881,-5.7881,-5.7881,-5.7881,-5.7881,-5.7881,-5.7881,-5.7881,-5.7881,-5.7881,-5.7881,-5.7881,-5.7881,-5.7881,-5.7881,-5.7881,-5.7881,-5.7881,-5.7881,-5.7881,-5.7881,-5.7881,-5.7881,-5.7881,-5.7881,-5.7881,-5.7881,-5.7881,-5.7881,-5.7881,-5.8829,-6.0114,-6.0781,-6.0781,-6.0781,-6.0781,-6.0781,-6.0781,-6.0781,-6.0597,-6.0456,-6.0456,-6.0036,-5.9492,-5.8756,-5.8713,-5.8508,-5.8042,-5.7997,-5.7997,-5.7997,-5.7997,-5.7997,-5.7997,-5.7997,-5.7997,-5.7997,-5.7997,-5.804,-5.7983,-5.7983,-5.8014,-5.8015,-5.7603,-5.7478,-5.7402,-5.6233,-5.5672,-5.5667,-5.4482,-5.4042,-5.4042,-5.4042,-5.4042,-5.3977,-5.3685,-5.3518,-5.3518,-5.3518,-5.4465,-5.5886,-5.6968,-5.7577,-5.7881,-5.7881,-5.7881,-5.7881,-5.7881,-5.7881,-5.7881,-5.7881,-5.7881,-5.7881,-5.7881,-5.7881,0.0,0.0,-5.7881,-5.7881,-5.7881,-5.7881,-5.7881,-5.7881,-5.7881,-5.7881,-5.7881,-5.7881,-5.7881,-5.7881,-5.7881,-5.7881,-5.7881,-5.7881,-5.7881,-5.7881,-5.7881,-5.7881,-5.7881,-5.7881,-5.7881,-5.7881,-5.7881,-5.7881,-5.7881,-5.7881,-5.7881,-5.7881,-5.7881,-5.7881,-5.7881,-5.7881,-5.7881,-5.7881,-5.7881,-5.7881,-5.7881,-5.7881,-5.7881,-5.7881,-5.7881,-5.7881,-5.7881,-5.7881,-5.7881,-5.7881,-5.7881,-5.8829,-6.0114,-6.0781,-6.0781,-6.0781,-6.0781,-6.0781,-6.0781,-6.0781,-6.0391,-6.0044,-5.9855,-5.9492,-5.9065,-5.8632,-5.8549,-5.8418,-5.8042,-5.7997,-5.7997,-5.7997,-5.7997,-5.7997,-5.7997,-5.7997,-5.7997,-5.7997,-5.7967,-5.7996,-5.8015,-5.7999,-5.8009,-5.7977,-5.7857,-5.7504,-5.7081,-5.5973,-5.5556,-5.559,-5.411,-5.3815,-5.4328,-5.3717,-5.3518,-5.3518,-5.3518,-5.3518,-5.3518,-5.3653,-5.4566,-5.5818,-5.6562,-5.7273,-5.7881,-5.7881,-5.7881,-5.7881,-5.7881,-5.7881,-5.7881,-5.7881,-5.7881,-5.7881,-5.7881,-5.7881,-5.7881,0.0,0.0,0.0,-5.7881,-5.7881,-5.7881,-5.7881,-5.7881,-5.7881,-5.7881,-5.7881,-5.7881,-5.7881,-5.7881,-5.7881,-5.7881,-5.7881,-5.7881,-5.7881,-5.7881,-5.7881,-5.7881,-5.7881,-5.7881,-5.7881,-5.7881,-5.7881,-5.7881,-5.7881,-5.7881,-5.7881,-5.7881,-5.7881,-5.7881,-5.7881,-5.7881,-5.7881,-5.7881,-5.7881,-5.7881,-5.7881,-5.7881,-5.7881,-5.7881,-5.7881,-5.7881,-5.7881,-5.7881,-5.7881,-5.7881,-5.8829,-6.0114,-6.0781,-6.0781,-6.0781,-6.0781,-6.0781,-6.0781,-6.0781,-6.0391,-5.9823,-5.899,-5.8796,-5.8591,-5.8142,-5.8051,-5.8088,-5.7997,-5.7997,-5.7997,-5.7997,-5.7997,-5.7997,-5.7997,-5.7997,-5.7997,-5.7997,-5.8006,-5.7995,-5.8015,-5.8039,-5.8025,-5.7977,-5.7304,-5.7234,-5.7741,-5.5644,-5.5138,-5.5605,-5.4122,-5.3551,-5.3618,-5.3551,-5.3518,-5.3518,-5.3518,-5.3518,-5.3585,-5.4228,-5.5006,-5.5818,-5.6562,-5.7273,-5.7881,-5.7881,-5.7881,-5.7881,-5.7881,-5.7881,-5.7881,-5.7881,-5.7881,-5.7881,-5.7881,-5.7881,-5.7881,-5.7881,0.0,-5.7881,-5.7881,0.0,-5.7881,-5.7881,0.0,0.0,-5.7881,-5.7881,-5.7881,-5.7881,-5.7881,-5.7881,-5.7881,-5.7881,-5.7881,-5.7881,-5.7881,-5.7881,-5.7881,-5.7881,-5.7881,-5.7881,-5.7881,-5.7881,-5.7881,-5.7881,-5.7881,-5.7881,-5.7881,-5.7881,-5.7881,-5.7881,-5.7881,-5.7881,-5.7881,-5.7881,-5.7881,-5.7881,-5.7881,-5.7881,-5.7881,-5.7881,-5.7881,-5.7881,-5.7881,-5.7881,-5.7881,-5.8829,-6.0114,-6.0781,-6.0781,-6.0781,-6.0781,-6.0781,-6.0781,-6.0781,-6.0161,-5.9354,-5.8418,-5.8282,-5.8194,-5.8042,-5.7997,-5.7997,-5.7997,-5.7997,-5.7997,-5.7997,-5.7997,-5.7821,-5.7401,-5.7351,-5.7384,-5.7369,-5.7369,-5.7526,-5.7938,-5.7919,-5.7955,-5.7943,-5.7569,-5.7398,-5.7221,-5.586,-5.5179,-5.5005,-5.3923,-5.3518,-5.3518,-5.3518,-5.3518,-5.3518,-5.3518,-5.3518,-5.3551,-5.3856,-5.4702,-5.5784,-5.6055,-5.6934,-5.7881,-5.7881,-5.7881,-5.7881,-5.7881,-5.7881,-5.7881,-5.7881,-5.7881,-5.7881,-5.7881,-5.7881,-5.7881,-5.7881,-5.7881,-5.7881,-5.7881,0.0,0.0,0.0,0.0,0.0,0.0,-5.7881,-5.7881,-5.7881,-5.7881,-5.7881,-5.7881,-5.7881,-5.7881,-5.7881,-5.7881,-5.7881,-5.7881,-5.7881,-5.7881,-5.7881,-5.7881,-5.7881,-5.7881,-5.7881,-5.7881,-5.7881,-5.7881,-5.7881,-5.7881,-5.7881,-5.7881,-5.7881,-5.7881,-5.7881,-5.7881,-5.7881,-5.7881,-5.7881,-5.7881,-5.7881,-5.7881,-5.7881,-5.7881,-5.7949,-5.8389,-5.9201,-6.0182,-6.0781,-6.0781,-6.0781,-6.0781,-6.0781,-6.0734,-6.0456,-5.976,-5.8913,-5.8097,-5.7997,-5.7997,-5.7997,-5.7997,-5.7997,-5.7997,-5.7997,-5.7997,-5.7997,-5.7997,-5.7679,-5.6912,-5.6912,-5.6868,-5.6892,-5.687,-5.7219,-5.787,-5.791,-5.7911,-5.7881,-5.7881,-5.7611,-5.707,-5.6325,-5.5581,-5.4837,-5.4126,-5.3687,-5.3518,-5.3518,-5.3518,-5.3518,-5.3518,-5.3518,-5.3518,-5.3518,-5.4329,-5.5446,-5.5649,-5.6562,-5.7611,-5.7814,-5.7881,-5.7881,-5.7881,-5.7881,-5.7881,-5.7881,-5.7881,-5.7881,-5.7881,-5.7881,-5.7881,-5.7881,-5.7881,-5.7881,-5.7881,-5.7881,0.0,0.0,0.0,-5.7881,-5.7881,0.0,-5.7881,-5.7881,-5.7881,-5.7881,-5.7881,-5.7881,-5.7881,-5.7881,-5.7881,-5.7881,-5.7881,-5.7881,-5.7881,-5.7881,-5.7881,-5.7881,-5.7881,-5.7881,-5.7881,-5.7881,-5.7881,-5.7881,-5.7881,-5.7881,-5.7881,-5.7881,-5.7881,-5.7881,-5.7881,-5.7881,-5.7881,-5.7881,-5.7881,-5.7881,-5.7881,-5.7881,-5.8017,-5.8254,-5.8795,-5.9471,-6.0216,-6.0781,-6.0781,-6.0781,-6.0781,-6.0781,-6.0482,-5.9559,-5.9028,-5.8549,-5.8051,-5.7997,-5.7997,-5.7997,-5.7997,-5.7997,-5.7997,-5.7997,-5.7997,-5.7997,-5.7997,-5.7679,-5.6912,-5.6912,-5.6868,-5.6821,-5.6788,-5.714,-5.787,-5.7871,-5.792,-5.7881,-5.7881,-5.7881,-5.7814,-5.7103,-5.6359,-5.5649,-5.4871,-5.416,-5.3518,-5.3518,-5.3518,-5.3518,-5.3518,-5.3518,-5.3518,-5.3518,-5.3991,-5.4735,-5.548,-5.6224,-5.6968,-5.7679,-5.7881,-5.7881,-5.7881,-5.7881,-5.7881,-5.7881,-5.7881,-5.7881,-5.7881,-5.7881,-5.7881,-5.7881,-5.7881,-5.7881,-5.7881,-5.7881,-5.7881,-5.7881,-5.7881,-5.7881,-5.7881,-5.7881,0.0,0.0,-5.7881,-5.7881,-5.7881,-5.7881,-5.7881,-5.7881,-5.7881,-5.7881,-5.7881,-5.7881,-5.7881,-5.7881,-5.7881,-5.7881,-5.7881,-5.7881,-5.7881,-5.7881,-5.7881,-5.7881,-5.7881,-5.7881,-5.7881,-5.7881,-5.7881,-5.7881,-5.7881,-5.7881,-5.7881,-5.7881,-5.7881,-5.7881,-5.7881,-5.7881,-5.8355,-5.8998,-5.8998,-5.9471,-6.0216,-6.0781,-6.0781,-6.0781,-6.0781,-6.0533,-6.0006,-5.9065,-5.8796,-5.8508,-5.8051,-5.7997,-5.7997,-5.7997,-5.7997,-5.7997,-5.7997,-5.7997,-5.7997,-5.7997,-5.7546,-5.6927,-5.6114,-5.614,-5.6117,-5.6056,-5.6577,-5.7121,-5.7871,-5.7891,-5.7881,-5.7881,-5.7881,-5.7881,-5.7848,-5.7137,-5.6393,-5.5683,-5.4905,-5.416,-5.3518,-5.3518,-5.3518,-5.3518,-5.3518,-5.3518,-5.3518,-5.3518,-5.3957,-5.4702,-5.5446,-5.619,-5.6934,-5.7645,-5.7881,-5.7881,-5.7881,-5.7881,-5.7881,-5.7881,-5.7881,-5.7881,-5.7881,-5.7881,-5.7881,-5.7881,-5.7881,-5.7881,-5.7881,-5.7881,-5.7881,-5.7881,-5.7881,-5.7881,-5.7881,-5.7881,-5.7881,0.0,-5.7881,-5.7881,-5.7881,-5.7881,-5.7881,-5.7881,-5.7881,-5.7881,-5.7881,-5.7881,-5.7881,-5.7881,-5.7881,-5.7881,-5.7881,-5.7881,-5.7881,-5.7881,-5.7881,-5.7881,-5.7881,-5.7881,-5.7881,-5.7881,-5.7881,-5.7881,-5.7881,-5.7881,-5.7881,-5.7881,-5.7881,-5.7881,-5.7949,-5.8457,-5.8795,-5.9066,-5.9573,-6.0216,-6.0994,-6.0781,-6.0647,-6.0533,-6.0533,-6.0006,-5.9389,-5.8796,-5.8549,-5.8332,-5.8042,-5.7997,-5.7997,-5.7997,-5.7997,-5.7997,-5.7997,-5.7997,-5.7904,-5.7631,-5.7166,-5.6421,-5.5379,-5.5305,-5.53,-5.531,-5.6055,-5.6765,-5.7509,-5.7746,-5.7881,-5.7881,-5.7881,-5.7881,-5.7848,-5.7137,-5.6393,-5.5683,-5.4905,-5.416,-5.3518,-5.3518,-5.3518,-5.3518,-5.3518,-5.3518,-5.3518,-5.3518,-5.3822,-5.4329,-5.5074,-5.5818,-5.6562,-5.7273,-5.7679,-5.7881,-5.7881,-5.7881,-5.7881,-5.7881,-5.7881,-5.7881,-5.7881,-5.7881,-5.7881,-5.7881,-5.7881,-5.7881,-5.7881,-5.7881,-5.7881,-5.7881,-5.7881,-5.7881,-5.7881,-5.7881,-5.7881,0.0,-5.7881,-5.7881,-5.7881,-5.7881,-5.7881,-5.7881,-5.7881,-5.7881,-5.7881,-5.7881,-5.7881,-5.7881,-5.7881,-5.7881,-5.7881,-5.7881,-5.7881,-5.7881,-5.7881,-5.7881,-5.7881,-5.7881,-5.7881,-5.7881,-5.7881,-5.7881,-5.7881,-5.7881,-5.7881,-5.7881,-5.7881,-5.7881,-5.7949,-5.8727,-5.9167,-5.9505,-6.025,-6.1028,-6.1772,-6.0757,-6.0365,-6.0006,-6.0006,-5.9284,-5.8713,-5.8673,-5.8282,-5.7997,-5.7997,-5.7997,-5.7997,-5.7997,-5.7997,-5.7997,-5.7997,-5.7997,-5.7679,-5.6964,-5.6861,-5.615,-5.4634,-5.4579,-5.4578,-5.4566,-5.5344,-5.6055,-5.6765,-5.7476,-5.7814,-5.778,-5.7814,-5.7814,-5.7746,-5.707,-5.6359,-5.5615,-5.4905,-5.416,-5.3518,-5.3518,-5.3518,-5.3518,-5.3518,-5.3518,-5.3518,-5.3518,-5.3518,-5.3619,-5.4329,-5.5074,-5.5784,-5.6562,-5.7273,-5.7848,-5.7881,-5.7881,-5.7881,-5.7881,-5.7881,-5.7881,-5.7881,-5.7881,-5.7881,-5.7881,-5.7881,-5.7881,-5.7881,-5.7881,-5.7881,-5.7881,-5.7881,-5.7881,-5.7881,-5.7881,-5.7881,-5.7881,-5.7881,-5.7881,-5.7881,-5.7881,-5.7881,-5.7881,-5.7881,-5.7881,-5.7881,-5.7881,-5.7881,-5.7881,-5.7881,-5.7881,-5.7881,-5.7881,-5.7881,-5.7881,-5.7881,-5.7881,-5.7881,-5.7881,-5.7881,-5.7881,-5.7881,-5.7881,-5.7881,-5.7881,-5.7881,-5.7881,-5.7881,-5.7915,-5.8017,-5.8795,-5.9539,-6.0317,-6.1061,-6.1806,-6.2381,-6.0338,-5.9592,-5.9065,-5.9065,-5.8874,-5.8591,-5.8238,-5.8051,-5.7997,-5.7997,-5.7997,-5.7997,-5.7997,-5.7997,-5.7997,-5.7997,-5.7997,-5.7679,-5.6964,-5.6313,-5.561,-5.4634,-5.4556,-5.4635,-5.46,-5.5344,-5.5818,-5.5987,-5.6731,-5.6799,-5.6292,-5.6833,-5.6799,-5.6258,-5.6089,-5.5581,-5.4871,-5.4668,-5.416,-5.3518,-5.3518,-5.3518,-5.3518,-5.3518,-5.3518,-5.3518,-5.3518,-5.3518,-5.3619,-5.4329,-5.4735,-5.5108,-5.6393,-5.6934,-5.7171,-5.7712,-5.7881,-5.7881,-5.7881,-5.7881,-5.7881,-5.7881,-5.7881,-5.7881,-5.7881,-5.7881,-5.7881,-5.7881,-5.7881,-5.7881,-5.7881,-5.7881,-5.7881,-5.7881,-5.7881,-5.7881,-5.7881,-5.7881,-5.7881,-5.7881,-5.7881,-5.7881,-5.7881,-5.7881,-5.7881,-5.7881,-5.7881,-5.7881,-5.7881,-5.7881,-5.7881,-5.7881,-5.7881,-5.7881,-5.7881,-5.7881,-5.7881,-5.7881,-5.7881,-5.7881,-5.7881,-5.7881,-5.7881,-5.7881,-5.7881,-5.7881,-5.7881,-5.7881,-5.822,-5.8795,-5.9539,-6.0622,-6.1806,-6.2042,-6.2245,-6.2381,-6.0189,-5.9319,-5.8632,-5.8418,-5.8375,-5.8326,-5.8042,-5.7997,-5.7997,-5.7997,-5.7997,-5.7997,-5.7997,-5.7997,-5.7997,-5.7997,-5.7997,-5.7546,-5.6421,-5.6259,-5.5552,-5.4171,-5.4453,-5.4463,-5.4126,-5.4837,-5.5209,-5.5209,-5.5953,-5.6122,-5.5716,-5.6122,-5.6122,-5.5716,-5.5378,-5.5006,-5.4566,-5.4262,-5.389,-5.3518,-5.3518,-5.3518,0.0,-5.3518,-5.3518,-5.3518,-5.3518,-5.3518,-5.3551,-5.3991,-5.4329,-5.4735,-5.5581,-5.6292,-5.6867,-5.7306,-5.7645,-5.7881,-5.7881,-5.7881,-5.7881,-5.7881,-5.7881,-5.7881,-5.7881,-5.7881,-5.7881,-5.7881,-5.7881,-5.7881,-5.7881,-5.7881,-5.7881,-5.7881,-5.7881,-5.7881,-5.7881,-5.7881,-5.7881,-5.7881,-5.7881,-5.7881,-5.7881,-5.7881,-5.7881,-5.7881,-5.7881,-5.7881,-5.7881,-5.7881,-5.7881,-5.7881,-5.7881,-5.7881,-5.7881,-5.7881,-5.7881,-5.7881,-5.7881,-5.7881,-5.7881,-5.7881,-5.7881,-5.7881,-5.7881,-5.7881,-5.7915,-5.8254,-5.8626,-5.9133,-6.0216,-6.1332,-6.2381,-6.2381,-6.2381,-6.2381,-6.0132,-5.9248,-5.8503,-5.8051,-5.7997,-5.7997,-5.7997,-5.7997,-5.7997,-5.7997,-5.7997,-5.7997,-5.7997,-5.7997,-5.7997,-5.7997,-5.7997,-5.7364,-5.5948,-5.6421,-5.5816,-5.3717,-5.4171,-5.4171,-5.3484,-5.4126,-5.4465,-5.4465,-5.5209,-5.5513,-5.5412,-5.5513,-5.5513,-5.5412,-5.4735,-5.4465,-5.4397,-5.3788,-5.3518,-5.3518,-5.3518,-5.3518,-5.3518,-5.3518,-5.3518,-5.3518,-5.3518,-5.3518,-5.3518,-5.3518,-5.3923,-5.4465,-5.4566,-5.548,-5.6562,-5.6731,-5.7239,-5.778,-5.7848,-5.7881,-5.7881,-5.7881,-5.7881,-5.7881,-5.7881,-5.7881,-5.7881,-5.7881,-5.7881,-5.7881,-5.7881,-5.7881,-5.7881,-5.7881,-5.7881,-5.7881,-5.7881,-5.7881,-5.7881,-5.7881,-5.7881,0.0,-5.7881,-5.7881,-5.7881,-5.7881,-5.7881,-5.7881,-5.7881,-5.7881,-5.7881,-5.7881,-5.7881,-5.7881,-5.7881,-5.7881,-5.7881,-5.7881,-5.7881,-5.7881,-5.7881,-5.7881,-5.7881,-5.7881,-5.7881,-5.7881,-5.7949,-5.8693,-5.9133,-5.9438,-6.0892,-6.1839,-6.2381,-6.2381,-6.2381,-6.2381,-5.9658,-5.8756,-5.8097,-5.7997,-5.7997,-5.7997,-5.7997,-5.7997,-5.7997,-5.7997,-5.7997,-5.7997,-5.7997,-5.7997,-5.7997,-5.7997,-5.7997,-5.7631,-5.6721,-5.6204,-5.5437,-5.4419,-5.3946,-5.3618,-5.3518,-5.3619,-5.3687,-5.3687,-5.4431,-5.4465,-5.389,-5.4499,-5.4465,-5.389,-5.3754,-5.3687,-5.3687,-5.3551,-5.3518,-5.3518,-5.3518,-5.3518,-5.3518,-5.3518,-5.3518,-5.3518,-5.3518,-5.3518,-5.3518,-5.3518,-5.3585,-5.3788,-5.4397,-5.4769,-5.5209,-5.6427,-5.69,-5.7137,-5.7712,-5.7881,-5.7881,-5.7881,-5.7881,-5.7881,-5.7881,-5.7881,-5.7881,-5.7881,-5.7881,-5.7881,-5.7881,-5.7881,-5.7881,-5.7881,-5.7881,-5.7881,-5.7881,-5.7881,-5.7881,-5.7881,-5.7881,-5.7881,-5.7881,-5.7881,-5.7881,-5.7881,-5.7881,-5.7881,-5.7881,-5.7881,-5.7881,-5.7881,-5.7881,-5.7881,-5.7881,-5.7881,-5.7881,-5.7881,-5.7881,-5.7881,-5.7881,-5.7881,-5.7881,-5.7881,-5.7881,-5.7881,-5.7949,-5.8693,-5.9776,-6.0994,-6.1873,-6.2279,-6.2381,-6.2381,-6.2381,-6.2381,-5.9492,-5.8632,-5.7997,-5.7997,-5.7997,-5.7997,-5.7997,-5.7997,-5.7997,-5.7997,-5.7997,-5.7997,-5.7997,-5.7997,-5.7997,-5.7997,-5.7997,-5.7679,-5.6964,-5.6563,-5.5816,-5.4634,-5.4264,-5.3881,-5.3518,-5.3518,-5.3518,-5.3518,-5.3856,-5.3856,-5.3518,-5.3856,-5.3856,-5.3518,-5.3518,-5.3518,-5.3518,-5.3518,-5.3518,-5.3518,-5.3518,-5.3518,-5.3518,-5.3518,-5.3518,-5.3518,-5.3518,-5.3518,-5.3518,-5.3518,-5.3518,-5.3551,-5.3923,-5.4296,-5.4735,-5.5446,-5.619,-5.6867,-5.7239,-5.7611,-5.7881,-5.7881,-5.7881,-5.7881,-5.7881,-5.7881,-5.7881,-5.7881,-5.7881,-5.7881,-5.7881,-5.7881,-5.7881,-5.7881,-5.7881,-5.7881,-5.7881,-5.7881,-5.7881,-5.7881,-5.7881,-5.7881,-5.7881,-5.8246,-5.8317,-5.7954,-5.7881,-5.7881,-5.7881,-5.7881,-5.7881,-5.7881,-5.7881,-5.7881,-5.7881,-5.7881,-5.7881,-5.7881,-5.7881,-5.7881,-5.7881,-5.7881,-5.7881,-5.7881,-5.7881,-5.7881,-5.7983,-5.9099,-6.0486,-6.1907,-6.2245,-6.2381,-6.2381,-6.2381,-6.2381,-6.2381,-5.9526,-5.8796,-5.8142,-5.8142,-5.8088,-5.7997,-5.7997,-5.7997,-5.7997,-5.7997,-5.7997,-5.7997,-5.7997,-5.7997,-5.7997,-5.7997,-5.7997,-5.7774,-5.7166,-5.6964,-5.6259,-5.4878,-5.4695,-5.4264,-5.3518,-5.3518,-5.3518,-5.3518,-5.3518,-5.3518,-5.3518,-5.3518,-5.3518,-5.3518,-5.3518,-5.3518,-5.3518,-5.3518,-5.3518,-5.3518,-5.3518,-5.3518,-5.3518,-5.3518,-5.3518,-5.3518,-5.3518,-5.3518,-5.3518,-5.3518,-5.3518,-5.3518,-5.3518,-5.389,-5.4397,-5.4532,-5.5412,-5.6393,-5.6697,-5.7205,-5.7679,-5.7848,-5.7881,-5.7881,-5.7881,-5.7881,-5.7881,-5.7881,-5.7881,-5.7881,-5.7881,-5.7881,-5.7881,-5.7881,-5.7881,-5.7881,-5.7881,-5.7881,-5.7881,-5.7881,-5.7881,-5.7881,-5.7881,-5.8633,-5.8806,-5.8174,-5.8137,-5.8065,-5.7881,-5.7881,-5.7881,-5.7881,-5.7881,-5.7881,-5.7881,-5.7881,-5.7881,-5.7881,-5.7881,-5.7881,-5.7881,-5.7881,-5.7881,-5.7881,-5.7881,-5.8084,-5.8457,-5.981,-6.1163,-6.2381,-6.2381,-6.2381,-6.2381,-6.2381,-6.2381,-6.2381,-6.0006,-5.9284,-5.8632,-5.8632,-5.8282,-5.7997,-5.7997,-5.7997,-5.7997,-5.7997,-5.7997,-5.7997,-5.7997,-5.7997,-5.7997,-5.7997,-5.7997,-5.7997,-5.7904,-5.7302,-5.651,-5.5667,-5.4999,-5.4264,-5.3518,-5.3518,-5.3518,-5.3518,-5.3518,-5.3518,-5.3518,-5.3518,-5.3518,-5.3518,-5.3518,-5.3518,-5.3518,-5.3518,-5.3518,-5.3518,-5.3518,-5.3518,-5.3518,-5.3518,-5.3518,-5.3518,-5.3518,-5.3518,-5.3518,-5.3518,-5.3518,-5.3518,-5.3518,-5.3551,-5.3721,-5.4397,-5.4702,-5.5074,-5.6427,-5.6867,-5.707,-5.7712,-5.7881,-5.7881,-5.7881,-5.7881,-5.7881,-5.7881,-5.7881,-5.7881,-5.7881,-5.7881,-5.7881,-5.7881,-5.7881,-5.7881,-5.7881,-5.7881,-5.7881,-5.7881,-5.7881,-5.7881,-5.7881,-5.8633,-5.9044,-5.8976,-5.8976,-5.8703,-5.7954,-5.7881,-5.7881,-5.7881,-5.7881,-5.7881,-5.7881,-5.7881,-5.7881,-5.7881,-5.7881,-5.7881,-5.7881,-5.7881,-5.7881,-5.7881,-5.7881,-5.866,-5.9945,-6.0825,-6.167,-6.2381,-6.2381,-6.2381,-6.2381,-6.2381,-6.2381,-6.2381,-6.0103,-5.9319,-5.8713,-5.8713,-5.8326,-5.7997,-5.7997,-5.7997,-5.7997,-5.7997,-5.7997,-5.7997,-5.7997,-5.7997,-5.7997,-5.7997,-5.7997,-5.7997,-5.7997,-5.7302,-5.6757,-5.6421,-5.5667,-5.4939,-5.4171,-5.4171,-5.3946,-5.3518,-5.3518,-5.3518,-5.3518,-5.3518,-5.3518,-5.3518,-5.3518,-5.3518,-5.3518,-5.3518,-5.3518,-5.3518,-5.3518,-5.3518,-5.3518,-5.3518,-5.3518,-5.3518,-5.3518,-5.3518,-5.3518,-5.3518,-5.3518,-5.3518,-5.3518,-5.3518,-5.3551,-5.3856,-5.4262,-5.4735,-5.531,-5.5818,-5.6325,-5.707,-5.7239,-5.734,-5.778,-5.7881,-5.7881,-5.7881,-5.7881,-5.7881,-5.7881,-5.7881,-5.7881,-5.7881,-5.7881,-5.7881,-5.7881,-5.7881,-5.7881,-5.7881,-5.7881,-5.7881,-5.7881,-5.8633,-5.8977,-5.8458,-5.9311,-5.9509,-5.8703,-5.8633,-5.8388,-5.7881,-5.7881,-5.7881,-5.7881,-5.7881,-5.7881,-5.7881,-5.7881,-5.7881,-5.7881,-5.7881,-5.7881,-5.7915,-5.8355,-5.9133,-6.0148,-6.096,-6.1738,-6.2381,-6.2381,-6.2381,-6.2381,-6.2381,-6.2381,-6.2381,-6.0311,-5.9526,-5.8913,-5.8913,-5.8418,-5.7997,-5.7997,-5.7997,-5.7997,-5.7997,-5.7997,-5.7997,-5.7997,-5.7997,-5.7997,-5.7997,-5.7997,-5.7997,-5.7997,-5.7498,-5.7116,-5.6912,-5.6114,-5.5379,-5.4606,-5.4356,-5.4042,-5.3518,-5.3518,-5.3518,-5.3518,-5.3518,-5.3518,-5.3518,-5.3518,-5.3518,-5.3518,-5.3518,-5.3518,-5.3518,-5.3518,-5.3518,-5.3518,-5.3518,-5.3518,-5.3518,-5.3518,-5.3518,-5.3518,-5.3518,-5.3518,-5.3518,-5.3518,-5.3518,-5.3518,-5.3518,-5.3856,-5.4329,-5.4532,-5.4972,-5.5547,-5.6292,-5.663,-5.6934,-5.7442,-5.7746,-5.7881,-5.7881,-5.7881,-5.7881,-5.7881,-5.7881,-5.7881,-5.7881,-5.7881,-5.7881,-5.7881,-5.7881,-5.7881,-5.7881,-5.7881,-5.7881,-5.7881,-5.8668,-5.8909,-5.8317,-5.9609,-5.9896,-5.8806,-5.8737,-5.8494,-5.7881,-5.7881,-5.7881,-5.7881,-5.7881,-5.7881,-5.7881,-5.7881,-5.7881,-5.7881,-5.7881,-5.7881,-5.7949,-5.893,-5.9641,-6.0182,-6.1197,-6.1907,-6.2381,-6.2381,-6.2381,-6.2381,-6.2381,-6.2381,-6.2381,-6.0781,-6.0044,-5.9389,-5.9389,-5.8632,-5.7997,-5.7997,-5.7997,-5.7997,-5.7997,-5.7997,-5.7997,-5.7997,-5.7997,-5.7997,-5.7997,-5.7997,-5.7997,-5.7997,-5.7997,-5.7679,-5.6912,-5.6114,-5.5379,-5.4606,-5.3881,-5.3518,-5.3518,-5.3518,-5.3518,-5.3518,-5.3518,-5.3518,-5.3518,-5.3518,-5.3518,-5.3518,-5.3518,-5.3518,-5.3518,-5.3518,-5.3518,-5.3518,-5.3518,-5.3518,-5.3518,-5.3518,-5.3518,-5.3518,-5.3518,-5.3518,-5.3518,-5.3518,-5.3518,-5.3518,-5.3518,-5.3518,-5.3687,-5.4397,-5.46,-5.4769,-5.5547,-5.6258,-5.6799,-5.6799,-5.7374,-5.7881,-5.7881,-5.7881,-5.7881,-5.7881,-5.7881,-5.7881,-5.7881,-5.7881,-5.7881,-5.7881,-5.7881,-5.7881,-5.7881,-5.7881,-5.7881,-5.7881,-5.8633,-5.9111,-5.9111,-5.9896,-5.9639,-5.8027,-5.7881,-5.7881,-5.7881,-5.7881,-5.7881,-5.7881,-5.7881,-5.7881,-5.7881,-5.7881,-5.7881,-5.7881,-5.7881,-5.7881,-5.7983,-5.9438,-6.008,-6.0216,-6.1738,-6.2381,-6.2381,-6.2381,-6.2381,-6.2381,-6.2381,-6.2381,-6.2381,-6.0781,-6.0036,-5.9389,-5.9389,-5.8632,-5.7997,-5.7997,-5.7997,-5.7997,-5.7997,-5.7997,-5.7997,-5.7997,-5.7997,-5.7997,-5.7997,-5.7997,-5.7997,-5.7997,-5.7997,-5.7904,-5.7679,-5.7413,-5.6927,-5.615,-5.5414,-5.4757,-5.4264,-5.3717,-5.3518,-5.3518,-5.3518,-5.3518,-5.3518,-5.3518,-5.3518,-5.3518,-5.3518,-5.3518,-5.3518,-5.3518,-5.3518,-5.3518,-5.3518,-5.3518,-5.3518,-5.3518,-5.3518,-5.3518,-5.3518,-5.3518,-5.3518,-5.3518,-5.3518,-5.3518,-5.3518,-5.3518,-5.3551,-5.3788,-5.3856,-5.4025,-5.4769,-5.5141,-5.5412,-5.5953,-5.663,-5.7273,-5.778,-5.7881,-5.7881,-5.7881,-5.7881,-5.7881,-5.7881,-5.7881,-5.7881,-5.7881,-5.7881,-5.7881,-5.7881,-5.7881,-5.7881,-5.7881,-5.8137,-5.8246,-5.8246,-5.8528,-5.8703,-5.8737,-5.8737,-5.8424,-5.7881,-5.7881,-5.7881,-5.7881,-5.7881,-5.7881,-5.7881,-5.7881,-5.7881,-5.7881,-5.7881,-5.7881,-5.7983,-5.9471,-6.0114,-6.0216,-6.1738,-6.2381,-6.2381,-6.2381,-6.2381,-6.2381,-6.2381,-6.2381,-6.2381,-6.0319,-5.996,-5.9592,-5.9424,-5.8756,-5.8194,-5.8042,-5.7997,-5.7997,-5.7997,-5.7997,-5.7997,-5.7997,-5.7997,-5.7997,-5.7997,-5.7997,-5.7997,-5.7997,-5.7997,-5.7997,-5.7997,-5.7726,-5.7351,-5.6912,-5.6114,-5.5495,-5.5024,-5.4544,-5.4171,-5.3881,-5.3881,-5.3783,-5.3518,-5.3518,-5.3518,-5.3518,-5.3518,-5.3518,-5.3518,-5.3518,-5.3518,-5.3518,-5.3518,-5.3518,-5.3518,-5.3518,-5.3518,-5.3518,-5.3518,-5.3518,-5.3518,-5.3518,-5.3518,-5.3518,-5.3518,-5.3518,-5.3518,-5.3518,-5.3518,-5.3619,-5.4059,-5.4397,-5.4769,-5.5547,-5.6055,-5.6528,-5.6968,-5.7273,-5.7476,-5.7476,-5.7712,-5.7881,-5.7881,-5.7881,-5.7881,-5.7881,-5.7881,-5.7881,-5.7881,-5.7881,-5.7881,-5.7881,-5.7881,-5.7881,-5.7881,-5.7881,-5.8137,-5.8633,-5.8633,-5.8458,-5.7881,-5.7881,-5.7881,-5.7881,-5.7881,-5.7881,-5.7881,-5.7881,-5.7881,-5.7881,-5.7881,-5.7881,-5.7983,-5.9471,-6.0114,-6.0216,-6.1738,-6.2381,-6.2381,-6.2381,-6.2381,-6.2381,-6.2381,-6.2381,-6.2381,-5.9473,-5.9752,-5.984,-5.9458,-5.899,-5.8466,-5.8088,-5.7997,-5.7997,-5.7997,-5.7997,-5.7997,-5.7997,-5.7997,-5.7997,-5.7997,-5.7997,-5.7997,-5.7997,-5.7997,-5.7997,-5.7997,-5.7351,-5.6964,-5.6964,-5.6204,-5.578,-5.5724,-5.5724,-5.5379,-5.4695,-5.4695,-5.4264,-5.3551,-5.3551,-5.3551,-5.3518,-5.3518,-5.3518,-5.3518,-5.3518,-5.3518,-5.3518,-5.3518,-5.3518,-5.3518,-5.3518,-5.3518,-5.3518,-5.3518,-5.3518,-5.3518,-5.3518,-5.3518,-5.3518,-5.3518,-5.3518,-5.3518,-5.3518,-5.3518,-5.3518,-5.3518,-5.4025,-5.4702,-5.548,-5.5649,-5.5649,-5.5716,-5.6258,-5.6731,-5.6731,-5.7273,-5.7746,-5.7814,-5.7814,-5.7814,-5.7881,-5.7881,-5.7881,-5.7881,-5.7881,-5.7881,-5.7881,-5.7881,-5.7881,-5.7881,-5.7881,-5.7881,-5.7881,-5.7881,-5.7881,-5.7881,-5.7881,-5.7881,-5.7881,-5.7881,-5.7881,-5.7881,-5.7881,-5.7881,-5.7881,-5.7881,-5.7881,-5.7983,-5.9404,-6.0047,-6.0216,-6.1704,-6.2347,-6.2381,-6.2381,-6.2381,-6.2381,-6.2381,-6.2381,-6.2381,-5.9396,-5.9026,-5.8736,-5.9311,-5.8753,-5.8142,-5.8042,-5.7997,-5.7997,-5.7997,-5.7997,-5.7997,-5.7997,-5.7997,-5.7997,-5.7997,-5.7997,-5.7997,-5.7997,-5.7997,-5.7997,-5.7997,-5.7821,-5.7726,-5.7726,-5.7015,-5.6313,-5.5724,-5.5724,-5.561,-5.5437,-5.5437,-5.5059,-5.4328,-5.4328,-5.4042,-5.3518,-5.3518,-5.3518,-5.3518,-5.3518,-5.3518,-5.3518,-5.3518,-5.3518,-5.3518,-5.3518,-5.3518,-5.3518,-5.3518,-5.3518,-5.3518,-5.3518,-5.3518,-5.3518,-5.3518,-5.3518,-5.3518,-5.3518,-5.3518,-5.3518,-5.3518,-5.3619,-5.3957,-5.4702,-5.4871,-5.5006,-5.5581,-5.5852,-5.5987,-5.5987,-5.6122,-5.6427,-5.6968,-5.707,-5.7273,-5.7814,-5.7881,-5.7881,-5.7881,-5.7881,-5.7881,-5.7881,-5.7881,-5.7881,-5.7881,-5.7881,-5.7881,-5.7881,-5.7881,-5.7881,-5.7881,-5.7881,-5.7881,-5.7881,-5.7881,-5.7881,-5.7881,-5.7881,-5.7881,-5.7881,-5.7881,-5.7881,-5.7949,-5.8863,-5.9573,-6.0182,-6.1163,-6.1873,-6.2381,-6.2381,-6.2381,-6.2381,-6.2381,-6.2381,-6.2381,-5.828,-5.8259,-5.8327,-5.874,-5.8353,-5.8058,-5.8015,-5.7997,-5.7997,-5.7997,-5.7997,-5.7997,-5.7997,-5.7997,-5.7997,-5.7997,-5.7997,-5.7997,-5.7997,-5.7997,-5.7997,-5.7997,-5.7997,-5.7997,-5.7997,-5.7631,-5.7166,-5.6737,-5.6737,-5.658,-5.6259,-5.5893,-5.532,-5.4606,-5.4264,-5.3881,-5.3518,-5.3518,-5.3518,-5.3518,-5.3518,-5.3518,-5.3518,-5.3518,-5.3518,-5.3518,-5.3518,-5.3518,-5.3518,-5.3518,-5.3518,-5.3518,-5.3518,-5.3518,-5.3518,-5.3518,-5.3518,-5.3518,-5.3518,-5.3518,-5.3518,-5.3518,-5.3518,-5.3619,-5.4025,-5.4093,-5.4194,-5.4634,-5.4972,-5.5209,-5.5209,-5.548,-5.5852,-5.6258,-5.6325,-5.6461,-5.6833,-5.69,-5.7036,-5.734,-5.7408,-5.7509,-5.7848,-5.7881,-5.7881,-5.7881,-5.7881,-5.7881,-5.7881,-5.7881,-5.7881,-5.7881,-5.7881,-5.7881,-5.7881,-5.7881,-5.7881,-5.7881,-5.7881,-5.7881,-5.7881,-5.7881,-5.7881,-5.7915,-5.8693,-5.9438,-6.0148,-6.096,-6.1738,-6.2381,-6.2381,-6.2381,-6.2381,-6.2381,-6.2381,-6.2381,-5.6973,-5.7543,-5.7979,-5.7905,-5.7853,-5.7829,-5.7847,-5.7813,-5.785,-5.796,-5.7997,-5.7997,-5.7997,-5.7997,-5.7997,-5.7997,-5.7997,-5.7997,-5.7997,-5.7997,-5.7997,-5.7997,-5.7997,-5.7997,-5.7997,-5.7997,-5.7997,-5.7997,-5.7997,-5.7679,-5.7065,-5.6367,-5.5667,-5.4939,-5.4299,-5.3946,-5.3849,-5.3717,-5.3685,-5.3685,-5.3551,-5.3518,-5.3518,-5.3518,-5.3518,-5.3518,-5.3518,-5.3518,-5.3518,-5.3518,-5.3518,-5.3518,-5.3518,-5.3518,-5.3518,-5.3518,-5.3518,-5.3518,-5.3518,-5.3518,-5.3518,-5.3518,-5.3518,-5.3518,-5.3518,-5.3518,-5.3518,-5.3518,-5.3991,-5.4431,-5.4431,-5.4972,-5.5412,-5.5547,-5.5547,-5.5581,-5.5683,-5.5716,-5.5953,-5.6562,-5.663,-5.6867,-5.7509,-5.7645,-5.7712,-5.7712,-5.7814,-5.7881,-5.7881,-5.7881,-5.7881,-5.7881,-5.7881,-5.7881,-5.7881,-5.7881,-5.7881,-5.7881,-5.7881,-5.7881,-5.7881,-5.7881,-5.7881,-5.7915,-5.8558,-5.9268,-6.0013,-6.0791,-6.1569,-6.2245,-6.2347,-6.2381,-6.2381,-6.2381,-6.2381,-6.2381,-5.6857,-5.6803,-5.6702,-5.704,-5.6778,-5.662,-5.6948,-5.7005,-5.7226,-5.7923,-5.7997,-5.7997,-5.7997,-5.7997,-5.7997,-5.7997,-5.7997,-5.7997,-5.7997,-5.7997,-5.7997,-5.7997,-5.7997,-5.7997,-5.7997,-5.7997,-5.7997,-5.7997,-5.7997,-5.795,-5.7821,-5.769,-5.7266,-5.6563,-5.6403,-5.5984,-5.532,-5.4695,-5.4419,-5.4356,-5.3783,-5.3518,-5.3518,-5.3518,-5.3518,-5.3518,-5.3518,-5.3518,-5.3518,-5.3518,-5.3518,-5.3518,-5.3518,-5.3518,-5.3518,-5.3518,-5.3518,-5.3518,-5.3518,-5.3518,-5.3518,-5.3518,-5.3518,-5.3518,-5.3518,-5.3518,-5.3518,-5.3518,-5.3585,-5.3687,-5.3687,-5.3754,-5.4059,-5.4668,-5.4769,-5.5006,-5.5615,-5.5716,-5.575,-5.5886,-5.5886,-5.5919,-5.6055,-5.6596,-5.6968,-5.6968,-5.7543,-5.7881,-5.7881,-5.7881,-5.7881,-5.7881,-5.7881,-5.7881,-5.7881,-5.7881,-5.7881,-5.7881,-5.7881,-5.7881,-5.7881,-5.7881,-5.7881,-5.7881,-5.8017,-5.849,-5.9235,-5.9979,-6.0757,-6.1535,-6.2144,-6.2381,-6.2381,-6.2381,-6.2381,-6.2381,-5.6203,-5.613,-5.6104,-5.6481,-5.6224,-5.6033,-5.6418,-5.6264,-5.6455,-5.7262,-5.7336,-5.7519,-5.796,-5.7997,-5.7997,-5.7997,-5.7997,-5.7997,-5.7997,-5.7997,-5.7997,-5.7997,-5.7997,-5.7997,-5.7997,-5.7997,-5.7997,-5.7997,-5.7997,-5.7997,-5.7997,-5.7594,-5.7252,-5.6861,-5.6421,-5.5836,-5.5084,-5.4757,-5.4391,-5.4011,-5.3618,-5.3518,-5.3518,-5.3518,-5.3518,-5.3518,-5.3518,-5.3518,-5.3518,-5.3518,-5.3518,-5.3518,-5.3518,-5.3518,-5.3518,-5.3518,-5.3518,-5.3518,-5.3518,-5.3518,-5.3518,-5.3518,-5.3518,-5.3518,-5.3518,-5.3518,-5.3518,-5.3518,-5.3518,-5.3518,-5.3518,-5.3518,-5.3619,-5.3957,-5.4025,-5.4126,-5.4465,-5.4532,-5.4668,-5.5074,-5.5108,-5.5277,-5.5683,-5.6021,-5.6224,-5.6224,-5.69,-5.7306,-5.7306,-5.7679,-5.7881,-5.7881,-5.7881,-5.7881,-5.7881,-5.7881,-5.7881,-5.7881,-5.7881,-5.7881,-5.7881,-5.7881,-5.7881,-5.7881,-5.7881,-5.8321,-5.9066,-5.981,-6.0588,-6.1366,-6.211,-6.2381,-6.2381,-6.2381,-6.2381,-6.2381,-5.5703,-5.5703,-5.5769,-5.6,-5.5678,-5.5525,-5.5883,-5.5586,-5.5611,-5.6418,-5.6528,-5.6822,-5.7629,-5.7703,-5.7813,-5.796,-5.7997,-5.7997,-5.7997,-5.7997,-5.7997,-5.7997,-5.7997,-5.7997,-5.7997,-5.7997,-5.7997,-5.7997,-5.7997,-5.7997,-5.7997,-5.7401,-5.7202,-5.7116,-5.6527,-5.5948,-5.5379,-5.5238,-5.4791,-5.4235,-5.4076,-5.3881,-5.3783,-5.3783,-5.3685,-5.3518,-5.3518,-5.3518,-5.3518,-5.3518,-5.3518,-5.3518,-5.3518,-5.3518,-5.3518,-5.3518,-5.3518,-5.3518,-5.3518,-5.3518,-5.3518,-5.3518,-5.3518,-5.3518,-5.3518,-5.3518,-5.3518,-5.3518,-5.3518,-5.3518,-5.3518,-5.3518,-5.3518,-5.3518,-5.3518,-5.3518,-5.3518,-5.3518,-5.3721,-5.4262,-5.4329,-5.4566,-5.5141,-5.5344,-5.5446,-5.5446,-5.6122,-5.663,-5.6799,-5.734,-5.7712,-5.7881,-5.7881,-5.7881,-5.7881,-5.7881,-5.7881,-5.7881,-5.7881,-5.7881,-5.7881,-5.7881,-5.7881,-5.7881,-5.7881,-5.822,-5.8795,-5.9539,-6.0317,-6.1095,-6.1839,-6.2245,-6.2381,-6.2381,-6.2381,-6.2381,-5.5703,-5.5703,-5.5577,-5.5236,-5.4874,-5.4698,-5.5063,-5.4737,-5.4766,-5.5574,-5.5684,-5.5978,-5.6822,-5.6895,-5.7189,-5.7923,-5.7997,-5.7997,-5.7997,-5.7997,-5.7997,-5.7997,-5.7997,-5.7997,-5.7997,-5.7997,-5.7997,-5.7997,-5.7997,-5.7997,-5.7997,-5.795,-5.795,-5.795,-5.7867,-5.7821,-5.769,-5.7015,-5.6668,-5.6563,-5.5836,-5.5144,-5.4544,-5.4544,-5.4106,-5.3518,-5.3518,-5.3518,-5.3518,-5.3518,-5.3518,-5.3518,-5.3518,-5.3518,-5.3518,-5.3518,-5.3518,-5.3518,-5.3518,-5.3518,-5.3518,-5.3518,-5.3518,-5.3518,-5.3518,-5.3518,-5.3518,-5.3518,-5.3518,-5.3518,-5.3518,-5.3518,-5.3518,-5.3518,-5.3518,-5.3518,-5.3518,-5.3518,-5.3518,-5.3585,-5.3585,-5.3619,-5.3653,-5.4262,-5.4668,-5.4668,-5.5378,-5.6089,-5.6765,-5.6867,-5.7171,-5.7881,-5.7881,-5.7881,-5.7881,-5.7881,-5.7881,-5.7881,-5.7881,-5.7881,-5.7881,-5.7881,-5.7881,-5.7881,-5.7881,-5.7915,-5.8017,-5.8795,-5.9539,-6.0283,-6.1061,-6.1806,-6.2381,-6.2381,-6.2381,-6.2381,-5.5588,-5.5703,-5.5577,-5.516,-5.476,-5.4434,-5.4279,-5.3887,-5.3959,-5.473,-5.484,-5.517,-5.5978,-5.6051,-5.6161,-5.6455,-5.6969,-5.7262,-5.7262,-5.7703,-5.7997,-5.7997,-5.7997,-5.7997,-5.7997,-5.7997,-5.7997,-5.7997,-5.7997,-5.7997,-5.7997,-5.7997,-5.7997,-5.7997,-5.7997,-5.7726,-5.7302,-5.7015,-5.6616,-5.6114,-5.5836,-5.5552,-5.5262,-5.5262,-5.5119,-5.4818,-5.4328,-5.4482,-5.473,-5.3849,-5.3783,-5.4106,-5.3685,-5.3518,-5.3518,-5.3518,-5.3518,-5.3518,-5.3518,-5.3518,-5.3518,-5.3518,-5.3518,-5.3518,-5.3518,-5.3518,-5.3518,-5.3518,-5.3518,-5.3518,-5.3518,-5.3518,-5.3518,-5.3518,-5.3518,-5.3518,-5.3518,-5.3518,-5.3518,-5.3518,-5.3518,-5.3518,-5.3518,-5.3754,-5.3923,-5.3923,-5.46,-5.5141,-5.5412,-5.6292,-5.7137,-5.7881,-5.7881,-5.7881,-5.7881,-5.7881,-5.7881,-5.7881,-5.7881,-5.7881,-5.7881,-5.7881,-5.7881,-5.7881,-5.7881,-5.7881,-5.7949,-5.8693,-5.9167,-5.9539,-6.0825,-6.1467,-6.1772,-6.2212,-6.2381,-6.2381,-5.5164,-5.5318,-5.533,-5.5274,-5.4848,-5.4387,-5.4083,-5.3563,-5.3408,-5.3959,-5.4032,-5.4326,-5.5133,-5.5207,-5.5317,-5.5574,-5.6088,-5.6418,-5.6418,-5.7189,-5.774,-5.7997,-5.7997,-5.7997,-5.7997,-5.7997,-5.7997,-5.7997,-5.7997,-5.7997,-5.7997,-5.7997,-5.7997,-5.7997,-5.7997,-5.7726,-5.7252,-5.7252,-5.6927,-5.6385,-5.6385,-5.6277,-5.6059,-5.6059,-5.578,-5.5262,-5.4757,-5.4757,-5.4818,-5.3849,-5.3849,-5.4171,-5.3685,-5.3518,-5.3518,-5.3518,-5.3518,-5.3518,-5.3518,-5.3518,-5.3518,-5.3518,-5.3518,-5.3518,-5.3518,-5.3518,-5.3518,-5.3518,-5.3518,-5.3518,-5.3518,-5.3518,-5.3518,-5.3518,-5.3518,-5.3518,-5.3518,-5.3518,-5.3518,-5.3518,-5.3518,-5.3518,-5.3518,-5.3518,-5.3518,-5.3518,-5.3957,-5.4363,-5.4566,-5.5987,-5.7036,-5.7543,-5.778,-5.7881,-5.7881,-5.7881,-5.7881,-5.7881,-5.7881,-5.7881,-5.7881,-5.7881,-5.7881,-5.7881,-5.7881,-5.7881,-5.7915,-5.8457,-5.8795,-5.9133,-6.0419,-6.1095,-6.14,-6.211,-6.2381,-6.2381,-5.4318,-5.4472,-5.4741,-5.5549,-5.5015,-5.4484,-5.4484,-5.3758,-5.3225,-5.3225,-5.3225,-5.3518,-5.4289,-5.4399,-5.4693,-5.55,-5.5574,-5.5574,-5.5574,-5.6345,-5.7152,-5.796,-5.7997,-5.7997,-5.7997,-5.7997,-5.7997,-5.7997,-5.7997,-5.7997,-5.7997,-5.7997,-5.7997,-5.7997,-5.7997,-5.7997,-5.7997,-5.7997,-5.7997,-5.7997,-5.7997,-5.7546,-5.6912,-5.6912,-5.5984,-5.4668,-5.4606,-5.4171,-5.3484,-5.3484,-5.3484,-5.3518,-5.3518,-5.3518,-5.3518,-5.3518,-5.3518,-5.3518,-5.3518,-5.3518,-5.3518,-5.3518,-5.3518,-5.3518,-5.3518,-5.3518,-5.3518,-5.3518,-5.3518,-5.3518,-5.3518,-5.3518,-5.3518,-5.3518,-5.3518,-5.3518,-5.3518,-5.3518,-5.3518,-5.3518,-5.3518,-5.3518,-5.3518,-5.3518,-5.3518,-5.3518,-5.3518,-5.3822,-5.4566,-5.5987,-5.6799,-5.6799,-5.7509,-5.7881,-5.7881,-5.7881,-5.7881,-5.7881,-5.7881,-5.7881,-5.7881,-5.7881,-5.7881,-5.7881,-5.7881,-5.7881,-5.7881,-5.7881,-5.8321,-5.9066,-5.981,-6.0588,-6.1366,-6.211,-6.2381,-6.2381,-5.3433,-5.3587,-5.3755,-5.4254,-5.4166,-5.4019,-5.4006,-5.3796,-5.3524,-5.323,-5.3225,-5.3298,-5.3555,-5.3555,-5.3665,-5.3922,-5.4436,-5.4987,-5.5537,-5.5794,-5.6051,-5.6308,-5.7409,-5.7997,-5.7997,-5.7997,-5.7997,-5.7997,-5.7997,-5.7997,-5.7997,-5.7997,-5.7997,-5.7997,-5.7997,-5.7997,-5.7997,-5.7997,-5.7997,-5.7997,-5.7997,-5.7904,-5.7679,-5.7679,-5.7401,-5.6927,-5.6367,-5.6421,-5.6474,-5.5379,-5.5414,-5.5759,-5.5238,-5.5059,-5.4939,-5.4419,-5.4264,-5.4171,-5.3685,-5.3518,-5.3518,-5.3518,-5.3518,-5.3518,-5.3518,-5.3518,-5.3518,-5.3518,-5.3518,-5.3518,-5.3518,-5.3518,-5.3518,-5.3518,-5.3518,-5.3518,-5.3518,-5.3518,-5.3518,-5.3518,-5.3518,-5.3518,-5.3518,-5.3518,-5.3518,-5.3518,-5.3518,-5.3822,-5.4566,-5.5006,-5.5716,-5.6765,-5.7002,-5.7374,-5.7881,-5.7881,-5.7881,-5.7881,-5.7881,-5.7881,-5.7881,-5.7881,-5.7881,-5.7881,-5.7881,-5.7881,-5.7881,-5.7881,-5.8017,-5.8355,-5.9607,-6.025,-6.0622,-6.1907,-6.2381,-6.2381,-5.251,-5.2702,-5.2871,-5.346,-5.3697,-5.3746,-5.359,-5.3719,-5.3682,-5.323,-5.3225,-5.3225,-5.3225,-5.3225,-5.3225,-5.3225,-5.3665,-5.4142,-5.462,-5.495,-5.5133,-5.5133,-5.6345,-5.7189,-5.7519,-5.7519,-5.7666,-5.7997,-5.7997,-5.7997,-5.7997,-5.7997,-5.7997,-5.7997,-5.7997,-5.7997,-5.7997,-5.7997,-5.7997,-5.7997,-5.7997,-5.7997,-5.7997,-5.7997,-5.7821,-5.7498,-5.7065,-5.7015,-5.6978,-5.6004,-5.6004,-5.6313,-5.5836,-5.5724,-5.5552,-5.4818,-5.4818,-5.4878,-5.4171,-5.3946,-5.3946,-5.3946,-5.3717,-5.3518,-5.3518,-5.3518,-5.3518,-5.3518,-5.3518,-5.3518,-5.3518,-5.3518,-5.3518,-5.3518,-5.3518,-5.3518,-5.3518,-5.3518,-5.3518,-5.3518,-5.3518,-5.3518,-5.3518,-5.3518,-5.3518,-5.3518,-5.3518,-5.3687,-5.4126,-5.4431,-5.5006,-5.5886,-5.6494,-5.7002,-5.7442,-5.7746,-5.7881,-5.7881,-5.7881,-5.7881,-5.7881,-5.7881,-5.7881,-5.7881,-5.7881,-5.7881,-5.7881,-5.7881,-5.7881,-5.8017,-5.9201,-5.9844,-6.025,-6.1501,-6.2144,-6.2381,-5.1664,-5.1779,-5.2087,-5.2933,-5.336,-5.3487,-5.3157,-5.3447,-5.3533,-5.3162,-5.3188,-5.3225,-5.3225,-5.3225,-5.3225,-5.3225,-5.3225,-5.3225,-5.3225,-5.3885,-5.4289,-5.4289,-5.4987,-5.5757,-5.6565,-5.6675,-5.7042,-5.7776,-5.7776,-5.7813,-5.7886,-5.7886,-5.7923,-5.7997,-5.7997,-5.7997,-5.7997,-5.7997,-5.7997,-5.7997,-5.7997,-5.7997,-5.7997,-5.7997,-5.7546,-5.7015,-5.7015,-5.6527,-5.5893,-5.5893,-5.5893,-5.5893,-5.5893,-5.5893,-5.578,-5.5059,-5.5203,-5.5552,-5.4818,-5.4544,-5.4482,-5.4482,-5.4011,-5.3518,-5.3518,-5.3518,-5.3518,-5.3518,-5.3518,-5.3518,-5.3518,-5.3518,-5.3518,-5.3518,-5.3518,-5.3518,-5.3518,-5.3518,-5.3518,-5.3518,-5.3518,-5.3518,-5.3518,-5.3518,-5.3518,-5.3518,-5.3518,-5.3518,-5.3518,-5.4126,-5.4532,-5.46,-5.5953,-5.6731,-5.6799,-5.7509,-5.7881,-5.7881,-5.7881,-5.7881,-5.7881,-5.7881,-5.7881,-5.7881,-5.7881,-5.7881,-5.7881,-5.7881,-5.7881,-5.7949,-5.8727,-5.9471,-6.0216,-6.0994,-6.1772,-6.2381,-5.0933,-5.0971,-5.1202,-5.2049,-5.2005,-5.1954,-5.2205,-5.2619,-5.2754,-5.2316,-5.2821,-5.3225,-5.3225,-5.3225,-5.3225,-5.3225,-5.3225,-5.3225,-5.3225,-5.3371,-5.3482,-5.3482,-5.3628,-5.4106,-5.4913,-5.5537,-5.5941,-5.6124,-5.6124,-5.6418,-5.7079,-5.7079,-5.7409,-5.7997,-5.7997,-5.7997,-5.7997,-5.7997,-5.7997,-5.7997,-5.7997,-5.7997,-5.7997,-5.7997,-5.7904,-5.7774,-5.7774,-5.7642,-5.7498,-5.7498,-5.7498,-5.7498,-5.7498,-5.7498,-5.7364,-5.6616,-5.6095,-5.5552,-5.4818,-5.4171,-5.3717,-5.3717,-5.3618,-5.3518,-5.3518,-5.3518,-5.3518,-5.3518,-5.3518,-5.3518,-5.3518,-5.3518,-5.3518,-5.3518,-5.3518,-5.3518,-5.3518,-5.3518,-5.3518,-5.3518,-5.3518,-5.3518,-5.3518,-5.3518,-5.3518,-5.3518,-5.3518,-5.3518,-5.3518,-5.3653,-5.3991,-5.4566,-5.548,-5.6224,-5.6799,-5.7509,-5.7881,-5.7881,-5.7881,-5.7881,-5.7881,-5.7881,-5.7881,-5.7881,-5.7881,-5.7881,-5.7881,-5.7881,-5.7881,-5.7949,-5.8727,-5.9471,-6.0216,-6.0994,-6.1772,-6.2381,-5.0702,-5.0702,-5.0818,-5.1241,-5.1463,-5.1558,-5.1404,-5.192,-5.2113,-5.1511,-5.2123,-5.2637,-5.2637,-5.2968,-5.3225,-5.3225,-5.3225,-5.3225,-5.3225,-5.3225,-5.3225,-5.3225,-5.3225,-5.3408,-5.3812,-5.4252,-5.484,-5.5574,-5.5574,-5.5794,-5.6235,-5.6235,-5.6675,-5.7446,-5.7446,-5.7629,-5.7997,-5.7997,-5.7997,-5.7997,-5.7997,-5.7997,-5.7997,-5.7997,-5.7997,-5.7997,-5.7997,-5.7997,-5.7997,-5.7997,-5.7997,-5.7997,-5.7997,-5.7997,-5.7857,-5.7116,-5.6825,-5.6632,-5.5928,-5.5414,-5.5034,-5.4668,-5.4264,-5.3946,-5.3551,-5.3518,-5.3518,-5.3518,-5.3518,-5.3518,-5.3518,-5.3518,-5.3518,-5.3518,-5.3518,-5.3518,-5.3518,-5.3518,-5.3518,-5.3518,-5.3518,-5.3518,-5.3518,-5.3518,-5.3518,-5.3518,-5.3518,-5.3518,-5.3518,-5.3518,-5.3687,-5.4059,-5.4803,-5.5547,-5.6292,-5.7002,-5.7543,-5.7881,-5.7881,-5.7881,-5.7881,-5.7881,-5.7881,-5.7881,-5.7881,-5.7881,-5.7881,-5.7881,-5.7881,-5.7915,-5.8321,-5.9133,-6.0148,-6.0588,-6.1434,-6.2381,-5.0702,-5.0702,-5.0702,-5.0702,-5.1201,-5.1331,-5.061,-5.1179,-5.1424,-5.0664,-5.1279,-5.1793,-5.1793,-5.2527,-5.3078,-5.3188,-5.3225,-5.3225,-5.3225,-5.3225,-5.3225,-5.3225,-5.3225,-5.3225,-5.3225,-5.3225,-5.3849,-5.517,-5.517,-5.5244,-5.539,-5.539,-5.5831,-5.6602,-5.6602,-5.7042,-5.7776,-5.7776,-5.7886,-5.7997,-5.7997,-5.7997,-5.7997,-5.7997,-5.7997,-5.7997,-5.7997,-5.7997,-5.7997,-5.7997,-5.7997,-5.7997,-5.7997,-5.7997,-5.7867,-5.7302,-5.7449,-5.7679,-5.7065,-5.6809,-5.6563,-5.5893,-5.5262,-5.4606,-5.3815,-5.3618,-5.3518,-5.3518,-5.3518,-5.3518,-5.3518,-5.3518,-5.3518,-5.3518,-5.3518,-5.3518,-5.3518,-5.3518,-5.3518,-5.3518,-5.3518,-5.3518,-5.3518,-5.3518,-5.3518,-5.3518,-5.3518,-5.3518,-5.3518,-5.3518,-5.3518,-5.3518,-5.4228,-5.4938,-5.5716,-5.6427,-5.7171,-5.7881,-5.7881,-5.7881,-5.7881,-5.7881,-5.7881,-5.7881,-5.7881,-5.7881,-5.7881,-5.7881,-5.7881,-5.7881,-5.7881,-5.8795,-6.0148,-6.0385,-6.1298,-6.2381,-5.0702,-5.0702,-5.0702,-5.0702,-5.0517,-5.0215,-4.975,-5.0065,-5.0226,-4.9816,-5.0472,-5.0949,-5.0949,-5.1683,-5.2454,-5.3151,-5.3225,-5.3225,-5.3225,-5.3225,-5.3225,-5.3225,-5.3225,-5.3225,-5.3225,-5.3225,-5.3335,-5.3518,-5.3518,-5.3885,-5.4546,-5.4546,-5.4987,-5.5757,-5.5757,-5.6198,-5.6969,-5.6969,-5.7373,-5.7997,-5.7997,-5.7997,-5.7997,-5.7997,-5.7997,-5.7997,-5.7997,-5.7997,-5.7997,-5.7997,-5.7997,-5.7997,-5.7997,-5.7997,-5.7997,-5.7867,-5.7449,-5.7015,-5.6912,-5.6367,-5.5836,-5.5724,-5.5667,-5.5379,-5.4606,-5.3946,-5.3518,-5.3518,-5.3518,-5.3518,-5.3518,-5.3518,-5.3518,-5.3518,-5.3518,-5.3518,-5.3518,-5.3518,-5.3518,-5.3518,-5.3518,-5.3518,-5.3518,-5.3518,-5.3518,-5.3518,-5.3518,-5.3518,-5.3518,-5.3518,-5.3518,-5.3518,-5.4228,-5.4938,-5.5716,-5.6427,-5.7171,-5.7881,-5.7881,-5.7881,-5.7881,-5.7881,-5.7881,-5.7881,-5.7881,-5.7881,-5.7881,-5.7881,-5.7881,-5.7881,-5.7881,-5.8795,-6.025,-6.1603,-6.2212,-6.2381,-5.0587,-5.0702,-5.0702,-5.0702,-5.0525,-5.0313,-4.9898,-4.9776,-4.9636,-4.9267,-4.9748,-5.0105,-5.0105,-5.1242,-5.2123,-5.2491,-5.2931,-5.3225,-5.3225,-5.3225,-5.3225,-5.3225,-5.3225,-5.3225,-5.3225,-5.3225,-5.3225,-5.3225,-5.3225,-5.3408,-5.3739,-5.3739,-5.4179,-5.4913,-5.4913,-5.539,-5.6124,-5.6124,-5.6602,-5.7336,-5.7336,-5.7593,-5.7997,-5.7997,-5.7997,-5.7997,-5.7997,-5.7997,-5.7997,-5.7997,-5.7997,-5.7997,-5.7997,-5.7997,-5.7997,-5.7997,-5.7774,-5.7498,-5.7498,-5.7266,-5.6927,-5.6474,-5.6367,-5.6204,-5.5379,-5.4939,-5.4516,-5.3685,-5.3518,-5.3518,-5.3518,-5.3518,-5.3518,-5.3518,-5.3518,-5.3518,-5.3518,-5.3518,-5.3518,-5.3518,-5.3518,-5.3518,-5.3518,-5.3518,-5.3518,-5.3518,-5.3518,-5.3518,-5.3518,-5.3518,-5.3518,-5.3518,-5.3822,-5.4532,-5.5716,-5.6021,-5.6765,-5.7881,-5.7881,-5.7881,-5.7881,-5.7881,-5.7881,-5.7881,-5.7881,-5.7881,-5.7881,-5.7881,-5.7881,-5.7881,-5.7881,-5.8795,-6.0283,-6.1806,-6.2381,-6.2302]}]]